[[{"header":{"parameterUnit":"m.s-1","parameterCategory":1,"la1":30.6,"la2":29.2853,"lo1":-89.7004,"lo2":-87.6739,"dy":0.0162,"dx":0.0183,"nx":112,"ny":82,"refTime":"2026-02-28T12:00:00:Z","depth":0,"parameterNumber":2,"parameterNumberName":"U-component_of_WINDS"},"data":[0.0,0.0,0.0,0.0,0.0,0.0,0.0,0.0,0.0,0.0,0.0,0.0,0.0,0.0,0.0,0.0,0.0,0.0,0.0,0.0,0.0,0.0,0.0,0.0,0.0,0.0,0.0,0.0,0.0,0.0,0.0,0.0,0.0,0.0,0.0,0.0,0.0,0.0,0.0,0.0,0.0,0.0,0.0,0.0,0.0,0.0,0.0,0.0,0.0,0.0,0.0,0.0,0.0,0.0,0.0,0.0,0.0,0.0,0.0,0.0,0.0,0.0,0.0,0.0,0.0,0.0,0.0,0.0,0.0,0.0,0.0,0.0,0.0,0.0,0.0,0.0,0.0,0.0,0.0,0.0,0.0,0.0,0.0,0.0,0.0,0.0,0.0,0.0,0.0,0.0,-0.1282,-0.1404,-0.1634,-0.0487,0.276,0.1343,0.0163,-0.0114,0.0,0.0,0.0,0.0,0.0,0.0,0.0,0.0,0.0,0.0,0.0,0.0,0.0,0.0,0.0,0.0,0.0,0.0,0.0,0.0,0.0,0.0,0.0,0.0,0.0,0.0,0.0,0.0,0.0,0.0,0.0,0.0,0.0,0.0,0.0,0.0,0.0,0.0,0.0,0.0,0.0,0.0,0.0,0.0,0.0,0.0,0.0,0.0,0.0,0.0,0.0,0.0,0.0,0.0,0.0,0.0,0.0,0.0,0.0,0.0,0.0,0.0,0.0,0.0,0.0,0.0,0.0,0.0,0.0,0.0,0.0,0.0,0.0,0.0,0.0,0.0,0.0,0.0,0.0,0.0,0.0,0.0,0.0,0.0,0.0,0.0,0.0,0.0,0.0,0.0,0.0,0.0,0.0,0.0,0.0,0.0,0.0,0.0,0.0,0.0,0.0,0.0,0.0,0.0,-0.1337,-0.1033,-0.1469,-0.02,0.373,0.4179,0.3201,0.0782,0.0,0.0,0.0,0.0,0.0,0.0,0.0,0.0,0.0,0.0,0.0,0.0,0.0,0.0,0.0,0.0,0.0,0.0,0.0,0.0,0.0,0.0,0.0,0.0,0.0,0.0,0.0,0.0,0.0,0.0,0.0,0.0,0.0,0.0,0.0,0.0,0.0,0.0,0.0,0.0,0.0,0.0,0.0,0.0,0.0,0.0,0.0,0.0,0.0,0.0,0.0,0.0,0.0,0.0,0.0,0.0,0.0,0.0,0.0,0.0,0.0,0.0,0.0,0.0,0.0,0.0,0.0,0.0,0.0,0.0,0.0,0.0,0.0,0.0,0.0,0.0,0.0,0.0,0.0,0.0,0.0,0.0,0.0,0.0,0.0,0.0,0.0,0.0,0.0,0.0,0.0,0.0,0.0,0.0,0.0,0.0,0.0,0.0,0.0,0.0,0.0,0.0,0.0,-0.0788,-0.0489,0.0022,0.0111,0.175,0.5704,0.4722,0.3804,0.3574,0.1164,0.0,0.0,0.0,0.0,0.0,0.0,0.0,0.0,0.0,0.0,0.0,0.0,0.0,0.0,0.0,0.0,0.0,0.0,0.0,0.0,0.0,0.0,0.0,0.0,0.0,0.0,0.0,0.0,0.0,0.0,0.0,0.0,0.0,0.0,0.0,0.0,0.0,0.0,0.0,0.0,0.0,0.0,0.0,0.0,0.0,0.0,0.0,0.0,0.0,0.0,0.0,0.0,0.0,0.0,0.0,0.0,0.0,0.0,0.0,0.0,0.0,0.0,0.0,0.0,0.0,0.0,0.0,0.0,0.0,0.0,0.0,0.0,0.0,0.0,0.0,0.0,0.0,0.0,0.0,0.0,0.0,0.0,0.0,0.0,0.0,0.0,0.0,0.0,0.0,0.0,0.0,0.0,0.0,0.0,0.0,0.0,0.0,0.0,0.0,0.0,0.0,0.0,0.0066,0.0554,0.1247,0.1847,0.3667,0.7315,0.4863,0.4051,0.6181,0.4203,0.0,0.0,0.0,0.0,0.0,0.0,0.0,0.0,0.0,0.0,0.0,0.0,0.0,0.0,0.0,0.0,0.0,0.0,0.0,0.0,0.0,0.0,0.0,0.0,0.0,0.0,0.0,0.0,0.0,0.0,0.0,0.0,0.0,0.0,0.0,0.0,0.0,0.0,0.0,0.0,0.0,0.0,0.0,0.0,0.0,0.0,0.0,0.0,0.0,0.0,0.0,0.0,0.0,0.0,0.0,0.0,0.0,0.0,0.0,0.0,0.0,0.0,0.0,0.0,0.0,0.0,0.0,0.0,0.0,0.0,0.0,0.0,0.0,0.0,0.0,0.0,0.0,0.0,0.0,0.0,0.0,0.0,0.0,0.0,0.0,0.0,0.0,0.0,0.0,0.0,0.0,0.0,0.0,0.0,0.0,0.0,0.0,0.0,0.0,0.0,0.0,0.0,0.0978,0.1487,0.2473,0.3048,0.4627,0.7715,0.5415,0.4901,0.7406,0.5321,0.0,0.0,0.0,0.0,0.0,0.0,0.0,0.0,0.0,0.0,0.0,0.0,0.0,0.0,0.0,0.0,0.0,0.0,0.0,0.0,0.0,0.0,0.0,0.0,0.0,0.0,0.0,0.0,0.0,0.0,0.0,0.0,0.0,0.0,0.0,0.0,0.0,0.0,0.0,0.0,0.0,0.0,0.0,0.0,0.0,0.0,0.0,0.0,0.0,0.0,0.0,0.0,0.0,0.0,0.0,0.0,0.0,0.0,0.0,0.0,0.0,0.0,0.0,0.0,0.0,0.0,0.0,0.0,0.0,0.0,0.0,0.0,0.0,0.0,0.0,0.0,0.0,0.0,0.0,0.0,0.0,0.0,0.0,0.0,0.0,0.0,0.0,0.0,0.0,0.0,0.0,0.0,0.0,0.0,0.0,0.0,0.0,0.0,0.0,0.0,0.0,0.0,0.1922,0.244,0.2907,0.3529,0.4847,0.7124,0.6243,0.6259,0.7855,0.0,0.0,0.0,0.0,0.0,0.0,0.0,0.0,0.0,0.0,0.0,0.0,0.0,0.0,0.0,0.0,0.0,0.0,0.0,0.0,0.0,0.0,0.0,0.0,0.0,0.0,0.0,0.0,0.0,0.0,0.0,0.0,0.0,0.0,0.0,0.0,0.0,0.0,0.0,0.0,0.0,0.0,0.0,0.0,0.0,0.0,0.0,0.0,0.0,0.0,0.0,0.0,0.0,0.0,0.0,0.0,0.0,0.0,0.0,0.0,0.0,0.0,0.0,0.0,0.0,0.0,0.0,0.0,0.0,0.0,0.0,0.0,0.0,0.0,0.0,0.0,0.0,0.0,0.0,0.0,0.0,0.0,0.0,0.0,0.0,0.0,0.0,0.0,0.0,0.0,0.0,0.0,0.0,0.0,0.0,0.0,0.0,0.0,0.0,0.0,0.0,0.0,0.228,0.2934,0.3342,0.3347,0.3936,0.4905,0.6369,0.6296,0.6701,0.7894,0.0,0.0,0.0,0.0,0.0,0.0,0.0,0.0,0.0,0.0,0.0,0.0,0.0,0.0,0.0,0.0,0.0,0.0,0.0,0.0,0.0,0.0,0.0,0.0,0.0,0.0,0.0,0.0,0.0,0.0,0.0,0.0,0.0,0.0,0.0,0.0,0.0,0.0,0.0,0.0,0.0,0.0,0.0,0.0,0.0,0.0,0.0,0.0,0.0,0.0,0.0,0.0,0.0,0.0,0.0,0.0,0.0,0.0,0.0,0.0,0.0,0.0,0.0,0.0,0.0,0.0,0.0,0.0,0.0,0.0,0.0,0.0,0.0,0.0,0.0,0.0,0.0,0.0,0.0,0.0,0.0,0.0,0.0,0.0,0.0,0.0,0.0,0.0,0.0,0.0,0.0,0.0,0.0,0.0,0.0,0.0,0.0,0.0,0.0,0.0,0.0,0.0,0.3474,0.3952,0.4196,0.3938,0.4321,0.4886,0.5549,0.5431,0.5992,0.0,0.0,0.0,0.0,0.0,0.0,0.0,0.0,0.0,0.0,0.0,0.0,0.0,0.0,0.0,0.0,0.0,0.0,0.0,0.0,0.0,0.0,0.0,0.0,0.0,0.0,0.0,0.0,0.0,0.0,0.0,0.0,0.0,0.0,0.0,0.0,0.0,0.0,0.0,0.0,0.0,0.0,0.0,0.0,0.0,0.0,0.0,0.0,0.0,0.0,0.0,0.0,0.0,0.0,0.0,0.0,0.0,0.0,0.0,0.0,0.0,0.0,0.0,0.0,0.0,0.0,0.0,0.0,0.0,0.0,0.0,0.0,0.0,0.0,0.0,0.0,0.0,0.0,0.0,0.0,0.0,0.0,0.0,0.0,0.0,0.0,0.0,0.0,0.0,0.0,0.0,0.0,0.0,0.0,0.0,0.0,0.0,0.0,0.0,0.0,0.0,0.0,0.0,0.2829,0.3417,0.3867,0.4025,0.4589,0.5254,0.6023,0.6303,0.6537,0.6773,0.0,0.0,0.0,0.0,0.0,0.0,0.0,0.0,0.0,0.0,0.0,0.0,0.0,0.0,0.0,0.0,0.0,0.0,0.0,0.0,0.0,0.0,0.0,0.0,0.0,0.0,0.0,0.0,0.0,0.0,0.0,0.0,0.0,0.0,0.0,0.0,0.0,0.0,0.0,0.0,0.0,0.0,0.0,0.0,0.0,0.0,0.0,0.0,0.0,0.0,0.0,0.0,0.0,0.0,0.0,0.0,0.0,0.0,0.0,0.0,0.0,0.0,0.0,0.0,0.0,0.0,0.0,0.0,0.0,0.0,0.0,0.0,0.0,0.0,0.0,0.0,0.0,0.0,0.0,0.0,0.0,0.0,0.0,0.0,0.0,0.0,0.0,0.0,0.0,0.0,0.0,0.0,0.0,0.0,0.0,0.0,0.0,0.0,0.0,0.0,0.0,0.0,0.2817,0.3487,0.4021,0.4158,0.4627,0.5125,0.5584,0.5922,0.6042,0.5886,0.0,0.0,0.0,0.0,0.0,0.0,0.0,0.0,0.0,0.0,0.0,0.0,0.0,0.0,0.0,0.0,0.0,0.0,0.0,0.0,0.0,0.0,0.0,0.0,0.0,0.0,0.0,0.0,0.0,0.0,0.0,0.0,0.0,0.0,0.0,0.0,0.0,0.0,0.0,0.0,0.0,0.0,0.0,0.0,0.0,0.0,0.0,0.0,0.0,0.0,0.0,0.0,0.0,0.0,0.0,0.0,0.0,0.0,0.0,0.0,0.0,0.0,0.0,0.0,0.0,0.0,0.0,0.0,0.0,0.0,0.0,0.0,0.0,0.0,0.0,0.0,0.0,0.0,0.0,0.0,0.0,0.0,0.0,0.0,0.0,0.0,0.0,0.0,0.0,0.0,0.0,0.0,0.0,0.0,0.0,0.0,0.0,0.0,0.0,0.0,0.0,0.0,0.3151,0.3922,0.4413,0.4311,0.454,0.4675,0.4638,0.481,0.4979,0.5095,0.0,0.0,0.0,0.0,0.0,0.0,0.0,0.0,0.0,0.0,0.0,0.0,0.0,0.0,0.0,0.0,0.0,0.0,0.0,0.0,0.0,0.0,0.0,0.0,0.0,0.0,0.0,0.0,0.0,0.0,0.0,0.0,0.0,0.0,0.0,0.0,0.0,0.0,0.0,0.0,0.0,0.0,0.0,0.0,0.0,0.0,0.0,0.0,0.0,0.0,0.0,0.0,0.0,0.0,0.0,0.0,0.0,0.0,0.0,0.0,0.4606,0.4816,0.0,0.0,0.0,0.0,0.0,0.0,0.0,0.0,0.0,0.0,0.0,0.0,0.0,0.0,0.0,0.0,0.0,0.0,0.0,0.0,0.0,0.0,0.0,0.0,0.0,0.0,0.0,0.0,0.0,0.0,0.0,0.0,0.0,0.0,0.0,0.0,0.0,0.0,0.0,0.0,0.2937,0.3638,0.4135,0.4217,0.451,0.4728,0.4834,0.4973,0.5068,0.5097,0.5039,0.0,0.0,0.0,0.0,0.0,0.0,0.0,0.0,0.0,0.0,0.0,0.0,0.0,0.0,0.0,0.0,0.0,0.0,0.0,0.0,0.0,0.0,0.0,0.0,0.0,0.0,0.0,0.0,0.0,0.0,0.0,0.0,0.0,0.0,0.0,0.0,0.0,0.0,0.0,0.0,0.0,0.0,0.0,0.0,0.0,0.0,0.0,0.0,0.0,0.0,0.0,0.0,0.0,0.0,0.0,0.0,0.0,0.0,0.0,0.5656,0.5892,0.0,0.0,0.0,0.0,0.0,0.0,0.0,0.0,0.0,0.0,0.0,0.0,0.0,0.0,0.0,0.0,0.0,0.0,0.0,0.0,0.0,0.0,0.0,0.0,0.0,0.0,0.0,0.0,0.0,0.0,0.0,0.0,0.0,0.0,0.0,0.0,0.0,0.0,0.0,0.0,0.3676,0.43,0.4867,0.5341,0.533,0.5341,0.5515,0.527,0.5087,0.506,0.5044,0.0,0.0,0.0,0.0,0.0,0.0,0.0,0.0,0.0,0.0,0.0,0.0,0.0,0.0,0.0,0.0,0.0,0.0,0.0,0.0,0.0,0.0,0.0,0.0,0.0,0.0,0.0,0.0,0.0,0.0,0.0,0.0,0.0,0.0,0.0,0.0,0.0,0.0,0.0,0.0,0.0,0.0,0.0,0.0,0.0,0.0,0.0,0.0,0.0,0.0,0.0,0.0,0.0,0.133,0.14,0.1698,0.1888,0.3165,0.5255,0.5432,0.5826,0.6281,0.575,0.0,0.0,0.0,0.0,0.0,0.0,0.0,0.0,0.0,0.0,0.0,0.0,0.0,0.0,0.0,0.0,0.0,0.0,0.0,0.0,0.0,0.0,0.662,0.742,0.7348,0.6568,0.459,0.0,0.0,0.0,0.0,0.0,0.0,0.0,0.0,0.0,0.0,0.0,0.4659,0.528,0.5933,0.6702,0.6285,0.6014,0.6207,0.5529,0.505,0.4995,0.5044,0.5036,0.0,0.0,0.0,0.0,0.0,0.0,0.0,0.0,0.0,0.0,0.0,0.0,0.0,0.0,0.0,0.0,0.0,0.0,0.0,0.0,0.0,0.0,0.0,0.0,0.0,0.0,0.0,0.0,0.0,0.0,0.0,0.0,-0.2856,-0.3076,0.0,0.0,0.0,0.0,0.0,0.0,0.0,0.0,0.0,0.0,0.0,0.0,0.0,0.3026,0.2306,0.2592,0.2416,0.1762,0.1212,0.1066,0.1287,0.1669,0.2414,0.3486,0.4356,0.0,0.6729,0.5681,0.0,0.0,0.0,0.0,0.0,0.0,0.0,0.0,0.0,0.0,0.0,0.0,0.0,0.0,0.0,0.0,0.0,0.0,0.0,0.0,0.0,0.0,0.6834,0.6503,0.6385,0.6289,0.6084,0.627,0.635,0.5858,0.5081,0.443,0.0,0.0,0.0,0.0,0.0,0.0,0.5045,0.5961,0.6748,0.7097,0.6505,0.6138,0.6279,0.5502,0.501,0.4992,0.5005,0.4973,0.4897,0.4916,0.0,0.0,0.0,0.0,0.0,0.0,0.0,0.0,0.0,0.0,0.0,0.0,0.0,0.0,0.0,0.0,0.0,0.0,0.0,0.0,0.0,0.0,0.0,0.0,0.0,0.0,0.0,0.0,0.0,-0.2549,-0.2746,-0.2904,-0.3376,-0.309,0.0,0.0,0.0,0.0,0.0,0.0,0.0,0.0,0.0,0.248,0.3168,0.3067,0.2034,0.2488,0.2245,0.1292,0.1368,0.1272,0.1048,0.1804,0.2568,0.3352,0.3956,0.5029,0.6317,0.6034,0.6151,0.6464,0.0,0.0,0.0,0.0,0.5668,0.5977,0.5935,0.6111,0.6366,0.6602,0.0,0.0,0.0,0.0,0.0,0.0,0.0,0.7277,0.7088,0.7327,0.7541,0.723,0.7215,0.732,0.7494,0.7612,0.7527,0.6959,0.657,0.6255,0.5985,0.565,0.0,0.0,0.0,0.6062,0.661,0.7146,0.7739,0.8419,0.7873,0.7317,0.7,0.6185,0.5449,0.4911,0.4954,0.4957,0.4842,0.4916,0.4925,0.0,0.0,0.0,0.0,0.0,0.0,0.0,0.0,0.0,0.0,0.0,0.0,0.0,0.0,0.0,0.0,0.0,0.0,0.0,0.0,0.0,0.0,0.0,0.0,0.0,0.0,0.0,0.0,-0.2835,-0.2692,-0.2925,-0.3214,-0.2557,0.0,0.0,0.0,0.0,0.0,0.0,0.4398,0.4099,0.3517,0.2551,0.2997,0.2722,0.1587,0.2116,0.1977,0.1143,0.1592,0.1658,0.1444,0.2188,0.2955,0.3721,0.392,0.4711,0.5895,0.6206,0.6655,0.7122,0.6912,0.6881,0.6881,0.6581,0.659,0.6772,0.6937,0.713,0.7363,0.7709,0.7797,0.7866,0.8286,0.0,0.0,0.0,0.0,0.8394,0.8272,0.8394,0.8529,0.8439,0.8378,0.8409,0.8618,0.8579,0.8335,0.7746,0.7708,0.7701,0.7486,0.7124,0.0,0.6864,0.689,0.7172,0.7853,0.8222,0.8718,0.9518,0.8953,0.825,0.7551,0.6682,0.5779,0.4856,0.4916,0.4928,0.4797,0.4909,0.4944,0.4894,0.0,0.0,0.0,0.0,0.0,0.0,0.0,0.0,0.0,0.0,0.0,0.0,0.0,0.0,0.0,0.0,0.0,0.0,0.0,0.0,0.0,0.0,0.0,0.0,0.0,0.0,0.0,0.0,0.0,-0.3309,-0.2559,0.0,0.0,0.0,0.0,0.4146,0.4587,0.5217,0.621,0.4535,0.3338,0.2891,0.2353,0.1714,0.0959,0.154,0.1809,0.1765,0.1794,0.2148,0.2799,0.2843,0.3382,0.4251,0.4279,0.4857,0.5814,0.5895,0.5923,0.5886,0.5871,0.599,0.6153,0.6124,0.6576,0.7164,0.718,0.7363,0.7575,0.762,0.8407,0.947,0.9938,1.0383,0.0,0.0,1.0223,1.0058,0.9989,0.9896,0.9803,0.98,0.9411,0.9096,0.9306,0.9055,0.862,0.808,0.7978,0.7961,0.7882,0.0,0.7551,0.7546,0.8132,0.8449,0.8126,0.8928,0.9621,0.9844,0.9113,0.8293,0.757,0.6646,0.5738,0.4852,0.486,0.487,0.4793,0.486,0.4897,0.4894,0.4969,0.0,0.0,0.0,0.0,0.0,0.0,0.0,0.0,0.0,0.0,0.0,0.0,0.0,0.0,0.0,0.0,0.0,0.0,0.0,0.0,0.0,0.0,0.0,0.0,0.0,0.0,0.0,0.0,-0.381,-0.3228,0.0,0.1217,0.1528,0.301,0.6534,0.5878,0.5218,0.4985,0.4079,0.3192,0.2353,0.2029,0.1752,0.1482,0.1683,0.1989,0.2371,0.2111,0.2595,0.3669,0.3577,0.4359,0.5779,0.6015,0.6743,0.7772,0.7588,0.718,0.6722,0.7081,0.7204,0.7211,0.73,0.7611,0.8083,0.8323,0.8606,0.8891,0.9326,0.9888,1.0447,1.0707,1.0893,1.0954,1.0606,1.0447,1.0333,1.004,1.0023,1.0094,1.0094,1.0078,1.0158,1.0497,1.0457,1.0244,0.9879,0.9382,0.8988,0.8894,0.899,0.9,0.8797,0.9055,0.9223,0.9086,0.9385,0.9694,0.9936,0.9652,0.9136,0.8394,0.7513,0.6621,0.576,0.5232,0.4934,0.4863,0.4931,0.4973,0.4972,0.5027,0.5038,0.0,0.0,0.0,0.0,0.0,0.0,0.0,0.0,0.0,0.0,0.0,0.0,0.0,0.0,0.0,0.0,0.0,0.0,0.0,0.0,0.0,0.0,0.0,0.0,0.0,-0.364,-0.3738,-0.4085,-0.3361,-0.1432,0.2154,0.2179,0.358,0.7458,0.6352,0.5332,0.4964,0.4078,0.3412,0.3061,0.2241,0.2185,0.2979,0.2401,0.2371,0.2871,0.2813,0.3252,0.4191,0.4624,0.5657,0.7158,0.7549,0.8253,0.9125,0.8994,0.8545,0.7976,0.7931,0.784,0.7762,0.773,0.7872,0.816,0.8819,0.9342,0.9866,1.0618,1.1058,1.1327,1.1654,1.1797,1.1782,1.1335,1.12,1.1113,1.0652,1.0712,1.0867,1.0867,1.1024,1.1183,1.1395,1.1464,1.1423,1.1185,1.052,0.9881,0.9609,0.9722,0.9799,0.9576,0.9629,0.9698,0.9669,0.9708,0.9813,0.9982,0.9971,0.9624,0.8873,0.8228,0.7504,0.6657,0.5819,0.5339,0.5272,0.5367,0.5401,0.5395,0.5696,0.5701,0.5447,0.0,0.0,0.0,0.0,0.0,0.0,0.0,0.0,0.0,0.0,0.0,0.0,0.0,0.0,0.0,0.0,0.0,0.0,0.0,0.0,0.0,0.0,0.0,-0.4018,-0.3754,-0.3788,-0.4187,-0.2849,-0.0996,0.1309,0.2505,0.4193,0.6752,0.5963,0.5652,0.6319,0.4463,0.3851,0.4881,0.2902,0.2905,0.5201,0.3556,0.2906,0.327,0.3801,0.4178,0.4453,0.592,0.7214,0.8311,0.8766,0.9245,0.971,0.9953,0.987,0.9457,0.8262,0.7779,0.7734,0.7406,0.7324,0.7474,0.8604,0.9574,1.0439,1.1343,1.1842,1.2157,1.2835,1.3191,1.3278,1.2743,1.2591,1.2475,1.194,1.2018,1.221,1.221,1.2246,1.2197,1.2024,1.2081,1.2123,1.1903,1.1282,1.0612,1.0082,0.9913,0.9849,0.9842,0.9869,0.0,0.9811,0.9927,0.9997,0.9997,0.9997,0.9681,0.8919,0.8693,0.8272,0.7467,0.6594,0.6071,0.6006,0.6137,0.6207,0.6198,0.6883,0.6903,0.6259,0.0,0.0,0.0,0.0,0.0,0.0,0.0,0.0,0.0,0.0,0.0,0.0,0.0,0.0,0.0,0.0,0.0,0.0,0.0,0.0,0.0,-0.4819,-0.4433,-0.4282,-0.4557,-0.4779,-0.4841,-0.3114,-0.0801,0.2033,0.3265,0.5038,0.7776,0.7213,0.632,0.5368,0.2548,0.0899,0.0745,0.1714,0.2598,0.3323,0.3159,0.3585,0.4635,0.3477,0.4244,0.6611,0.641,0.7802,1.039,1.052,1.1029,1.1756,1.1377,1.1176,1.098,0.999,0.9438,0.9243,0.939,0.9749,1.0294,1.1032,1.1586,1.2013,1.2458,1.2788,1.3042,1.3227,1.3208,1.3033,1.2687,1.2455,1.2231,1.1876,1.2133,1.2533,1.2676,1.3042,1.3408,1.3653,1.3823,1.3775,1.3344,1.3059,1.2638,1.1908,1.1332,1.0937,1.0893,1.038,0.9957,0.9941,0.9972,1.0011,1.007,1.0074,1.0001,0.9836,0.9199,0.8451,0.76,0.6766,0.6282,0.6216,0.6254,0.6277,0.6277,0.5809,0.5474,0.0,0.0,0.0,0.0,0.0,0.0,0.0,0.0,0.0,0.0,0.0,0.0,0.0,0.0,0.0,0.0,0.0,0.0,0.0,0.0,0.0,0.0,-0.4997,-0.4788,-0.488,-0.5055,-0.5089,-0.487,-0.327,-0.094,0.2293,0.3169,0.4908,0.8232,0.7548,0.577,0.2994,0.0471,-0.1594,-0.3164,0.0024,0.182,0.1877,0.3096,0.4205,0.5181,0.4321,0.5169,0.75,0.7763,0.9142,1.138,1.1647,1.2162,1.2724,1.2269,1.2072,1.1953,0.0,0.0,0.0,0.0,1.0688,1.135,1.1917,1.2408,1.2815,1.3085,1.326,1.3396,1.3396,1.3294,1.3121,1.2834,1.2724,1.2594,1.2345,1.2606,1.3023,1.3193,1.3643,1.4105,1.4299,1.4567,1.4669,1.4295,1.4312,0.0,1.374,1.2685,1.1891,1.1854,1.1134,1.0584,1.056,1.0268,1.0104,1.0133,1.0133,1.0156,1.0194,0.9716,0.0,0.0,0.0,0.7357,0.7273,0.7282,0.0,0.0,0.0,0.0,0.0,0.0,0.0,0.0,0.5678,0.5723,0.0,0.0,0.0,0.0,0.0,0.0,0.0,0.0,0.0,0.0,0.0,0.0,0.0,0.0,0.0,0.0,-0.5308,-0.5591,-0.5732,-0.5446,-0.5067,-0.4656,-0.3403,-0.1202,0.2261,0.2595,0.4146,0.7891,0.6723,0.4062,0.0042,-0.1712,0.0,0.0,0.0,0.0847,0.1071,0.3285,0.4727,0.5363,0.5645,0.647,0.781,0.9428,1.0736,1.1758,1.2415,1.2838,1.307,1.2801,1.2654,1.2501,1.1082,1.0548,1.0535,1.0501,1.086,1.1439,1.1938,0.0,0.0,1.3311,1.3396,1.3396,1.3396,1.3379,1.3311,1.3086,1.314,1.321,1.2987,1.3243,1.3552,1.3705,1.4089,1.4419,1.4393,1.4727,1.5004,1.4877,1.5105,1.5303,1.5296,1.3889,1.2754,1.2757,1.2069,1.1551,1.1489,1.0808,1.0356,1.0348,1.0252,0.0,1.0194,1.015,1.0079,0.9981,0.9231,0.875,0.8626,0.8673,0.8995,0.9658,0.9453,0.9049,0.8472,0.8341,0.8021,0.7519,0.6776,0.6801,0.0,0.0,0.0,0.0,0.0,0.0,0.0,0.0,0.0,0.0,0.0,0.0,0.0,0.0,0.0,-0.7178,-0.692,-0.6554,-0.6637,-0.6256,-0.5813,-0.5357,-0.3508,-0.1,0.2286,0.2595,0.342,0.5386,0.3182,0.0858,-0.1185,-0.4061,-0.5941,-0.661,-0.2527,0.0451,0.2009,0.3725,0.5141,0.6228,0.5838,0.0,0.9373,0.9786,1.0856,1.2447,1.3008,1.3401,1.3621,1.3352,1.3076,1.2789,1.2333,1.2153,1.2153,1.2137,1.2218,1.2368,1.2692,1.2891,1.3049,1.3311,1.3396,1.3396,1.3396,1.326,0.0,1.321,1.3108,1.3004,1.3109,1.3399,1.3705,1.3894,1.4298,1.468,1.4831,1.5047,1.5223,1.5216,1.526,1.5305,1.5291,1.4437,1.3725,1.3723,1.3036,1.2521,1.2509,1.1771,1.1253,1.1252,1.063,1.0194,1.0202,1.0194,0.9909,0.9244,0.8946,0.8781,0.8756,0.8678,0.8682,0.8834,0.8114,0.7714,0.7636,0.7546,0.7826,0.8429,0.7583,0.7276,0.0,0.0,0.0,0.0,0.0,0.0,0.0,0.0,0.0,0.0,0.0,-0.5665,-0.6359,0.0,-0.6676,-0.7344,-0.7199,-0.7023,-0.705,-0.6533,-0.5828,-0.4944,-0.3407,-0.0911,0.2893,0.2063,0.1607,0.2339,-0.1487,-0.4207,-0.502,-0.6837,-0.7623,-0.7154,-0.3278,-0.0293,0.1594,0.4034,0.5658,0.651,0.6748,0.7969,1.0017,1.0654,1.1703,1.3025,1.3587,1.393,1.4044,1.3912,1.3746,1.3593,1.3489,1.3225,1.2899,1.3006,1.3058,1.3092,1.3361,1.3443,1.3475,1.3603,1.3589,1.3493,1.3493,1.3412,1.3328,1.3427,1.3504,1.3578,1.3669,1.3944,1.4246,1.4412,1.4682,1.4954,1.5113,1.5223,1.5298,1.5294,1.5299,1.529,1.5304,1.4948,1.4644,1.4649,1.3913,1.3357,1.3406,1.267,1.1976,1.1543,1.1143,1.0718,1.0293,1.0215,1.0001,0.9576,0.9489,0.9406,0.931,0.9226,0.9188,0.9156,0.8722,0.8538,0.8605,0.8563,0.881,0.9293,0.9237,0.9006,0.0,0.0,0.0,0.0,0.0,0.0,0.0,-0.5041,-0.5142,-0.5877,-0.6369,-0.6715,-0.6823,-0.7297,-0.7595,-0.7236,-0.7359,-0.7474,-0.7386,-0.6825,-0.5954,-0.4716,-0.3574,-0.1438,0.2269,0.1042,-0.023,-0.0772,-0.5765,-0.8745,-0.8634,-0.9079,-0.8939,-0.8066,-0.3748,-0.0334,0.1978,0.4809,0.6403,0.6824,0.8018,0.9221,1.0437,1.1699,1.2689,1.347,1.4107,1.4397,1.4404,1.4447,1.4423,1.4361,1.4412,1.4064,1.3554,1.3611,1.3657,1.3686,1.3898,1.3961,1.3952,1.3952,1.381,1.3646,1.3646,1.3646,1.3678,1.3724,1.3955,1.4214,1.4277,1.4512,1.4776,1.4904,1.5041,1.5171,1.5269,1.5294,1.5292,1.5291,1.529,1.5299,1.5292,1.5291,1.5284,1.5307,1.4658,1.4189,1.4257,1.3533,1.2756,1.2056,1.187,1.1467,1.0612,1.0314,1.0167,1.0095,1.0039,0.9931,0.9777,0.975,0.9714,0.9657,0.9691,0.9799,1.0033,1.0019,1.0122,1.0364,1.0934,1.0811,-0.7124,-0.6068,-0.5494,-0.6278,-0.6009,-0.5903,0.0,-0.6926,-0.6656,-0.7409,-0.7051,-0.6823,-0.7525,-0.7678,-0.7872,-0.8399,-0.8513,-0.842,-0.8046,-0.7721,-0.711,-0.6016,-0.4721,-0.3388,-0.2011,-0.0739,-0.1038,-0.3537,-0.7952,-1.0106,-0.9166,-0.9556,-0.9767,-0.9642,-0.3494,0.1757,0.5816,0.6832,0.753,0.7947,0.9554,1.0593,1.1146,1.2581,1.3328,1.3543,1.4381,1.4743,1.4756,1.495,1.484,1.4594,1.4823,1.4832,1.4662,1.4338,1.421,1.421,1.424,1.4174,1.408,1.408,1.3984,1.387,1.387,1.387,1.3896,1.4078,1.4162,1.4264,1.4574,1.4766,1.4904,1.5052,1.5183,1.5274,1.5298,1.531,1.5291,1.5293,1.5296,1.5292,1.5297,1.5253,1.524,1.5281,1.5215,1.5143,1.5154,1.4406,1.3829,1.3736,1.3021,1.2253,1.1421,1.0587,1.01,1.009,0.9818,0.9655,0.9614,0.9565,0.9534,0.9525,0.9633,1.0075,1.0871,1.0814,1.1183,1.1952,1.1976,1.1579,-0.7354,-0.7097,-0.6997,-0.6728,-0.6766,-0.6918,-0.7112,-0.6926,-0.6909,-0.7645,-0.7525,-0.7532,-0.8288,-0.8476,-0.8557,-0.8679,-0.8795,-0.8728,-0.8332,-0.8009,-0.7628,-0.7098,-0.654,-0.5142,-0.2449,-0.3375,-0.4247,-0.4531,-0.8688,-1.1022,-1.0553,-1.0838,-0.8783,-0.3942,-0.1592,0.2398,0.8234,0.8011,0.814,0.8745,1.0254,1.1176,1.1667,1.3093,1.4041,1.4569,1.4934,1.5086,1.5107,1.5185,1.5133,1.503,1.5132,1.5153,1.5097,1.4757,1.4653,1.4648,1.4661,1.4942,1.5326,1.5274,1.5491,1.5668,1.5109,1.4943,1.4839,1.434,1.4338,1.4512,1.4658,1.4859,1.5019,1.5037,1.5179,1.5303,1.5292,1.5309,1.529,1.529,1.5294,1.5291,1.5253,1.5153,1.5121,1.5228,1.5234,1.5253,1.5291,1.497,1.4555,1.4043,1.321,1.2531,1.2123,1.1222,1.0627,1.0501,1.0261,1.0159,1.0231,1.0629,1.0892,1.1004,1.1068,1.1303,1.1702,1.1626,1.181,1.2214,1.2603,1.262,-0.7632,-0.7728,-0.7724,-0.7149,-0.7409,-0.7662,-0.7129,-0.7163,-0.7459,-0.7984,-0.8112,-0.8214,-0.8536,-0.8874,-0.8974,-0.8572,-0.8829,-0.8974,-0.8686,-0.844,-0.8225,-0.8099,-0.8049,-0.6897,-0.4039,-0.6119,-0.7209,-0.6209,-0.9641,-1.1033,-0.9351,-0.9707,-0.67,0.0376,0.1981,0.5005,0.9812,0.9257,0.9221,0.9754,1.1147,1.1979,1.2367,1.3634,1.4612,1.5322,1.5266,1.5273,1.5341,1.5325,1.5458,1.564,1.541,1.5618,1.5968,1.5555,1.5236,1.5041,1.5285,1.5761,1.63,1.6481,1.6848,1.7069,1.6388,1.6176,1.5963,1.5,1.5095,1.5365,1.4926,1.5128,1.5401,1.514,1.5169,1.5242,1.5247,1.5221,1.5183,1.5184,1.5184,1.5165,1.5127,1.5033,1.5011,1.5094,1.5127,1.514,1.5266,1.5272,1.5024,1.4348,1.3513,1.2934,1.2731,1.1857,1.1235,1.1032,1.0879,1.0854,1.0939,1.1499,1.1898,1.2038,1.2085,1.2225,1.2512,1.2446,1.2537,1.2777,1.3364,1.3534,-0.8179,-0.7431,-0.6669,-0.7539,-0.7781,-0.7798,-0.7764,-0.8315,-0.884,-0.8857,-0.8857,-0.8654,-0.795,-0.8514,-0.8863,-0.8144,-0.8734,-0.9275,-0.9266,-0.9266,-0.9218,-0.9078,-0.8895,-0.8694,-0.8518,-0.8764,-0.9085,-0.9437,-1.1339,-0.9881,-0.3966,-0.4705,-0.3491,0.0478,0.7577,1.1057,1.0466,1.0887,1.1115,1.116,1.256,1.3309,1.3486,1.4289,1.4946,1.5383,1.5195,1.5217,1.5409,1.5403,1.585,1.6483,1.5704,1.6387,1.7735,1.6943,1.6079,1.5405,1.6258,1.6482,1.6528,1.7369,1.7589,1.749,1.7443,1.7388,1.7179,1.6281,1.6715,1.7065,1.5497,1.5727,1.6175,1.5465,1.519,1.5115,1.5106,1.4986,1.4907,1.4923,1.4913,1.4913,1.4913,1.4913,1.4913,1.4913,1.4913,1.4968,1.5171,1.5189,1.5146,1.4983,1.4244,1.3637,1.3309,1.2417,1.1781,1.1591,1.1558,1.1571,1.1571,1.1776,1.1898,1.1908,1.2028,1.249,1.3272,1.3262,1.357,1.4142,1.4362,1.4152,-0.7842,-0.7856,-0.7906,-0.7819,-0.818,-0.8536,-0.8536,-0.8349,-0.818,-0.818,-0.8234,-0.8234,-0.7975,-0.8277,-0.8638,-0.8841,-0.8812,-0.8896,-0.926,-0.9303,-0.9237,-0.9109,-0.8962,-0.8818,-0.8717,-0.8881,-0.9055,-0.9189,-1.088,-0.9691,-0.4604,-0.0516,0.26,0.4648,0.9475,1.2081,1.2231,1.1725,1.1763,1.2336,1.309,1.3747,1.43,1.4484,1.4768,1.5135,1.5101,1.5155,1.5312,1.5936,1.6039,1.5886,1.6689,1.7005,1.7075,1.7339,1.7224,1.6991,1.7285,1.7746,1.8235,1.8533,1.8988,1.9302,1.8678,1.848,1.8255,1.7302,1.729,1.7432,1.6903,1.6582,1.6326,1.6027,1.5356,1.4801,1.4938,1.4822,1.4738,1.4867,1.4904,1.4904,1.4904,1.4822,1.4766,1.4766,1.4832,1.4911,1.4984,1.4992,1.4976,1.4944,1.4566,1.4242,1.4061,1.3061,1.2346,1.2209,1.2187,1.2258,1.2386,1.3064,1.3485,1.3618,1.367,1.3764,1.3896,1.3896,1.3918,1.3997,1.4065,1.4051,-0.7988,-0.8155,-0.8349,-0.8217,-0.8509,-0.8785,-0.8559,-0.8078,-0.7644,-0.744,-0.7687,-0.7855,-0.7579,-0.8162,-0.8716,-0.8886,-0.8928,-0.9026,-0.9323,-0.9376,-0.9312,-0.9119,-0.9057,-0.8936,-0.8616,-0.9015,-0.9144,-0.8812,-0.9806,-0.8302,-0.3454,0.1495,0.5409,0.8105,1.1022,1.2789,1.3271,1.2696,1.2753,1.3476,1.371,1.4125,1.4704,1.4562,1.4665,1.4966,1.5011,1.5272,1.576,1.6347,1.6643,1.6792,1.7523,1.7854,1.7979,1.8197,1.8454,1.8644,1.836,1.864,1.9144,1.945,1.9939,2.0252,1.9686,1.9473,1.9269,1.8332,1.8279,1.8337,1.7643,1.7252,1.6861,1.6176,1.5407,1.4776,1.4645,1.446,1.4382,1.4518,1.4529,1.4529,1.4529,1.4534,1.4552,1.4624,1.4637,1.4708,1.4886,1.485,1.4766,1.4729,1.4463,1.4192,1.402,1.3341,1.2852,1.2695,1.28,1.2976,1.317,1.3841,1.4295,1.4506,1.4488,1.4399,1.4188,1.4188,1.4051,1.378,1.387,1.3941,-0.8608,-0.836,-0.8068,-0.8739,-0.8794,-0.853,-0.7926,-0.7607,-0.7277,-0.6748,-0.7213,-0.751,-0.6774,-0.8075,-0.902,-0.8316,-0.9006,-0.9612,-0.9517,-0.95,-0.9394,-0.9129,-0.9234,-0.9109,-0.8499,-0.9307,-0.9478,-0.8546,-0.835,-0.5972,-0.0666,0.1488,0.5055,1.0548,1.234,1.3343,1.3642,1.3752,1.4056,1.4489,1.4392,1.4477,1.4678,1.4526,1.4616,1.4886,1.4888,1.5531,1.6592,1.6629,1.7589,1.8966,1.8227,1.8907,2.0227,1.9446,1.9619,2.0172,1.94,1.9142,1.9285,2.0124,2.034,2.0291,2.0365,2.0331,2.0116,1.9313,1.9565,1.9612,1.7723,1.7657,1.7657,1.5962,1.5327,1.4906,1.4239,1.3961,1.3853,1.3853,1.3867,1.3881,1.3881,1.4051,1.4257,1.4441,1.4307,1.4362,1.4813,1.469,1.4492,1.4359,1.393,1.3552,1.3328,1.3295,1.321,1.3031,1.3394,1.3691,1.3899,1.4078,1.4282,1.4476,1.4476,1.4375,1.4162,1.4162,1.3969,1.3601,1.378,1.378,-0.9626,-0.9554,-0.9354,-0.8993,-0.8794,-0.8535,-0.7881,-0.7146,-0.6444,-0.5855,-0.6394,-0.6764,-0.601,-0.7341,-0.848,-0.8247,-0.8541,-0.8957,-0.9426,-0.9412,-0.9293,-0.9109,-0.9531,-0.9647,-0.9183,-1.0123,-1.0413,-0.9584,-0.8669,-0.6158,-0.1584,0.1529,0.5569,1.0831,1.2573,1.3662,1.4184,1.4131,1.4219,1.4413,1.4008,1.3988,1.4326,1.4145,1.4232,1.454,1.4785,1.5485,1.6491,1.7144,1.7697,1.8225,1.9265,1.9476,1.9247,1.962,1.9831,1.9901,1.9682,1.9724,1.9878,2.0104,2.0123,2.0107,2.0209,2.0176,1.9934,1.9269,1.9188,1.9072,1.811,1.7182,1.6454,1.6357,1.4988,1.3795,1.4042,1.3616,1.321,1.3357,1.3498,1.3604,1.3604,1.3803,1.3997,1.4038,1.4011,1.4078,1.4332,1.4028,1.3772,1.3729,1.3354,1.316,1.3278,1.3158,1.3139,1.3294,1.3634,1.3856,1.3899,1.4078,1.4214,1.4282,1.4136,1.3955,1.3751,1.3751,1.365,1.3445,1.3619,1.3646,-1.0085,-1.0001,-0.9815,-0.9078,-0.8794,-0.853,-0.7885,-0.7224,-0.6564,-0.5954,-0.6434,-0.6761,-0.6076,-0.7405,-0.8497,-0.8169,-0.862,-0.9057,-0.9168,-0.9257,-0.9329,-0.9407,-0.9804,-1.0076,-1.0065,-1.096,-1.1283,-1.0698,-0.8375,-0.5876,-0.3237,0.1488,0.573,0.9277,1.1743,1.3481,1.4425,1.4331,1.4303,1.4293,1.3658,1.3599,1.4047,1.3622,1.3675,1.4161,1.4573,1.5329,1.6295,1.7293,1.7917,1.8382,1.9662,1.9783,1.9275,1.962,1.9587,1.9386,1.9202,1.8989,1.8893,1.9575,1.9677,1.9511,1.9504,1.9202,1.8795,1.8475,1.8168,1.7809,1.7339,1.6558,1.5859,1.5678,1.4648,1.3737,1.3747,1.3394,1.3173,1.346,1.3719,1.3844,1.37,1.392,1.4012,1.3648,1.3518,1.3503,1.3609,1.3501,1.3375,1.3259,1.2846,1.2711,1.2965,1.2891,1.2942,1.3208,1.3509,1.3711,1.3783,1.3885,1.3983,1.4083,1.3955,1.3795,1.3584,1.3584,1.3524,1.3396,1.3478,1.3729,-1.0339,-1.0153,-0.9946,-0.9111,-0.8711,-0.8414,-0.7909,-0.7442,-0.6991,-0.6486,-0.6868,-0.7082,-0.6363,-0.7643,-0.8588,-0.7907,-0.8732,-0.9286,-0.884,-0.9033,-0.9366,-0.9753,-1.0111,-1.0514,-1.0995,-1.1787,-1.2075,-1.1594,-0.7939,-0.5463,-0.4785,0.1444,0.588,0.7796,1.0927,1.3153,1.4284,1.4205,1.4033,1.3773,1.3093,1.3015,1.3512,1.302,1.3126,1.3733,1.4281,1.5102,1.6092,1.714,1.8018,1.8744,1.9454,1.9597,1.9393,1.904,1.8721,1.839,1.7979,1.7342,1.6939,1.8576,1.8755,1.8319,1.8164,1.7561,1.6931,1.684,1.6492,1.6072,1.5671,1.5568,1.5314,1.441,1.4166,1.3936,1.3359,1.3197,1.3322,1.3729,1.4053,1.4212,1.3974,1.4211,1.4167,1.3361,1.3067,1.2887,1.2771,1.2986,1.3055,1.2826,1.242,1.2251,1.2514,1.2572,1.2706,1.2979,1.3278,1.3478,1.3601,1.3584,1.3676,1.387,1.3842,1.3754,1.357,1.357,1.3509,1.3396,1.3532,1.4024,-1.1113,-1.091,-1.0588,-0.923,-0.8288,-0.7715,-0.771,-0.6937,-0.6239,-0.631,-0.68,-0.6834,-0.5549,-0.6702,-0.7587,-0.68,-0.7491,-0.826,-0.8587,-0.8768,-0.9117,-0.9726,-1.0488,-1.1141,-1.1678,-1.259,-1.2646,-1.1362,-0.8323,-0.5767,-0.409,0.1736,0.6955,1.1186,1.2838,1.3532,1.3263,1.2967,1.2427,1.1652,1.1505,1.1475,1.161,1.2421,1.2924,1.3169,1.3873,1.4917,1.6117,1.6648,1.7348,1.8066,1.8197,1.7968,1.7475,1.6706,1.6272,1.6016,1.5565,1.5041,1.4856,1.6845,1.6564,1.546,1.5583,1.5146,1.4397,1.3457,1.3772,1.4134,1.3142,1.3213,1.3513,1.3298,1.2865,1.2574,1.282,1.2769,1.2774,1.3246,1.3487,1.3769,1.4078,1.4377,1.4315,1.3638,1.3267,1.278,1.1999,1.2189,1.2376,1.2336,1.2045,1.1982,1.2251,1.2475,1.2706,1.2979,1.3362,1.357,1.3601,1.3584,1.3632,1.3646,1.3542,1.3462,1.3429,1.3429,1.3413,1.3413,1.4195,1.4572,-1.0734,-1.0754,-1.0727,-0.9186,-0.8232,-0.7729,-0.7999,-0.7348,-0.6792,-0.7159,-0.741,-0.7261,-0.6273,-0.7114,-0.772,-0.698,-0.7609,-0.8205,-0.8313,-0.8513,-0.8973,-0.99,-1.0564,-1.1282,-1.218,-1.2711,-1.2489,-1.1285,-0.827,-0.5479,-0.3195,0.3139,0.8237,1.1508,1.2152,1.2349,1.2169,1.1696,1.1133,1.0478,1.0576,1.0835,1.1232,1.1871,1.2549,1.3226,1.3736,1.415,1.4563,1.5638,1.593,1.5795,1.6523,1.6442,1.5781,1.4656,1.404,1.3638,1.2721,1.1753,1.1108,1.2088,1.2684,1.2914,1.2615,1.2191,1.1742,1.1205,1.1653,1.2198,1.1658,1.1975,1.2437,1.2366,1.2339,1.2365,1.2589,1.2762,1.2993,1.3482,1.3782,1.3955,1.3861,1.4094,1.3995,1.3139,1.2887,1.2711,1.2522,1.2308,1.2074,1.1762,1.1768,1.1961,1.2356,1.2533,1.2762,1.3173,1.3396,1.351,1.351,1.351,1.351,1.351,1.3429,1.3396,1.3396,1.3396,1.3667,1.4193,1.4504,1.5086,-1.0159,-1.0316,-1.0528,-0.9056,-0.8132,-0.7718,-0.827,-0.7708,-0.7257,-0.7907,-0.7941,-0.7647,-0.7025,-0.7436,-0.7734,-0.7285,-0.7668,-0.8049,-0.8059,-0.8227,-0.8759,-0.9866,-1.0431,-1.1123,-1.2046,-1.2297,-1.1928,-1.0837,-0.7317,-0.3986,-0.1099,0.4864,0.8984,1.075,1.0909,1.0818,1.0495,1.022,0.9686,0.8895,0.9403,1.007,1.0843,1.1292,1.2116,1.3227,1.3421,1.3273,1.2972,1.4101,1.3965,1.3133,1.4072,1.4009,1.3247,1.2134,1.1345,1.0709,0.9655,0.8408,0.7251,0.7172,0.8534,1.0123,0.9512,0.9273,0.9278,0.9278,0.9935,1.0616,1.0616,1.11,1.1664,1.1774,1.2174,1.2508,1.2508,1.2873,1.3323,1.3802,1.4109,1.4169,1.3775,1.3936,1.3784,1.2856,1.2646,1.269,1.2926,1.2569,1.2138,1.1651,1.1733,1.1982,1.2396,1.2533,1.2781,1.3208,1.3346,1.3396,1.3396,1.3396,1.3396,1.3396,1.3396,1.3481,1.365,1.365,1.4127,1.5055,1.4996,1.5714,-1.0026,-0.9952,-0.9874,-0.894,-0.7737,-0.708,-0.8161,-0.7307,-0.6592,-0.7612,-0.7709,-0.7417,-0.6753,-0.6545,-0.6573,-0.6885,-0.6693,-0.6828,-0.7795,-0.7883,-0.8228,-0.9162,-1.0021,-1.057,-1.0682,-1.1292,-1.1021,-0.9413,-0.4656,-0.0206,0.358,0.6372,0.8472,0.9792,1.0309,0.9597,0.7591,0.8319,0.7653,0.5642,0.7183,0.842,0.934,1.0583,1.1671,1.2574,1.2595,1.2588,1.2494,1.1862,1.1302,1.0842,1.0276,0.9512,0.8679,0.8312,0.744,0.646,0.6394,0.5605,0.4575,0.4069,0.5089,0.6463,0.6401,0.6813,0.7252,0.7252,0.8415,0.9628,0.9628,1.036,1.1207,1.17,1.2174,1.2508,1.2508,1.2873,1.3323,1.3802,1.3921,1.4038,1.4355,1.4436,1.4211,1.3514,1.3165,1.2754,1.2166,1.2442,1.2623,1.2567,1.211,1.1826,1.1876,1.2316,1.263,1.2668,1.3122,1.3396,1.3396,1.3396,1.3396,1.3396,1.3396,1.3718,1.4393,1.4393,1.4802,1.555,1.6191,1.6563,-0.9005,-0.9327,-0.964,-0.8599,-0.7383,-0.6742,-0.7854,-0.6961,-0.6243,-0.743,-0.7515,-0.7278,-0.701,-0.6894,-0.6938,-0.7271,-0.7055,-0.6926,-0.715,-0.7301,-0.7448,-0.7615,-0.8369,-0.8927,-0.9036,-0.9511,-0.8802,-0.6401,-0.3394,-0.0125,0.3497,0.5963,0.7615,0.8399,0.8128,0.7435,0.6303,0.644,0.5936,0.4878,0.6768,0.807,0.8763,0.9803,1.0764,1.1614,1.0894,1.0081,0.923,0.8976,0.8079,0.6896,0.7224,0.6912,0.6216,0.5428,0.4862,0.435,0.3706,0.3162,0.2778,0.2561,0.338,0.4496,0.4496,0.5209,0.6064,0.6416,0.7709,0.907,0.9372,1.0456,1.1553,1.1737,1.2174,1.2508,1.2508,1.2873,1.3185,1.3091,1.3045,1.301,1.2916,1.3123,1.3196,1.2948,1.3022,1.3207,1.3462,1.3318,1.3388,1.3907,1.3035,1.253,1.2842,1.2551,1.251,1.2815,1.3033,1.3156,1.3156,1.3749,1.4056,1.4056,1.4496,1.4868,1.5155,1.5155,1.5624,1.6517,1.6646,1.702,-0.8283,-0.8725,-0.9175,-0.8323,-0.7344,-0.6804,-0.7629,-0.6871,-0.6272,-0.7196,-0.7253,-0.7098,-0.7098,-0.6988,-0.7005,0.0,0.0,-0.6609,-0.6645,-0.6564,-0.6523,-0.6567,-0.7096,-0.7554,-0.7779,-0.7792,-0.6771,-0.4369,-0.2666,-0.0486,0.2305,0.4593,0.6277,0.724,0.6415,0.565,0.4974,0.4865,0.4483,0.3864,0.6082,0.7482,0.8166,0.8853,0.9541,1.0071,0.8827,0.74,0.5967,0.5807,0.4763,0.3359,0.4175,0.4117,0.3541,0.3147,0.2767,0.242,0.1956,0.1697,0.1563,0.1741,0.2578,0.3541,0.3716,0.4717,0.5942,0.6495,0.7982,0.9491,0.9973,1.1052,1.1993,1.1993,1.2365,1.2685,1.2544,1.2756,1.2838,1.2389,1.2282,1.2174,1.1847,1.2066,1.2354,1.2461,1.2791,1.3276,1.4019,1.3817,1.3896,1.4616,1.38,1.3305,1.3617,1.2951,1.2744,1.3331,1.3524,1.362,1.362,1.44,1.4834,1.4834,1.5341,1.5697,1.5917,1.5917,1.641,1.7294,1.7105,1.7352,-0.8102,-0.8253,-0.8377,-0.8158,-0.7693,-0.7355,-0.7562,-0.714,-0.6726,-0.6889,-0.6908,-0.6908,-0.6908,-0.6515,-0.6364,-0.6838,-0.5958,-0.5511,-0.6373,-0.5707,-0.5461,-0.6394,-0.6618,-0.6814,-0.7081,-0.6323,-0.5297,-0.4003,-0.2276,-0.0716,0.0651,0.2382,0.4299,0.6449,0.5662,0.456,0.3223,0.368,0.3272,0.2054,0.4615,0.6339,0.7324,0.7729,0.7932,0.7847,0.6445,0.4884,0.326,0.2408,0.1487,0.0677,0.1014,0.0685,0.0178,0.1381,0.1073,0.0224,0.1385,0.1429,0.1029,0.1607,0.2578,0.3632,0.4192,0.5615,0.7113,0.7631,0.9318,1.1094,1.1627,1.2138,1.2508,1.2508,1.2838,1.306,1.2615,1.2508,1.2354,1.1884,1.1811,1.1811,1.1811,1.1811,1.1957,1.2437,1.2508,1.2685,1.3163,1.3615,1.4052,1.4456,1.4251,1.4007,1.3814,1.3428,1.3489,1.4146,1.476,1.508,1.508,1.5402,1.5595,1.5595,1.5595,1.595,1.6699,1.6699,1.7067,1.7794,1.7794,1.7618,-0.7997,-0.8079,-0.8118,-0.784,-0.7279,-0.6915,-0.7253,-0.671,-0.6262,-0.6619,-0.6549,-0.6376,-0.623,-0.595,-0.5884,-0.6347,-0.5803,-0.5282,-0.5155,-0.4719,-0.4272,-0.3881,-0.3873,-0.4061,-0.4448,-0.3416,-0.2547,-0.2164,-0.076,0.0663,0.1981,0.2279,0.3131,0.4738,0.3891,0.3075,0.2371,0.2534,0.2407,0.2021,0.4029,0.5126,0.5375,0.5227,0.51,0.4926,0.3391,0.1904,0.0553,0.0262,-0.0601,-0.1685,-0.0552,-0.0335,-0.0536,0.0269,0.0583,0.0672,0.1073,0.1607,0.2228,0.2799,0.3763,0.486,0.5427,0.6277,0.728,0.8594,0.967,1.0647,1.1579,1.192,1.2102,1.2425,1.2354,1.221,1.2066,1.1704,1.1265,1.0788,1.0397,1.0166,1.0205,1.0504,1.1025,1.1872,1.2282,1.2779,1.3581,1.3802,1.4149,1.4845,1.4413,1.4292,1.4714,1.4055,1.3776,1.4168,1.4382,1.4482,1.4482,1.5462,1.6005,1.6005,1.674,1.7219,1.7456,1.7456,1.7446,1.7439,1.7224,1.7068,-0.7665,-0.7709,-0.7709,-0.7501,-0.7126,-0.687,-0.7046,-0.6595,-0.6215,-0.6406,-0.6254,-0.6016,-0.5797,-0.544,-0.5298,-0.5587,-0.506,-0.4539,-0.4301,-0.3808,-0.3169,-0.2388,-0.277,-0.2954,-0.2638,-0.1953,-0.1319,-0.0861,0.0267,0.1306,0.2134,0.1897,0.2128,0.2958,0.2413,0.1981,0.1725,0.1597,0.1499,0.1532,0.3094,0.3743,0.3497,0.3272,0.2834,0.2199,0.09,-0.0453,0.0,-0.156,-0.2205,-0.311,-0.163,-0.1135,-0.1118,-0.0045,0.0583,0.0984,0.1429,0.2184,0.3111,0.3635,0.4644,0.5782,0.6598,0.7224,0.799,0.9609,1.0273,1.0647,1.1287,1.1483,1.1472,1.156,1.1376,1.1127,1.0939,1.0616,1.0186,0.9709,0.9363,0.9213,0.9478,0.9884,1.056,1.1653,1.221,1.2779,1.3535,1.3648,1.3901,1.4564,1.4417,1.4501,1.5124,1.4569,1.4352,1.4786,1.4929,1.5005,1.5005,1.5919,1.6426,1.6426,1.7082,1.7479,1.7595,1.7595,1.7432,1.7101,1.6917,1.6738,0.0,-0.7164,-0.7195,-0.7164,-0.7148,-0.7098,-0.6911,-0.6697,0.0,-0.6206,-0.5998,-0.576,-0.5459,-0.4982,-0.4631,-0.465,-0.3888,-0.3414,-0.3756,-0.2957,-0.2209,-0.1812,-0.2923,-0.3106,-0.162,-0.1622,-0.1244,-0.01,0.0801,0.1305,0.1305,0.1238,0.1204,0.1204,0.1132,0.1164,0.1263,0.0837,0.0639,0.0638,0.1849,0.2158,0.1657,0.1622,0.0936,-0.0322,-0.1152,-0.2192,-0.334,-0.3053,-0.3291,-0.3644,-0.2181,-0.168,-0.1561,0.0223,0.094,0.1118,0.2361,0.3108,0.3676,0.4299,0.5303,0.6477,0.7579,0.8275,0.899,1.0427,1.0857,1.0895,1.0805,1.0757,1.0634,1.0156,0.9993,0.9848,0.9455,0.9297,0.9107,0.8707,0.8643,0.8797,0.9359,0.9884,1.056,1.1653,1.221,1.2685,1.3129,1.3198,1.3391,1.3835,1.4246,1.4658,1.5074,1.4961,1.5154,1.5769,1.608,1.6274,1.6274,1.6581,1.6763,1.6763,1.6789,1.6952,1.7272,1.7248,1.7076,1.6763,1.6738,1.6554,-0.6399,0.0,-0.7116,-0.6822,-0.6739,-0.6672,0.0,-0.6213,-0.5991,-0.5715,-0.547,-0.5145,-0.467,-0.4151,-0.3853,-0.4058,-0.3557,-0.3087,-0.2941,-0.2265,-0.1704,-0.1448,-0.1614,-0.164,-0.1369,-0.0463,0.0067,0.0,0.0801,0.1305,0.1305,0.0668,0.0301,0.0301,-0.0334,-0.02,0.0838,0.0401,0.0,-0.0298,0.033,0.0198,-0.0558,-0.0916,-0.1441,-0.2142,-0.298,-0.3556,-0.3808,-0.3538,-0.3578,-0.3644,-0.2181,-0.168,-0.1561,0.0223,0.1207,0.1739,0.2929,0.3679,0.4387,0.5437,0.6258,0.6937,0.7663,0.8275,0.8756,0.9151,0.9549,0.9855,0.9778,0.9464,0.9284,0.9494,0.8953,0.844,0.8772,0.8187,0.7653,0.8028,0.8077,0.8275,0.8797,0.9609,1.056,1.1653,1.221,1.2685,1.3129,1.3198,1.3391,1.3835,1.4246,1.4658,1.5074,1.5374,1.5634,1.5784,1.5885,1.5913,1.5913,1.6246,1.6436,1.6436,1.6659,1.6841,1.6917,1.6644,1.6501,1.6394,1.6163,1.5983,-0.5888,-0.6224,-0.6553,-0.6324,-0.6283,-0.6201,-0.5939,-0.5701,-0.5451,-0.5184,-0.4923,-0.4609,-0.4187,-0.3674,-0.3361,-0.3515,-0.2944,-0.2337,-0.1878,-0.1361,-0.1034,-0.1039,-0.0975,-0.094,-0.1003,-0.0167,0.0368,0.0335,0.0569,0.0701,0.0701,-0.0133,-0.0601,-0.0601,-0.107,-0.0937,-0.0234,-0.0468,-0.07,-0.0929,-0.0699,-0.0964,-0.163,-0.212,-0.2455,-0.2739,-0.363,-0.3761,-0.3423,-0.3596,-0.3463,-0.2985,-0.2061,-0.1401,-0.0801,0.0758,0.1871,0.2711,0.3591,0.447,0.5389,0.6258,0.6768,0.7021,0.7112,0.7474,0.8047,0.8553,0.8699,0.8674,0.8367,0.7919,0.7515,0.7534,0.73,0.7161,0.7467,0.7259,0.7175,0.7787,0.7919,0.816,0.8918,0.9865,1.0816,1.1653,1.2389,1.2908,1.3163,1.3198,1.3301,1.3547,1.3967,1.4406,1.4783,1.5225,1.558,1.5799,1.5799,1.5799,1.5799,1.5983,1.6067,1.6067,1.6394,1.6474,1.634,1.6313,1.6219,1.6067,1.587,1.5799,-0.5549,-0.5614,-0.5734,-0.5819,-0.5808,-0.5723,-0.5488,-0.5203,-0.4914,-0.4699,-0.4438,-0.415,-0.3841,-0.3368,-0.3019,-0.3006,-0.2304,-0.161,-0.1151,-0.0722,-0.0561,-0.0873,-0.0783,-0.0706,-0.0706,-0.0201,0.0201,0.0471,0.0201,-0.0067,-0.02,-0.0969,-0.1406,-0.1406,-0.1471,-0.1505,-0.1505,-0.1438,-0.1438,-0.1505,-0.1505,-0.174,-0.2211,-0.2603,-0.2801,-0.2845,-0.363,-0.3499,-0.2766,-0.3382,-0.3058,-0.2087,-0.167,-0.0885,0.0178,0.1471,0.2622,0.3632,0.4387,0.5389,0.6392,0.6768,0.6894,0.6768,0.6221,0.6374,0.6945,0.7915,0.7852,0.7418,0.6897,0.6343,0.5871,0.5518,0.5744,0.6093,0.6264,0.6598,0.707,0.7746,0.7953,0.8357,0.943,1.0407,1.1228,1.1799,1.265,1.3198,1.3198,1.3198,1.3198,1.3198,1.3615,1.4052,1.447,1.4876,1.5299,1.577,1.5799,1.5799,1.5799,1.5799,1.5799,1.5799,1.6095,1.608,1.5799,1.6095,1.6095,1.5799,1.5799,1.5799,-0.5454,-0.5204,-0.5001,-0.5444,-0.5385,-0.5203,-0.5165,-0.4786,-0.4406,-0.4366,-0.415,-0.382,-0.3319,-0.2965,-0.2715,-0.2526,-0.1979,-0.164,-0.1956,-0.1237,-0.0929,-0.1722,-0.1136,-0.0706,-0.0706,0.0067,0.0302,-0.0437,-0.0167,-0.0334,-0.107,-0.1609,-0.1878,-0.1878,-0.2278,-0.248,-0.248,-0.2078,-0.2109,-0.2498,-0.2474,-0.2706,-0.3097,-0.3159,-0.3192,-0.3229,-0.3761,-0.3495,-0.2712,-0.2962,-0.2518,-0.1612,-0.0661,-0.0172,0.0222,0.1914,0.2976,0.3719,0.5341,0.6343,0.681,0.6435,0.6307,0.6221,0.561,0.5475,0.5604,0.5771,0.6089,0.6247,0.5679,0.547,0.5518,0.5959,0.5744,0.5696,0.6683,0.6605,0.6647,0.7704,0.8275,0.891,0.9914,1.096,1.1836,1.2318,1.2838,1.3198,1.3198,1.3198,1.3198,1.3198,1.3615,1.4052,1.447,1.4876,1.5299,1.577,1.5799,1.5799,1.5799,1.5799,1.5799,1.5799,1.5856,1.5856,1.5799,1.5856,1.5856,1.5799,1.5799,1.5799,-0.503,-0.4893,-0.4726,-0.4834,-0.4756,-0.4589,-0.4292,-0.4045,-0.3785,-0.3494,-0.3332,-0.3184,-0.2928,-0.2627,-0.2252,-0.168,-0.1405,-0.1222,-0.1041,-0.0614,-0.0638,-0.1509,-0.0839,-0.0605,-0.1343,-0.0571,-0.0336,-0.0973,-0.1071,-0.1271,-0.1642,-0.2111,-0.238,-0.238,-0.258,-0.2712,-0.2712,-0.248,-0.248,-0.2706,-0.2712,-0.2812,-0.2973,-0.3196,-0.3196,-0.3003,-0.3421,-0.3126,-0.232,-0.2105,-0.1482,-0.0551,0.021,0.0872,0.1689,0.3456,0.4248,0.4644,0.5782,0.613,0.6039,0.5782,0.5475,0.512,0.4509,0.4335,0.4248,0.3989,0.4504,0.511,0.4865,0.4826,0.487,0.5173,0.5524,0.5916,0.6477,0.6859,0.7363,0.8193,0.8756,0.935,1.0137,1.0857,1.1542,1.2066,1.2508,1.2908,1.3163,1.3198,1.3198,1.3198,1.3615,1.4052,1.447,1.4876,1.5299,1.577,1.5799,1.5799,1.5799,1.5799,1.5799,1.5799,1.5799,1.5799,1.5799,1.5799,1.5799,1.5799,1.5799,1.5799,-0.4686,-0.4606,-0.4449,-0.4187,-0.4111,-0.4027,-0.3667,-0.3447,-0.3187,-0.2858,-0.274,-0.2676,-0.2589,-0.2381,-0.192,-0.1047,-0.1039,-0.0939,-0.0376,-0.0229,-0.0504,-0.1373,-0.0771,-0.0704,-0.1742,-0.1241,-0.1007,-0.144,-0.1811,-0.2047,-0.2147,-0.2513,-0.2712,-0.2712,-0.2712,-0.2712,-0.2712,-0.2712,-0.2712,-0.2712,-0.2712,-0.2646,-0.2547,-0.2871,-0.2772,-0.2374,-0.2688,-0.2395,-0.1657,-0.1324,-0.0653,0.0197,0.0723,0.163,0.2893,0.4517,0.5087,0.5173,0.5787,0.5696,0.5265,0.513,0.4682,0.4109,0.3639,0.3416,0.324,0.2984,0.3558,0.4264,0.4347,0.4387,0.4474,0.4739,0.5524,0.6227,0.6349,0.7196,0.8077,0.8594,0.9119,0.9716,1.0351,1.0867,1.1356,1.1884,1.2354,1.2791,1.3163,1.3198,1.3198,1.3198,1.3514,1.3934,1.447,1.4968,1.5418,1.577,1.5799,1.5799,1.5799,1.5799,1.5799,1.5799,1.5799,1.5799,1.5799,1.5799,1.5799,1.5799,1.5799,1.5799,-0.4626,-0.4333,-0.3897,-0.3633,-0.3556,-0.3614,-0.3816,-0.3234,-0.2738,-0.3021,-0.2875,-0.2611,-0.2302,-0.221,-0.1904,-0.1053,-0.1111,-0.1263,-0.123,-0.087,-0.0974,-0.1847,-0.1507,-0.1238,-0.1338,-0.1305,-0.144,-0.1911,-0.1981,-0.2181,-0.2613,-0.2679,-0.2712,-0.2712,-0.2712,-0.2712,-0.2712,-0.2712,-0.2712,-0.2712,-0.2712,-0.248,-0.2047,-0.2081,-0.1842,-0.1405,-0.1438,-0.1206,-0.0777,-0.0751,-0.0451,0.0079,0.0661,0.1637,0.2849,0.4037,0.4478,0.4565,0.5173,0.5346,0.5216,0.4652,0.4073,0.3548,0.3568,0.3214,0.2851,0.3398,0.3578,0.3751,0.4264,0.4387,0.4696,0.5787,0.6136,0.6349,0.6852,0.7447,0.8077,0.8594,0.9119,0.9785,1.0791,1.1394,1.192,1.2401,1.2838,1.3163,1.3198,1.3198,1.3198,1.3198,1.3232,1.3581,1.4438,1.5255,1.577,1.5799,1.5799,1.5799,1.5799,1.5799,1.5799,1.5799,1.5799,1.5799,1.5799,1.5799,1.5799,1.5799,1.5799,1.5799,-0.4171,-0.3937,-0.3626,-0.3522,-0.3091,-0.2757,-0.3033,-0.2935,-0.2765,-0.2683,-0.2514,-0.2336,-0.2108,-0.2148,-0.2013,-0.1423,-0.1552,-0.1642,-0.1338,-0.1173,-0.1308,-0.1914,-0.1575,-0.1538,-0.2109,-0.1909,-0.1945,-0.2414,-0.2447,-0.2513,-0.2679,-0.2712,-0.2712,-0.2712,-0.2712,-0.2712,-0.2712,-0.2712,-0.2547,-0.2281,-0.2281,-0.2181,-0.1981,-0.1709,-0.1473,-0.1271,-0.1039,-0.0856,-0.064,0.0037,0.0392,0.0657,0.1629,0.25,0.3284,0.4121,0.4387,0.443,0.4648,0.4526,0.4184,0.3968,0.3517,0.3023,0.3031,0.2898,0.2763,0.2987,0.3306,0.3667,0.3836,0.4439,0.5087,0.5524,0.6173,0.6859,0.7447,0.7987,0.8561,0.9079,0.9637,1.0118,1.0495,1.0725,1.1142,1.1957,1.221,1.2544,1.3116,1.3198,1.3198,1.3198,1.3459,1.3868,1.4438,1.5043,1.5359,1.5359,1.5639,1.5799,1.5799,1.5799,1.5799,1.5799,1.5799,1.5799,1.5799,1.5799,1.5799,1.5799,1.5799,1.5994,-0.3758,-0.3521,-0.3229,-0.3113,-0.2715,-0.2387,-0.2511,-0.2582,-0.2574,-0.2441,-0.2274,-0.2124,-0.2067,-0.214,-0.2081,-0.1721,-0.1855,-0.1878,-0.1573,-0.1507,-0.1709,-0.2181,-0.1942,-0.2006,-0.2646,-0.2414,-0.2411,-0.2841,-0.2779,-0.2746,-0.2874,-0.2779,-0.2712,-0.2712,-0.2712,-0.2712,-0.2712,-0.2547,-0.2314,-0.2014,-0.1845,-0.1711,-0.1577,-0.1274,-0.1039,-0.087,-0.0604,-0.0486,-0.0439,0.0307,0.0609,0.0731,0.1939,0.2625,0.3064,0.3865,0.4132,0.4132,0.4132,0.3921,0.3581,0.3581,0.317,0.2719,0.2943,0.2854,0.2763,0.3158,0.3517,0.388,0.41,0.4705,0.5389,0.5733,0.6592,0.7405,0.7829,0.8439,0.9079,0.9439,0.9922,1.0283,1.0283,1.0428,1.0764,1.1431,1.17,1.2102,1.2873,1.2978,1.306,1.3198,1.3615,1.4032,1.4278,1.4783,1.5104,1.5104,1.5551,1.5799,1.5799,1.5799,1.5799,1.5799,1.5799,1.5799,1.5799,1.5799,1.5799,1.5799,1.5994,1.6323,-0.3416,-0.3099,-0.2625,-0.2284,-0.2452,-0.2637,-0.2446,-0.2188,-0.2084,-0.2347,-0.2185,-0.2037,-0.2184,-0.2211,-0.2116,-0.1856,-0.1908,-0.1981,-0.2014,-0.2014,-0.2181,-0.2646,-0.2712,-0.2712,-0.2712,-0.2712,-0.2874,-0.3257,-0.2937,-0.2874,-0.3261,-0.2907,-0.2712,-0.2712,-0.2679,-0.2679,-0.2679,-0.2214,-0.1981,-0.1981,-0.1507,-0.1072,-0.0706,-0.0706,-0.0437,0.0,0.0,0.0,0.0,0.0,0.0,0.0135,0.134,0.1786,0.1964,0.3173,0.3581,0.3581,0.3581,0.3581,0.3581,0.3581,0.3214,0.2807,0.3398,0.317,0.2937,0.4081,0.4387,0.4522,0.513,0.5308,0.5604,0.6719,0.7447,0.7919,0.7912,0.8756,0.9518,0.9518,0.9922,1.0283,1.0283,1.0687,1.0971,1.1019,1.1431,1.1957,1.2425,1.2508,1.2685,1.3163,1.3615,1.3901,1.3901,1.4627,1.5104,1.5104,1.5551,1.5799,1.5799,1.5799,1.5799,1.5799,1.5799,1.5799,1.5799,1.5799,1.5799,1.5829,1.6413,1.6726,-0.2977,-0.2649,-0.2375,-0.251,-0.2368,-0.2251,-0.237,-0.2441,-0.2515,-0.2605,-0.2483,-0.2366,-0.241,-0.2151,-0.2014,-0.2264,-0.1839,-0.174,-0.2414,-0.2214,-0.2181,-0.2646,-0.2712,-0.2712,-0.2712,-0.2712,-0.2746,-0.2874,-0.2779,-0.2746,-0.2874,-0.2779,-0.2712,-0.2712,-0.238,-0.2214,-0.2214,-0.1742,-0.1373,-0.1075,-0.094,-0.0807,-0.0706,-0.0706,-0.0437,0.0,0.0,0.0,0.0,0.0,0.0,0.0135,0.134,0.1786,0.1964,0.3173,0.3581,0.3581,0.3581,0.3581,0.3581,0.3581,0.349,0.3353,0.3534,0.3486,0.3483,0.4216,0.4387,0.4652,0.5658,0.5916,0.613,0.6833,0.7474,0.8118,0.8878,0.9279,0.9597,1.0,1.0196,1.0283,1.0283,1.0428,1.0611,1.0943,1.1132,1.1542,1.2389,1.2791,1.306,1.3198,1.3323,1.3425,1.3425,1.3934,1.4374,1.4658,1.5074,1.5448,1.5799,1.5799,1.5799,1.5799,1.5799,1.5799,1.5799,1.5799,1.6009,1.6428,1.6622,1.7204,-0.254,-0.2228,-0.2026,-0.2289,-0.2177,-0.2064,-0.237,-0.253,-0.2646,-0.2693,-0.2592,-0.2503,-0.2561,-0.2308,-0.2197,-0.2533,-0.2158,-0.2042,-0.2613,-0.2447,-0.238,-0.2679,-0.2712,-0.2712,-0.2712,-0.2712,-0.2779,-0.294,-0.2779,-0.2779,-0.294,-0.2613,-0.2414,-0.2414,-0.1978,-0.1709,-0.1709,-0.1274,-0.094,-0.0706,-0.0706,-0.0605,-0.0437,-0.0437,-0.0269,0.0,0.0,0.0,0.0,0.0,0.0,0.0135,0.134,0.1786,0.1964,0.3173,0.3581,0.3581,0.3581,0.3581,0.3581,0.3581,0.3581,0.3581,0.3581,0.3751,0.4052,0.4609,0.4913,0.5346,0.6258,0.652,0.6598,0.6923,0.7482,0.816,0.8999,0.9359,0.9637,1.0205,1.0283,1.0283,1.0283,1.0283,1.039,1.0687,1.1057,1.1468,1.1836,1.2638,1.3129,1.2943,1.3094,1.3198,1.3198,1.3648,1.4,1.4246,1.4627,1.4982,1.5255,1.561,1.5799,1.5799,1.5799,1.5933,1.6159,1.6159,1.6488,1.71,1.7369,1.7921,-0.2155,-0.1903,-0.1624,-0.1768,-0.1906,-0.2106,-0.2417,-0.2523,-0.2544,-0.2685,-0.2603,-0.2548,-0.2688,-0.2567,-0.2517,-0.2659,-0.2613,-0.2613,-0.2679,-0.265,-0.265,-0.2679,-0.2712,-0.2712,-0.2712,-0.2712,-0.2841,-0.3229,-0.2907,-0.2841,-0.3159,-0.2441,-0.1981,-0.1947,-0.1475,-0.1238,-0.1238,-0.0839,-0.0639,-0.0639,-0.0639,-0.0403,0.0,-0.0034,-0.0034,0.0,0.0,0.0,0.0,0.0,0.0045,0.018,0.134,0.183,0.2008,0.3173,0.3581,0.3581,0.3581,0.3581,0.3581,0.3581,0.3581,0.3581,0.3581,0.3965,0.4517,0.513,0.5744,0.6307,0.6852,0.6979,0.6979,0.6979,0.7447,0.8036,0.8602,0.9119,0.9637,1.0118,1.0283,1.0283,1.0283,1.0283,1.0283,1.0283,1.1105,1.1553,1.1057,1.2234,1.2978,1.2544,1.2908,1.3198,1.3198,1.3581,1.3835,1.3901,1.43,1.452,1.4584,1.5342,1.5772,1.583,1.589,1.6204,1.6801,1.6801,1.7145,1.7802,1.8433,1.8698,-0.2155,-0.1903,-0.1624,-0.1768,-0.1987,-0.2207,-0.2441,-0.2579,-0.2675,-0.2706,-0.2688,-0.2675,-0.2709,-0.2389,-0.2249,-0.2643,-0.2075,-0.1873,-0.258,-0.238,-0.2281,-0.265,-0.2712,-0.2712,-0.2712,-0.2712,-0.2746,-0.2812,-0.2746,-0.258,-0.2311,-0.2114,-0.1845,-0.1473,-0.104,-0.084,-0.084,-0.0369,-0.0134,-0.0134,-0.0134,-0.0101,0.0,-0.037,-0.0344,0.0,0.0,0.0,0.0,0.0,0.0269,0.0761,0.1518,0.2095,0.2586,0.3309,0.3581,0.3581,0.3581,0.3581,0.3581,0.3581,0.3581,0.3581,0.3581,0.3965,0.4517,0.513,0.5744,0.6307,0.6852,0.6979,0.6979,0.6979,0.7447,0.8036,0.8602,0.9119,0.9518,0.9646,1.0,1.0283,1.0283,1.0283,1.0283,1.0283,1.0802,1.1132,1.1008,1.1982,1.2615,1.2508,1.2908,1.3198,1.3198,1.3301,1.3514,1.3868,1.4392,1.4802,1.5106,1.5305,1.5613,1.6041,1.6456,1.6921,1.7473,1.7473,1.7817,1.8493,1.8642,1.8747,-0.2158,-0.2001,-0.1801,-0.1884,-0.2107,-0.2373,-0.2702,-0.2792,-0.2843,-0.2955,-0.2845,-0.2712,-0.2712,-0.2513,-0.2414,-0.265,-0.2278,-0.2142,-0.2646,-0.248,-0.2414,-0.2679,-0.2712,-0.2712,-0.2712,-0.2712,-0.2712,-0.2712,-0.2712,-0.248,-0.2014,-0.1778,-0.1473,-0.104,-0.0604,-0.037,-0.037,-0.0134,0.0,0.0,0.0,0.0,0.0,-0.0269,-0.0246,0.0,0.0,0.0163,0.0435,0.0444,0.0806,0.1385,0.2006,0.2406,0.2763,0.3398,0.3581,0.3581,0.3581,0.3581,0.3581,0.3581,0.3581,0.3667,0.3924,0.4395,0.4957,0.5567,0.613,0.6641,0.6937,0.6979,0.6979,0.6979,0.7238,0.7614,0.8193,0.8521,0.8878,0.9399,0.9725,1.0,1.0244,1.0283,1.0283,1.0283,1.0687,1.0905,1.0687,1.1542,1.2174,1.2174,1.2579,1.2943,1.3198,1.3471,1.3727,1.3981,1.4488,1.4894,1.5099,1.5375,1.5667,1.6081,1.6375,1.6943,1.7793,1.7537,1.789,1.8781,1.8513,1.8464,-0.2159,-0.2093,-0.1973,-0.1973,-0.2159,-0.243,-0.281,-0.2862,-0.2881,-0.3119,-0.2918,-0.2712,-0.2712,-0.2712,-0.2712,-0.2712,-0.2712,-0.2712,-0.2712,-0.2712,-0.2712,-0.2712,-0.2712,-0.2712,-0.2712,-0.2712,-0.2712,-0.2712,-0.2712,-0.2447,-0.1911,-0.1507,-0.1072,-0.0605,-0.0202,0.0,0.0,0.0,0.0,0.0,0.0067,0.0134,0.0134,0.0237,0.0214,0.0155,0.0158,0.0497,0.1062,0.107,0.1429,0.2006,0.2495,0.2763,0.2898,0.3398,0.3581,0.3581,0.3581,0.3581,0.3581,0.3581,0.3581,0.3707,0.422,0.4826,0.5437,0.605,0.6605,0.6979,0.6979,0.6979,0.6979,0.6979,0.6979,0.7147,0.7621,0.7829,0.8201,0.9159,0.9518,0.9765,1.0205,1.0283,1.0283,1.0283,1.0649,1.0725,1.0351,1.1029,1.1553,1.1553,1.2102,1.2686,1.3183,1.3749,1.4123,1.4223,1.4739,1.5054,1.5054,1.5542,1.5927,1.615,1.6248,1.6849,1.7919,1.7511,1.7814,1.8727,1.8302,1.8066,-0.2132,-0.2019,-0.1818,-0.1836,-0.1933,-0.2071,-0.2135,-0.235,-0.255,-0.2598,-0.2652,-0.2712,-0.2712,-0.2712,-0.2712,-0.2712,-0.2712,-0.2712,-0.2712,-0.2712,-0.2712,-0.2712,-0.2712,-0.2712,-0.2712,-0.2712,-0.2712,-0.2712,-0.2712,-0.2311,-0.144,-0.1338,-0.0937,-0.0134,-0.0034,0.0,0.0,0.0,0.0,0.0,0.0403,0.0605,0.0639,0.1162,0.1158,0.0774,0.0762,0.1128,0.1692,0.1671,0.2051,0.2583,0.2672,0.3034,0.349,0.3578,0.3581,0.3581,0.3581,0.3581,0.3581,0.3581,0.3581,0.3707,0.422,0.4826,0.5437,0.605,0.6605,0.6979,0.6979,0.6979,0.6979,0.6979,0.6979,0.7021,0.7112,0.753,0.8077,0.8683,0.9558,1.0205,1.0283,1.0283,1.0283,1.0283,1.0351,1.0361,1.0322,1.0428,1.0505,1.0505,1.1689,1.2723,1.325,1.3779,1.4286,1.4765,1.5279,1.558,1.558,1.612,1.6413,1.6464,1.6883,1.7437,1.806,1.8021,1.8062,1.8224,1.8145,1.7867,-0.2417,-0.2255,-0.1988,-0.1829,-0.2103,-0.2395,-0.24,-0.2418,-0.2526,-0.2776,-0.2692,-0.2609,-0.2699,-0.2712,-0.2712,-0.2712,-0.2712,-0.2712,-0.2712,-0.2712,-0.2712,-0.2712,-0.2712,-0.2712,-0.2712,-0.2712,-0.2712,-0.2712,-0.2712,-0.2278,-0.1338,-0.1305,-0.0904,-0.0034,0.0,0.0,0.0,0.0,0.0134,0.0403,0.0605,0.0888,0.1197,0.1483,0.1479,0.1293,0.1384,0.1738,0.2301,0.2299,0.2677,0.3214,0.3214,0.3353,0.3581,0.3581,0.3581,0.3581,0.3581,0.3581,0.3581,0.3581,0.3792,0.4136,0.4739,0.5346,0.5916,0.6471,0.681,0.6979,0.6979,0.6979,0.6979,0.6979,0.6979,0.6979,0.6979,0.7189,0.7655,0.8513,0.9319,0.9961,1.0244,1.0283,1.0283,1.0283,1.0557,1.0732,1.0645,1.0891,1.112,1.1389,1.1986,1.2749,1.3631,1.4192,1.475,1.5316,1.5856,1.6158,1.6158,1.6384,1.6522,1.6522,1.671,1.7105,1.7666,1.7353,1.7353,1.7626,1.7353,1.7076,-0.2452,-0.2311,-0.2045,-0.1843,-0.2132,-0.2474,-0.2463,-0.2392,-0.2401,-0.2749,-0.2727,-0.2643,-0.2634,-0.2688,-0.2712,-0.2712,-0.2779,-0.2808,-0.2716,-0.2779,-0.2808,-0.2716,-0.2712,-0.2712,-0.2712,-0.2712,-0.2712,-0.2712,-0.2712,-0.2278,-0.1338,-0.1305,-0.0904,-0.0034,0.0,0.0,0.0,0.0,0.0237,0.0754,0.0857,0.1234,0.1817,0.1986,0.2032,0.2036,0.2044,0.238,0.2943,0.2943,0.3214,0.3581,0.3581,0.3581,0.3581,0.3581,0.3581,0.3581,0.3581,0.3581,0.3581,0.3581,0.388,0.4308,0.4913,0.5394,0.5867,0.6422,0.6677,0.6816,0.6816,0.6894,0.6979,0.6979,0.7081,0.7114,0.7034,0.7231,0.7682,0.8553,0.9239,0.9834,1.0235,1.0371,1.0478,1.0626,1.0908,1.1159,1.1387,1.1562,1.1846,1.2175,1.2265,1.2774,1.393,1.4374,1.494,1.5853,1.6143,1.6337,1.6466,1.6522,1.6522,1.6522,1.6522,1.671,1.7118,1.671,1.671,1.7076,1.668,1.6522,-0.1956,-0.193,-0.1818,-0.1808,-0.1825,-0.185,-0.1857,-0.193,-0.204,-0.2057,-0.2593,-0.2944,-0.2584,-0.2613,-0.2712,-0.2712,-0.3035,-0.313,-0.2746,-0.3035,-0.3134,-0.2746,-0.2712,-0.2712,-0.2712,-0.2712,-0.2712,-0.2712,-0.2712,-0.2278,-0.1338,-0.1305,-0.0904,-0.0034,0.0,0.0,0.0,0.0,0.031,0.0903,0.1339,0.1858,0.2457,0.2983,0.3213,0.3178,0.2835,0.2984,0.3534,0.3534,0.3578,0.3581,0.3581,0.3581,0.3581,0.3581,0.3581,0.3581,0.3581,0.3581,0.3581,0.3581,0.3622,0.3751,0.4264,0.4474,0.4604,0.5216,0.5782,0.6221,0.6221,0.6598,0.6979,0.6979,0.7235,0.7368,0.7081,0.7848,0.8635,0.8675,0.9558,1.0283,1.0283,1.0615,1.1016,1.1479,1.1289,1.1533,1.2637,1.2314,1.1982,1.2028,1.2192,1.2786,1.3989,1.4002,1.4653,1.6348,1.594,1.5908,1.6479,1.6522,1.6522,1.6522,1.6522,1.6522,1.6552,1.6522,1.6522,1.6552,1.6522,1.6522,-0.1893,-0.2036,-0.2006,-0.1851,-0.1935,-0.2022,-0.1847,-0.1847,-0.1889,-0.1987,-0.2278,-0.2604,-0.2826,-0.3244,-0.3434,-0.3134,-0.3196,-0.3261,-0.3097,-0.3003,-0.2874,-0.2712,-0.2712,-0.2712,-0.2712,-0.2712,-0.2712,-0.2712,-0.2712,-0.2278,-0.1338,-0.1305,-0.0904,-0.0034,0.0,0.0,0.0,0.0,0.0464,0.1343,0.1503,0.211,0.3026,0.32,0.3363,0.35,0.3328,0.3398,0.3581,0.3581,0.3581,0.3581,0.3581,0.3581,0.3581,0.3581,0.3581,0.3581,0.3581,0.3581,0.3581,0.3581,0.3836,0.4132,0.4347,0.4957,0.5524,0.5351,0.6154,0.6956,0.6558,0.7006,0.7556,0.7556,0.7782,0.7977,0.8182,0.8528,0.8928,0.9273,1.0012,1.0545,1.0332,1.1025,1.1797,1.2324,1.2314,1.2305,1.2441,1.2529,1.2568,1.2568,1.2649,1.3001,1.3839,1.385,1.4406,1.5852,1.572,1.5864,1.6479,1.6522,1.6522,1.6522,1.6522,1.6522,1.6522,1.6522,1.6522,1.6522,1.6522,1.6722,-0.1764,-0.1967,-0.2022,-0.1844,-0.1935,-0.2022,-0.1847,-0.1869,-0.1945,-0.1937,-0.2229,-0.2554,-0.276,-0.3426,-0.3802,-0.3379,-0.329,-0.3261,-0.313,-0.2973,-0.2841,-0.2712,-0.2712,-0.2712,-0.2712,-0.2712,-0.2712,-0.2712,-0.2712,-0.2278,-0.1338,-0.1305,-0.0904,-0.0034,0.0,0.0,0.0,0.0,0.0555,0.1681,0.1657,0.2297,0.3383,0.3383,0.3483,0.3581,0.3581,0.3581,0.3581,0.3581,0.3581,0.3581,0.3581,0.3581,0.3581,0.3581,0.3581,0.3581,0.3581,0.3581,0.3581,0.3581,0.3836,0.4136,0.4136,0.4705,0.5285,0.5174,0.6013,0.689,0.6804,0.7348,0.8004,0.8331,0.8505,0.8784,0.9404,0.9361,0.9336,0.9967,1.0606,1.0978,1.077,1.1475,1.2266,1.2803,1.2881,1.2773,1.249,1.2705,1.2881,1.2881,1.2881,1.3152,1.3732,1.3589,1.4003,1.5231,1.5096,1.5365,1.6139,1.6194,1.6281,1.6522,1.6522,1.6609,1.681,1.6609,1.6622,1.681,1.681,1.7212,0.0,0.0,0.0,-0.1803,-0.1803,-0.1803,-0.1803,-0.1997,-0.2102,-0.1847,-0.2475,-0.2894,-0.231,-0.3074,-0.366,-0.3354,-0.3286,-0.3163,-0.2779,-0.3035,-0.313,-0.2746,-0.2712,-0.2712,-0.2712,-0.2712,-0.2712,-0.2712,-0.2712,-0.2278,-0.1338,-0.1271,-0.087,-0.0034,0.0,0.0,0.0,0.0,0.0613,0.1797,0.18,0.2444,0.3581,0.3581,0.3581,0.3581,0.3581,0.3581,0.3581,0.3581,0.3581,0.3581,0.3581,0.3581,0.3581,0.3581,0.3581,0.3581,0.3581,0.3581,0.3581,0.3581,0.3581,0.3626,0.3629,0.3629,0.3835,0.4717,0.5324,0.598,0.6901,0.7513,0.8167,0.9129,0.94,0.9623,1.0596,1.0212,0.9956,1.0687,1.1284,1.1645,1.1645,1.1963,1.2393,1.2812,1.2881,1.2881,1.2881,1.2881,1.2881,1.2881,1.2881,1.3152,1.3732,1.3238,1.343,1.4606,1.4143,1.4329,1.5522,1.5611,1.5888,1.6529,1.6516,1.6804,1.74,1.6823,1.6835,1.74,1.7426,1.8003,-0.1579,0.0,0.0,0.0,0.0,0.0,-0.1803,-0.1787,-0.1778,-0.1804,-0.1994,-0.2235,-0.2516,-0.2725,-0.2922,-0.3124,-0.3242,-0.3257,-0.3163,-0.2973,-0.2812,-0.2716,-0.2712,-0.2712,-0.2712,-0.2712,-0.2712,-0.2712,-0.2712,-0.2278,-0.1338,-0.0704,-0.0235,0.0,0.0,0.0,0.0,0.0,0.0614,0.1798,0.1814,0.2427,0.3581,0.3581,0.3581,0.3581,0.3581,0.3581,0.3581,0.3581,0.3581,0.3581,0.3581,0.3581,0.3581,0.3581,0.3581,0.3581,0.3581,0.3581,0.3581,0.3581,0.3581,0.3732,0.4331,0.482,0.5226,0.5714,0.673,0.7734,0.8222,0.8454,0.8635,0.8916,0.8989,0.9158,0.9894,1.0314,1.0712,1.1393,1.2054,1.2557,1.2557,1.2617,1.2744,1.2861,1.2881,1.2881,1.2881,1.2881,1.2881,1.2881,1.2881,1.2978,1.3152,1.3027,1.3248,1.4003,1.3909,1.4294,1.5332,1.5402,1.5857,1.6919,1.6919,1.7251,1.7978,1.7413,1.7438,1.799,1.8392,1.8744,-0.1458,-0.1634,-0.1759,-0.1626,0.0,0.0,-0.1803,-0.1822,-0.1845,-0.1807,-0.1891,-0.205,-0.2339,-0.2336,-0.2424,-0.2792,-0.2928,-0.2987,-0.3057,-0.2841,-0.2712,-0.2712,-0.2712,-0.2712,-0.2712,-0.2712,-0.2712,-0.2712,-0.2513,-0.2011,-0.1106,-0.0369,0.0,0.0,0.0,0.0,0.0,0.0243,0.0847,0.1805,0.2071,0.2677,0.3581,0.3581,0.3581,0.3581,0.3581,0.3581,0.3581,0.3581,0.3581,0.3581,0.3581,0.3581,0.3581,0.3581,0.3581,0.3581,0.3581,0.3581,0.3622,0.388,0.4014,0.4266,0.5001,0.5558,0.6008,0.6586,0.7603,0.8597,0.8764,0.8804,0.8857,0.9159,0.9413,0.9814,1.0466,1.1174,1.1683,1.1765,1.2393,1.2881,1.2881,1.2881,1.2881,1.2881,1.2881,1.2881,1.2881,1.2881,1.2881,1.2881,1.2881,1.2881,1.2881,1.2881,1.3135,1.3636,1.3685,1.4135,1.5185,1.5207,1.5676,1.6604,1.695,1.7581,1.8543,1.799,1.8003,1.8555,1.9095,1.9346,-0.1313,-0.1563,-0.1736,-0.143,-0.1597,0.0,-0.1806,-0.1975,-0.2088,-0.1847,-0.1985,-0.209,-0.2005,-0.1998,-0.2096,-0.239,-0.2462,-0.2537,-0.2692,-0.2712,-0.2712,-0.2712,-0.2712,-0.2712,-0.2712,-0.2712,-0.2679,-0.2613,-0.2147,-0.151,-0.0739,-0.0269,0.0,0.0,0.0072,0.0113,0.0119,0.0702,0.129,0.1919,0.245,0.3034,0.3581,0.3581,0.3581,0.3581,0.3581,0.3581,0.3581,0.3581,0.3581,0.3581,0.3581,0.3581,0.3581,0.3581,0.3581,0.3581,0.3581,0.3622,0.3751,0.4264,0.4647,0.5084,0.5662,0.606,0.6542,0.7401,0.8177,0.8804,0.8804,0.8804,0.8956,0.9562,1.0167,1.0762,1.1366,1.2039,1.2363,1.1724,1.2295,1.2881,1.2774,1.2832,1.2881,1.2881,1.2881,1.2881,1.2881,1.2881,1.2881,1.2881,1.2881,1.29,1.2949,1.2949,1.3135,1.3555,1.3574,1.4019,1.5038,1.5059,1.5384,1.6027,1.6877,1.7834,1.8958,1.857,1.8631,1.912,1.9585,1.9798,-0.162,-0.1759,-0.1781,-0.1718,-0.1829,0.0,-0.1833,-0.1847,-0.1869,-0.1803,-0.1752,-0.1737,-0.1823,-0.1926,-0.2028,-0.2086,-0.2324,-0.2537,-0.2692,-0.2712,-0.2712,-0.2712,-0.2712,-0.2712,-0.2712,-0.2712,-0.2547,-0.2181,-0.141,-0.0874,-0.0706,-0.0269,0.0,0.0,0.0489,0.071,0.0745,0.1338,0.1947,0.2539,0.263,0.3034,0.3581,0.3581,0.3581,0.3581,0.3581,0.3581,0.3581,0.3581,0.3581,0.3581,0.3581,0.3581,0.3581,0.3581,0.3581,0.3581,0.3581,0.388,0.426,0.4347,0.4915,0.5713,0.6565,0.6999,0.7407,0.832,0.8652,0.8804,0.8804,0.8804,0.8857,0.8956,0.9106,0.9211,0.9361,0.9917,1.0372,1.0218,1.1642,1.2715,1.2129,1.2501,1.2881,1.2881,1.2881,1.2881,1.2881,1.2881,1.2881,1.2881,1.2881,1.3018,1.3359,1.3389,1.3564,1.3984,1.3961,1.4263,1.4804,1.4879,1.5361,1.6377,1.7718,1.8517,1.873,1.9267,1.9547,1.966,1.9761,1.9798,-0.1469,-0.1563,-0.1511,-0.1384,-0.1399,0.0,0.0,-0.1448,-0.1578,-0.169,-0.1708,-0.1741,-0.1869,-0.1896,-0.192,-0.1998,-0.2137,-0.2286,-0.2439,-0.2588,-0.2712,-0.2712,-0.2712,-0.2613,-0.238,-0.2347,-0.2081,-0.141,-0.0941,-0.0605,-0.037,0.0172,0.046,0.0436,0.1052,0.1349,0.1339,0.1964,0.2406,0.2719,0.299,0.3306,0.3581,0.3581,0.3581,0.3581,0.3581,0.3581,0.3581,0.3581,0.3581,0.3581,0.3581,0.3581,0.3581,0.3581,0.3581,0.3581,0.3581,0.4062,0.4705,0.4974,0.5738,0.6718,0.7505,0.7942,0.8242,0.8659,0.8804,0.8804,0.8804,0.8804,0.8804,0.8804,0.9061,0.9309,0.9309,0.9814,1.0218,0.9865,1.1183,1.2236,1.1864,1.2403,1.2881,1.2881,1.2881,1.2881,1.2881,1.3066,1.3115,1.29,1.3262,1.3506,1.3506,1.3701,1.4004,1.4434,1.4463,1.4648,1.5078,1.5098,1.5528,1.6482,1.7246,1.7797,1.8167,1.8501,1.9097,1.9798,1.9798,1.9798,-0.1145,-0.1218,-0.1163,-0.0945,-0.0922,-0.0921,0.0,0.0,0.0,-0.1458,-0.1654,-0.1818,-0.1847,-0.1819,-0.1821,-0.185,-0.1942,-0.2027,-0.2066,-0.2395,-0.2595,-0.2595,-0.2654,-0.2505,-0.2145,-0.1948,-0.1526,-0.0772,-0.0632,-0.0365,0.0101,0.0635,0.0947,0.103,0.1642,0.1973,0.1989,0.2585,0.2854,0.2898,0.3353,0.3581,0.3581,0.3581,0.3581,0.3581,0.3581,0.3581,0.3581,0.3581,0.3581,0.3581,0.3581,0.3581,0.3581,0.3581,0.3581,0.3629,0.3787,0.4369,0.5176,0.5774,0.6755,0.7753,0.8336,0.8617,0.8804,0.8804,0.8804,0.8804,0.8804,0.8804,0.8804,0.8804,0.9211,0.9614,0.9614,1.0012,1.0285,0.9792,1.0664,1.1554,1.1575,1.241,1.2998,1.2998,1.3066,1.3125,1.3125,1.3418,1.3496,1.3164,1.373,1.4033,1.3769,1.4062,1.4443,1.4883,1.4902,1.5059,1.54,1.541,1.569,1.6265,1.6436,1.6821,1.7413,1.7523,1.8221,1.9371,1.9527,1.9579,-0.0849,-0.0957,-0.0945,-0.0918,-0.0998,-0.1034,-0.0935,0.0,-0.1461,-0.1053,0.0,-0.1721,-0.1426,0.0,0.0,-0.1426,-0.1732,-0.1912,-0.1698,-0.2016,-0.2261,-0.2261,-0.2401,-0.251,-0.2449,-0.1794,-0.1205,-0.0737,-0.032,0.0127,0.0603,0.0811,0.1074,0.1512,0.2206,0.2602,0.261,0.3208,0.349,0.349,0.3578,0.3581,0.3581,0.3581,0.3581,0.3581,0.3581,0.3581,0.3581,0.3581,0.3581,0.3581,0.3581,0.3581,0.3581,0.3581,0.3581,0.3732,0.4492,0.5107,0.5759,0.6635,0.7548,0.8366,0.8677,0.8784,0.8804,0.8804,0.8804,0.8804,0.8804,0.8804,0.8804,0.8804,0.8857,0.891,0.891,0.8956,0.909,0.9241,0.9937,1.0576,1.0871,1.2291,1.3437,1.3437,1.375,1.3941,1.3941,1.398,1.399,1.3941,1.4029,1.4268,1.4609,1.4687,1.4893,1.5312,1.5342,1.5361,1.541,1.541,1.5468,1.5526,1.6151,1.6539,1.6652,1.7302,1.7688,1.7852,1.8501,1.8821,-0.082,-0.0747,-0.0612,-0.0599,-0.0656,-0.0681,-0.0613,-0.1043,-0.1415,-0.1335,0.0,0.0,0.0,0.0,0.0,0.0,-0.124,-0.1314,-0.1218,-0.1328,-0.1631,-0.2132,-0.2264,-0.2153,-0.1739,-0.0981,-0.0472,-0.0301,-0.0095,0.0189,0.067,0.1161,0.1643,0.211,0.2855,0.3206,0.3214,0.3486,0.3581,0.3581,0.3581,0.3581,0.3581,0.3581,0.3581,0.3581,0.3581,0.3581,0.3581,0.3581,0.3581,0.3581,0.3581,0.3581,0.3581,0.3581,0.3943,0.4389,0.4776,0.5704,0.6896,0.7772,0.8313,0.8651,0.8771,0.8804,0.8804,0.8804,0.8804,0.8804,0.8804,0.8804,0.8851,0.9018,0.9004,0.9105,0.9279,0.9312,0.9513,1.0073,1.0751,1.1412,1.2016,1.2724,1.333,1.3762,1.397,1.4077,1.4077,1.4355,1.4414,1.4107,1.4525,1.4853,1.4785,1.501,1.5225,1.54,1.541,1.541,1.541,1.541,1.541,1.541,1.569,1.5864,1.5864,1.6187,1.6436,1.6753,1.7645,1.8503,-0.0585,-0.0469,-0.0285,-0.0287,-0.028,-0.0301,-0.0299,-0.0675,-0.1085,-0.1147,-0.117,0.0,0.0,0.0,-0.0876,-0.0787,0.0,-0.087,-0.0782,-0.0847,-0.1142,-0.1773,-0.1884,-0.1645,-0.104,-0.0501,-0.0151,0.0,0.0124,0.0403,0.0836,0.1592,0.2185,0.2656,0.3292,0.3581,0.3581,0.3581,0.3581,0.3581,0.3581,0.3581,0.3581,0.3581,0.3581,0.3581,0.3581,0.3581,0.3581,0.3581,0.3581,0.3581,0.3581,0.3735,0.3947,0.3947,0.4377,0.4954,0.5443,0.6613,0.7941,0.8574,0.8804,0.8804,0.8804,0.8804,0.8804,0.8804,0.8804,0.8824,0.8905,0.8925,0.8998,0.9292,0.9359,0.9419,0.9633,0.9846,1.0207,1.0905,1.1598,1.2366,1.3273,1.3433,1.3644,1.4198,1.4414,1.4482,1.4482,1.4756,1.4834,1.4521,1.5039,1.5283,1.498,1.5234,1.541,1.541,1.541,1.541,1.541,1.541,1.5469,1.5586,1.5586,1.5654,1.5771,1.5771,1.5937,1.6292,1.7111,1.8047,-0.0037,-0.0036,0.0,0.0,0.0,0.0,-0.0023,-0.0227,-0.0354,-0.0103,-0.0505,-0.0809,-0.0507,-0.0695,-0.0788,-0.0481,-0.0676,0.0,0.0,-0.069,-0.0916,-0.0944,-0.1061,-0.1014,-0.0752,-0.0687,-0.0483,-0.0031,0.0407,0.0859,0.1265,0.2036,0.2656,0.3082,0.3419,0.3581,0.3581,0.3581,0.3581,0.3581,0.3581,0.3581,0.3581,0.3581,0.3581,0.3581,0.3581,0.3581,0.3581,0.3581,0.3581,0.3581,0.3581,0.4111,0.4839,0.4839,0.489,0.5134,0.6828,0.8005,0.8738,0.8804,0.8804,0.8804,0.8804,0.8804,0.8804,0.8804,0.8804,0.8871,0.9097,0.917,0.9243,0.9599,0.9666,0.9673,0.9679,1.0293,1.094,1.1255,1.1972,1.2915,1.3987,1.4506,1.4766,1.4766,1.5107,1.5371,1.5371,1.5381,1.5391,1.5371,1.5391,1.54,1.5391,1.54,1.541,1.541,1.541,1.541,1.541,1.541,1.5615,1.6096,1.6105,1.626,1.6626,1.6626,1.6699,1.6699,1.7031,1.7462,0.0,0.0,0.0,0.0,-0.0127,-0.0274,-0.0254,-0.0497,-0.0713,-0.0613,-0.0591,-0.0544,-0.0424,-0.0336,-0.0274,-0.0153,-0.0227,-0.027,0.0,-0.0224,-0.0246,-0.0067,-0.0383,-0.0609,-0.052,-0.0178,0.016,0.0427,0.0784,0.1183,0.1733,0.2223,0.2695,0.3082,0.3419,0.3581,0.3581,0.3581,0.3581,0.3581,0.3581,0.3581,0.3581,0.3581,0.3581,0.3581,0.3581,0.3581,0.3581,0.3581,0.3581,0.3588,0.3683,0.3933,0.4252,0.4713,0.5629,0.6767,0.7941,0.8561,0.8804,0.8804,0.8804,0.8804,0.8804,0.8804,0.8844,0.9038,0.9092,0.9158,0.9459,0.9532,0.9606,0.99,1.037,1.0656,1.0343,1.1337,1.2314,1.2434,1.3118,1.3942,1.4845,1.511,1.5205,1.5205,1.5322,1.541,1.541,1.541,1.541,1.541,1.541,1.541,1.541,1.541,1.541,1.541,1.5684,1.584,1.584,1.6133,1.6357,1.6504,1.6504,1.6582,1.6665,1.6665,1.6885,1.7158,1.7258,1.7693,0.0,0.0,0.0,0.0,-0.0138,-0.0266,-0.0254,-0.0436,-0.0517,-0.0314,-0.0122,0.0065,0.0319,0.0303,0.0258,0.0302,0.0131,0.0025,0.0,0.0134,0.0246,0.0535,0.0163,-0.0072,0.0048,0.0386,0.0635,0.077,0.113,0.1523,0.191,0.2421,0.285,0.3082,0.3419,0.3581,0.3581,0.3581,0.3581,0.3581,0.3581,0.3581,0.3581,0.3581,0.3581,0.3581,0.3581,0.3581,0.3581,0.3581,0.3609,0.3708,0.4075,0.442,0.4771,0.525,0.6503,0.8023,0.858,0.8804,0.8804,0.8804,0.8804,0.8804,0.8804,0.8878,0.8998,0.913,0.9263,0.9466,0.976,0.984,0.9913,1.0207,1.069,1.1038,1.1003,1.2089,1.307,1.3364,1.4085,1.4805,1.5294,1.541,1.541,1.541,1.541,1.541,1.541,1.541,1.541,1.541,1.541,1.541,1.541,1.5557,1.5644,1.5644,1.6064,1.6299,1.6299,1.6572,1.6807,1.6963,1.6963,1.7041,1.7187,1.7187,1.7334,1.7607,1.7607,1.7919]},{"header":{"parameterUnit":"m.s-1","parameterCategory":1,"la1":30.6,"la2":29.2853,"lo1":-89.7004,"lo2":-87.6739,"dy":0.0162,"dx":0.0183,"nx":112,"ny":82,"refTime":"2026-02-28T12:00:00:Z","depth":0,"parameterNumber":3,"parameterNumberName":"V-component_of_WINDS"},"data":[0.0,0.0,0.0,0.0,0.0,0.0,0.0,0.0,0.0,0.0,0.0,0.0,0.0,0.0,0.0,0.0,0.0,0.0,0.0,0.0,0.0,0.0,0.0,0.0,0.0,0.0,0.0,0.0,0.0,0.0,0.0,0.0,0.0,0.0,0.0,0.0,0.0,0.0,0.0,0.0,0.0,0.0,0.0,0.0,0.0,0.0,0.0,0.0,0.0,0.0,0.0,0.0,0.0,0.0,0.0,0.0,0.0,0.0,0.0,0.0,0.0,0.0,0.0,0.0,0.0,0.0,0.0,0.0,0.0,0.0,0.0,0.0,0.0,0.0,0.0,0.0,0.0,0.0,0.0,0.0,0.0,0.0,0.0,0.0,0.0,0.0,0.0,0.0,0.0,0.0,-0.7984,-0.8993,-0.9767,-1.0145,-1.0038,-0.5241,-0.0923,0.2184,0.0,0.0,0.0,0.0,0.0,0.0,0.0,0.0,0.0,0.0,0.0,0.0,0.0,0.0,0.0,0.0,0.0,0.0,0.0,0.0,0.0,0.0,0.0,0.0,0.0,0.0,0.0,0.0,0.0,0.0,0.0,0.0,0.0,0.0,0.0,0.0,0.0,0.0,0.0,0.0,0.0,0.0,0.0,0.0,0.0,0.0,0.0,0.0,0.0,0.0,0.0,0.0,0.0,0.0,0.0,0.0,0.0,0.0,0.0,0.0,0.0,0.0,0.0,0.0,0.0,0.0,0.0,0.0,0.0,0.0,0.0,0.0,0.0,0.0,0.0,0.0,0.0,0.0,0.0,0.0,0.0,0.0,0.0,0.0,0.0,0.0,0.0,0.0,0.0,0.0,0.0,0.0,0.0,0.0,0.0,0.0,0.0,0.0,0.0,0.0,0.0,0.0,0.0,0.0,-0.8212,-0.9829,-1.0128,-1.0193,-1.0178,-0.4621,0.0105,0.3025,0.0,0.0,0.0,0.0,0.0,0.0,0.0,0.0,0.0,0.0,0.0,0.0,0.0,0.0,0.0,0.0,0.0,0.0,0.0,0.0,0.0,0.0,0.0,0.0,0.0,0.0,0.0,0.0,0.0,0.0,0.0,0.0,0.0,0.0,0.0,0.0,0.0,0.0,0.0,0.0,0.0,0.0,0.0,0.0,0.0,0.0,0.0,0.0,0.0,0.0,0.0,0.0,0.0,0.0,0.0,0.0,0.0,0.0,0.0,0.0,0.0,0.0,0.0,0.0,0.0,0.0,0.0,0.0,0.0,0.0,0.0,0.0,0.0,0.0,0.0,0.0,0.0,0.0,0.0,0.0,0.0,0.0,0.0,0.0,0.0,0.0,0.0,0.0,0.0,0.0,0.0,0.0,0.0,0.0,0.0,0.0,0.0,0.0,0.0,0.0,0.0,0.0,0.0,-0.9009,-0.9323,-1.0117,-1.0175,-1.0183,-1.0237,-0.4271,0.1479,0.6191,0.6518,0.0,0.0,0.0,0.0,0.0,0.0,0.0,0.0,0.0,0.0,0.0,0.0,0.0,0.0,0.0,0.0,0.0,0.0,0.0,0.0,0.0,0.0,0.0,0.0,0.0,0.0,0.0,0.0,0.0,0.0,0.0,0.0,0.0,0.0,0.0,0.0,0.0,0.0,0.0,0.0,0.0,0.0,0.0,0.0,0.0,0.0,0.0,0.0,0.0,0.0,0.0,0.0,0.0,0.0,0.0,0.0,0.0,0.0,0.0,0.0,0.0,0.0,0.0,0.0,0.0,0.0,0.0,0.0,0.0,0.0,0.0,0.0,0.0,0.0,0.0,0.0,0.0,0.0,0.0,0.0,0.0,0.0,0.0,0.0,0.0,0.0,0.0,0.0,0.0,0.0,0.0,0.0,0.0,0.0,0.0,0.0,0.0,0.0,0.0,0.0,0.0,0.0,-1.0019,-1.0141,-1.0158,-1.0086,-1.0076,-1.0208,-0.408,0.2434,0.8666,0.8073,0.0,0.0,0.0,0.0,0.0,0.0,0.0,0.0,0.0,0.0,0.0,0.0,0.0,0.0,0.0,0.0,0.0,0.0,0.0,0.0,0.0,0.0,0.0,0.0,0.0,0.0,0.0,0.0,0.0,0.0,0.0,0.0,0.0,0.0,0.0,0.0,0.0,0.0,0.0,0.0,0.0,0.0,0.0,0.0,0.0,0.0,0.0,0.0,0.0,0.0,0.0,0.0,0.0,0.0,0.0,0.0,0.0,0.0,0.0,0.0,0.0,0.0,0.0,0.0,0.0,0.0,0.0,0.0,0.0,0.0,0.0,0.0,0.0,0.0,0.0,0.0,0.0,0.0,0.0,0.0,0.0,0.0,0.0,0.0,0.0,0.0,0.0,0.0,0.0,0.0,0.0,0.0,0.0,0.0,0.0,0.0,0.0,0.0,0.0,0.0,0.0,0.0,-0.9501,-0.9948,-1.0012,-0.9893,-0.9867,-1.0009,-0.4043,0.2338,0.852,0.6872,0.0,0.0,0.0,0.0,0.0,0.0,0.0,0.0,0.0,0.0,0.0,0.0,0.0,0.0,0.0,0.0,0.0,0.0,0.0,0.0,0.0,0.0,0.0,0.0,0.0,0.0,0.0,0.0,0.0,0.0,0.0,0.0,0.0,0.0,0.0,0.0,0.0,0.0,0.0,0.0,0.0,0.0,0.0,0.0,0.0,0.0,0.0,0.0,0.0,0.0,0.0,0.0,0.0,0.0,0.0,0.0,0.0,0.0,0.0,0.0,0.0,0.0,0.0,0.0,0.0,0.0,0.0,0.0,0.0,0.0,0.0,0.0,0.0,0.0,0.0,0.0,0.0,0.0,0.0,0.0,0.0,0.0,0.0,0.0,0.0,0.0,0.0,0.0,0.0,0.0,0.0,0.0,0.0,0.0,0.0,0.0,0.0,0.0,0.0,0.0,0.0,0.0,-0.9774,-0.9879,-0.9813,-0.9502,-0.9411,-0.9671,-0.4191,0.1839,0.7889,0.0,0.0,0.0,0.0,0.0,0.0,0.0,0.0,0.0,0.0,0.0,0.0,0.0,0.0,0.0,0.0,0.0,0.0,0.0,0.0,0.0,0.0,0.0,0.0,0.0,0.0,0.0,0.0,0.0,0.0,0.0,0.0,0.0,0.0,0.0,0.0,0.0,0.0,0.0,0.0,0.0,0.0,0.0,0.0,0.0,0.0,0.0,0.0,0.0,0.0,0.0,0.0,0.0,0.0,0.0,0.0,0.0,0.0,0.0,0.0,0.0,0.0,0.0,0.0,0.0,0.0,0.0,0.0,0.0,0.0,0.0,0.0,0.0,0.0,0.0,0.0,0.0,0.0,0.0,0.0,0.0,0.0,0.0,0.0,0.0,0.0,0.0,0.0,0.0,0.0,0.0,0.0,0.0,0.0,0.0,0.0,0.0,0.0,0.0,0.0,0.0,0.0,-0.9777,-0.9825,-0.957,-0.9195,-0.8788,-0.867,-0.9012,-0.4147,0.0704,0.4837,0.0,0.0,0.0,0.0,0.0,0.0,0.0,0.0,0.0,0.0,0.0,0.0,0.0,0.0,0.0,0.0,0.0,0.0,0.0,0.0,0.0,0.0,0.0,0.0,0.0,0.0,0.0,0.0,0.0,0.0,0.0,0.0,0.0,0.0,0.0,0.0,0.0,0.0,0.0,0.0,0.0,0.0,0.0,0.0,0.0,0.0,0.0,0.0,0.0,0.0,0.0,0.0,0.0,0.0,0.0,0.0,0.0,0.0,0.0,0.0,0.0,0.0,0.0,0.0,0.0,0.0,0.0,0.0,0.0,0.0,0.0,0.0,0.0,0.0,0.0,0.0,0.0,0.0,0.0,0.0,0.0,0.0,0.0,0.0,0.0,0.0,0.0,0.0,0.0,0.0,0.0,0.0,0.0,0.0,0.0,0.0,0.0,0.0,0.0,0.0,0.0,0.0,-0.9544,-0.9483,-0.8948,-0.8075,-0.7676,-0.7633,-0.8036,-0.3856,-0.111,0.0,0.0,0.0,0.0,0.0,0.0,0.0,0.0,0.0,0.0,0.0,0.0,0.0,0.0,0.0,0.0,0.0,0.0,0.0,0.0,0.0,0.0,0.0,0.0,0.0,0.0,0.0,0.0,0.0,0.0,0.0,0.0,0.0,0.0,0.0,0.0,0.0,0.0,0.0,0.0,0.0,0.0,0.0,0.0,0.0,0.0,0.0,0.0,0.0,0.0,0.0,0.0,0.0,0.0,0.0,0.0,0.0,0.0,0.0,0.0,0.0,0.0,0.0,0.0,0.0,0.0,0.0,0.0,0.0,0.0,0.0,0.0,0.0,0.0,0.0,0.0,0.0,0.0,0.0,0.0,0.0,0.0,0.0,0.0,0.0,0.0,0.0,0.0,0.0,0.0,0.0,0.0,0.0,0.0,0.0,0.0,0.0,0.0,0.0,0.0,0.0,0.0,0.0,-0.7825,-0.7629,-0.7234,-0.6832,-0.6202,-0.5965,-0.6374,-0.3246,-0.1167,-0.0922,0.0,0.0,0.0,0.0,0.0,0.0,0.0,0.0,0.0,0.0,0.0,0.0,0.0,0.0,0.0,0.0,0.0,0.0,0.0,0.0,0.0,0.0,0.0,0.0,0.0,0.0,0.0,0.0,0.0,0.0,0.0,0.0,0.0,0.0,0.0,0.0,0.0,0.0,0.0,0.0,0.0,0.0,0.0,0.0,0.0,0.0,0.0,0.0,0.0,0.0,0.0,0.0,0.0,0.0,0.0,0.0,0.0,0.0,0.0,0.0,0.0,0.0,0.0,0.0,0.0,0.0,0.0,0.0,0.0,0.0,0.0,0.0,0.0,0.0,0.0,0.0,0.0,0.0,0.0,0.0,0.0,0.0,0.0,0.0,0.0,0.0,0.0,0.0,0.0,0.0,0.0,0.0,0.0,0.0,0.0,0.0,0.0,0.0,0.0,0.0,0.0,0.0,-0.693,-0.6662,-0.6192,-0.5645,-0.5005,-0.4494,-0.4208,-0.2393,-0.1161,-0.0919,0.0,0.0,0.0,0.0,0.0,0.0,0.0,0.0,0.0,0.0,0.0,0.0,0.0,0.0,0.0,0.0,0.0,0.0,0.0,0.0,0.0,0.0,0.0,0.0,0.0,0.0,0.0,0.0,0.0,0.0,0.0,0.0,0.0,0.0,0.0,0.0,0.0,0.0,0.0,0.0,0.0,0.0,0.0,0.0,0.0,0.0,0.0,0.0,0.0,0.0,0.0,0.0,0.0,0.0,0.0,0.0,0.0,0.0,0.0,0.0,0.0,0.0,0.0,0.0,0.0,0.0,0.0,0.0,0.0,0.0,0.0,0.0,0.0,0.0,0.0,0.0,0.0,0.0,0.0,0.0,0.0,0.0,0.0,0.0,0.0,0.0,0.0,0.0,0.0,0.0,0.0,0.0,0.0,0.0,0.0,0.0,0.0,0.0,0.0,0.0,0.0,0.0,-0.6569,-0.6186,-0.5449,-0.4444,-0.3947,-0.3198,-0.1969,-0.1436,-0.1092,-0.091,0.0,0.0,0.0,0.0,0.0,0.0,0.0,0.0,0.0,0.0,0.0,0.0,0.0,0.0,0.0,0.0,0.0,0.0,0.0,0.0,0.0,0.0,0.0,0.0,0.0,0.0,0.0,0.0,0.0,0.0,0.0,0.0,0.0,0.0,0.0,0.0,0.0,0.0,0.0,0.0,0.0,0.0,0.0,0.0,0.0,0.0,0.0,0.0,0.0,0.0,0.0,0.0,0.0,0.0,0.0,0.0,0.0,0.0,0.0,0.0,-0.4918,-0.4879,0.0,0.0,0.0,0.0,0.0,0.0,0.0,0.0,0.0,0.0,0.0,0.0,0.0,0.0,0.0,0.0,0.0,0.0,0.0,0.0,0.0,0.0,0.0,0.0,0.0,0.0,0.0,0.0,0.0,0.0,0.0,0.0,0.0,0.0,0.0,0.0,0.0,0.0,0.0,0.0,-0.5671,-0.4594,-0.3579,-0.3134,-0.2539,-0.2007,-0.1618,-0.1205,-0.0951,-0.0899,-0.1094,0.0,0.0,0.0,0.0,0.0,0.0,0.0,0.0,0.0,0.0,0.0,0.0,0.0,0.0,0.0,0.0,0.0,0.0,0.0,0.0,0.0,0.0,0.0,0.0,0.0,0.0,0.0,0.0,0.0,0.0,0.0,0.0,0.0,0.0,0.0,0.0,0.0,0.0,0.0,0.0,0.0,0.0,0.0,0.0,0.0,0.0,0.0,0.0,0.0,0.0,0.0,0.0,0.0,0.0,0.0,0.0,0.0,0.0,0.0,-0.5806,-0.5567,0.0,0.0,0.0,0.0,0.0,0.0,0.0,0.0,0.0,0.0,0.0,0.0,0.0,0.0,0.0,0.0,0.0,0.0,0.0,0.0,0.0,0.0,0.0,0.0,0.0,0.0,0.0,0.0,0.0,0.0,0.0,0.0,0.0,0.0,0.0,0.0,0.0,0.0,0.0,0.0,-0.5554,-0.4263,-0.3191,-0.3053,-0.2387,-0.1826,-0.1529,-0.1132,-0.0954,-0.1087,-0.1072,0.0,0.0,0.0,0.0,0.0,0.0,0.0,0.0,0.0,0.0,0.0,0.0,0.0,0.0,0.0,0.0,0.0,0.0,0.0,0.0,0.0,0.0,0.0,0.0,0.0,0.0,0.0,0.0,0.0,0.0,0.0,0.0,0.0,0.0,0.0,0.0,0.0,0.0,0.0,0.0,0.0,0.0,0.0,0.0,0.0,0.0,0.0,0.0,0.0,0.0,0.0,0.0,0.0,-0.7262,-0.7646,-0.7906,-0.7641,-0.7737,-0.8092,-0.6984,-0.6528,-0.6533,-0.5851,0.0,0.0,0.0,0.0,0.0,0.0,0.0,0.0,0.0,0.0,0.0,0.0,0.0,0.0,0.0,0.0,0.0,0.0,0.0,0.0,0.0,0.0,-0.4877,-0.5982,-0.5664,-0.4816,-0.3767,0.0,0.0,0.0,0.0,0.0,0.0,0.0,0.0,0.0,0.0,0.0,-0.5626,-0.4372,-0.3357,-0.3233,-0.2587,-0.1969,-0.1504,-0.1137,-0.1039,-0.128,-0.1072,-0.1105,0.0,0.0,0.0,0.0,0.0,0.0,0.0,0.0,0.0,0.0,0.0,0.0,0.0,0.0,0.0,0.0,0.0,0.0,0.0,0.0,0.0,0.0,0.0,0.0,0.0,0.0,0.0,0.0,0.0,0.0,0.0,0.0,0.4175,0.3991,0.0,0.0,0.0,0.0,0.0,0.0,0.0,0.0,0.0,0.0,0.0,0.0,0.0,-0.6756,-0.6993,-0.7803,-0.8288,-0.8471,-0.7876,-0.7582,-0.7587,-0.8111,-0.8349,-0.8365,-0.8412,0.0,-0.7344,-0.7111,0.0,0.0,0.0,0.0,0.0,0.0,0.0,0.0,0.0,0.0,0.0,0.0,0.0,0.0,0.0,0.0,0.0,0.0,0.0,0.0,0.0,0.0,-0.5339,-0.4968,-0.4768,-0.4569,-0.4182,-0.4855,-0.5376,-0.4808,-0.4456,-0.4353,0.0,0.0,0.0,0.0,0.0,0.0,-0.5201,-0.4154,-0.3183,-0.2601,-0.2224,-0.1833,-0.1363,-0.117,-0.1134,-0.1291,-0.1156,-0.1205,-0.1485,-0.1491,0.0,0.0,0.0,0.0,0.0,0.0,0.0,0.0,0.0,0.0,0.0,0.0,0.0,0.0,0.0,0.0,0.0,0.0,0.0,0.0,0.0,0.0,0.0,0.0,0.0,0.0,0.0,0.0,0.0,0.4437,0.4525,0.4954,0.4669,0.4559,0.0,0.0,0.0,0.0,0.0,0.0,0.0,0.0,0.0,-0.52,-0.6755,-0.7545,-0.7462,-0.8267,-0.876,-0.8911,-0.9018,-0.9052,-0.9021,-0.9279,-0.926,-0.9026,-0.9099,-0.8711,-0.7977,-0.7654,-0.7075,-0.6408,0.0,0.0,0.0,0.0,-0.6666,-0.6786,-0.6797,-0.6639,-0.6422,-0.6265,0.0,0.0,0.0,0.0,0.0,0.0,0.0,-0.6215,-0.5895,-0.588,-0.5892,-0.5751,-0.5612,-0.5441,-0.5199,-0.5505,-0.5621,-0.4941,-0.4579,-0.4482,-0.4868,-0.4474,0.0,0.0,0.0,-0.4866,-0.5522,-0.4487,-0.3506,-0.3023,-0.2692,-0.2254,-0.1632,-0.1428,-0.1396,-0.1572,-0.1281,-0.127,-0.1655,-0.1491,-0.1459,0.0,0.0,0.0,0.0,0.0,0.0,0.0,0.0,0.0,0.0,0.0,0.0,0.0,0.0,0.0,0.0,0.0,0.0,0.0,0.0,0.0,0.0,0.0,0.0,0.0,0.0,0.0,0.0,0.4516,0.4783,0.5589,0.5429,0.5272,0.0,0.0,0.0,0.0,0.0,0.0,-0.4303,-0.5616,-0.6313,-0.6237,-0.7657,-0.8254,-0.7889,-0.8732,-0.9204,-0.9305,-0.9912,-1.0178,-1.0112,-1.0078,-0.9819,-0.9387,-0.9348,-0.8954,-0.8342,-0.8015,-0.749,-0.6908,-0.7064,-0.7094,-0.7094,-0.7373,-0.7547,-0.7621,-0.7472,-0.7287,-0.708,-0.6761,-0.623,-0.582,-0.665,0.0,0.0,0.0,0.0,-0.692,-0.7096,-0.6951,-0.6784,-0.6988,-0.6724,-0.6366,-0.6147,-0.5896,-0.549,-0.4817,-0.454,-0.4513,-0.4861,-0.426,0.0,-0.5267,-0.4802,-0.4591,-0.5297,-0.4464,-0.3656,-0.3254,-0.2974,-0.2542,-0.1848,-0.1697,-0.1671,-0.1791,-0.1421,-0.1378,-0.1782,-0.1513,-0.1394,-0.1496,0.0,0.0,0.0,0.0,0.0,0.0,0.0,0.0,0.0,0.0,0.0,0.0,0.0,0.0,0.0,0.0,0.0,0.0,0.0,0.0,0.0,0.0,0.0,0.0,0.0,0.0,0.0,0.0,0.0,0.5348,0.5681,0.0,0.0,0.0,0.0,-0.0666,-0.3153,-0.4972,-0.5741,-0.6241,-0.6695,-0.7111,-0.8204,-0.8819,-0.8933,-0.9723,-1.0133,-1.014,-1.0175,-1.0106,-0.9925,-0.9913,-0.9618,-0.9116,-0.9125,-0.8808,-0.8303,-0.8342,-0.7789,-0.6891,-0.6904,-0.68,-0.6627,-0.6654,-0.6899,-0.7227,-0.7211,-0.708,-0.6911,-0.6891,-0.6687,-0.66,-0.7387,-0.7237,0.0,0.0,-0.7461,-0.7683,-0.7804,-0.8014,-0.8189,-0.8223,-0.7621,-0.6979,-0.673,-0.5852,-0.4952,-0.4274,-0.4131,-0.4122,-0.4147,0.0,-0.4382,-0.4467,-0.4743,-0.4659,-0.3832,-0.3607,-0.3313,-0.2799,-0.2656,-0.2398,-0.1852,-0.1906,-0.1934,-0.1802,-0.1603,-0.1571,-0.1792,-0.1603,-0.1485,-0.1496,-0.1378,0.0,0.0,0.0,0.0,0.0,0.0,0.0,0.0,0.0,0.0,0.0,0.0,0.0,0.0,0.0,0.0,0.0,0.0,0.0,0.0,0.0,0.0,0.0,0.0,0.0,0.0,0.0,0.0,0.691,0.6618,0.0,0.7796,0.4141,0.0323,-0.2995,-0.4271,-0.5195,-0.5862,-0.6891,-0.7705,-0.8204,-0.9153,-0.9687,-0.9771,-1.0055,-1.0477,-1.1037,-1.099,-1.1127,-1.1376,-1.1344,-1.0857,-1.006,-1.0011,-0.9585,-0.8901,-0.9083,-0.8788,-0.8228,-0.8667,-0.8818,-0.8787,-0.8739,-0.8678,-0.8592,-0.847,-0.8239,-0.7901,-0.7352,-0.6956,-0.672,-0.6821,-0.6708,-0.6647,-0.7154,-0.7383,-0.7542,-0.8022,-0.8044,-0.7922,-0.7922,-0.7526,-0.7014,-0.6495,-0.6068,-0.5447,-0.4219,-0.3838,-0.3769,-0.3937,-0.3609,-0.3477,-0.4009,-0.4055,-0.3915,-0.3579,-0.3509,-0.322,-0.2454,-0.2541,-0.2427,-0.1842,-0.1838,-0.1852,-0.1802,-0.1451,-0.1357,-0.1592,-0.1368,-0.1286,-0.1367,-0.1149,-0.1002,0.0,0.0,0.0,0.0,0.0,0.0,0.0,0.0,0.0,0.0,0.0,0.0,0.0,0.0,0.0,0.0,0.0,0.0,0.0,0.0,0.0,0.0,0.0,0.0,0.0,0.5272,0.584,0.7294,0.729,0.7541,0.8481,0.4866,0.0615,-0.3862,-0.5098,-0.5948,-0.6678,-0.7918,-0.8774,-0.915,-0.9806,-1.0278,-1.0564,-1.0611,-1.1037,-1.1844,-1.1718,-1.1827,-1.2087,-1.1739,-1.1103,-1.0223,-1.011,-0.9621,-0.8967,-0.9478,-0.9573,-0.9421,-0.9838,-1.0035,-1.007,-1.012,-0.9985,-0.9725,-0.9213,-0.8711,-0.8205,-0.7715,-0.7285,-0.7009,-0.7037,-0.6949,-0.6975,-0.761,-0.7806,-0.7964,-0.8664,-0.8559,-0.8264,-0.8264,-0.7683,-0.7056,-0.6746,-0.6063,-0.5266,-0.4378,-0.3986,-0.3744,-0.3521,-0.3135,-0.3019,-0.3556,-0.341,-0.3269,-0.3353,-0.3178,-0.2837,-0.2259,-0.2394,-0.2333,-0.1845,-0.1956,-0.2028,-0.194,-0.16,-0.1506,-0.1726,-0.1476,-0.1347,-0.137,-0.0548,-0.0137,-0.0155,0.0,0.0,0.0,0.0,0.0,0.0,0.0,0.0,0.0,0.0,0.0,0.0,0.0,0.0,0.0,0.0,0.0,0.0,0.0,0.0,0.0,0.0,0.0,0.5213,0.5263,0.5643,0.6386,0.7672,0.7828,0.6091,0.4008,0.1026,-0.322,-0.5634,-0.7332,-0.8273,-0.9253,-0.984,-0.9897,-1.012,-1.0565,-1.1281,-1.1453,-1.1876,-1.253,-1.2338,-1.2133,-1.191,-1.1076,-1.0256,-0.9519,-0.9318,-0.8927,-0.8478,-0.9487,-1.0044,-1.0275,-1.0248,-1.023,-1.0264,-1.0527,-1.0608,-1.043,-0.9308,-0.8396,-0.776,-0.7943,-0.7727,-0.7523,-0.8098,-0.8004,-0.786,-0.8595,-0.8816,-0.8981,-0.9712,-0.9646,-0.9369,-0.9369,-0.8144,-0.7077,-0.7441,-0.5795,-0.4323,-0.4689,-0.4558,-0.402,-0.2891,-0.2913,-0.3058,-0.308,-0.2853,0.0,-0.3046,-0.2567,-0.2193,-0.2193,-0.2193,-0.208,-0.1815,-0.2268,-0.247,-0.223,-0.2079,-0.2046,-0.2171,-0.1906,-0.1663,-0.1459,0.0406,0.1233,0.0935,0.0,0.0,0.0,0.0,0.0,0.0,0.0,0.0,0.0,0.0,0.0,0.0,0.0,0.0,0.0,0.0,0.0,0.0,0.0,0.0,0.0,0.4904,0.5306,0.5894,0.6418,0.7119,0.8097,0.8386,0.8517,0.8551,0.4795,-0.0121,-0.613,-0.715,-0.7875,-0.876,-0.9346,-0.9783,-1.0031,-1.0525,-1.0926,-1.1217,-1.1892,-1.2504,-1.309,-1.3323,-1.3161,-1.2699,-1.2648,-1.1676,-0.999,-0.9939,-0.9461,-0.8739,-0.9504,-0.9888,-1.0018,-1.0713,-1.11,-1.1213,-1.1141,-1.0828,-1.0339,-0.9548,-0.8931,-0.8451,-0.8285,-0.7952,-0.7644,-0.783,-0.7976,-0.8223,-0.8679,-0.9008,-0.9343,-0.979,-0.9437,-0.8899,-0.859,-0.7568,-0.6504,-0.5972,-0.5134,-0.431,-0.3701,-0.3775,-0.3684,-0.2859,-0.2486,-0.2375,-0.2565,-0.2444,-0.2367,-0.2433,-0.2302,-0.2128,-0.1935,-0.1913,-0.1876,-0.1801,-0.1809,-0.2029,-0.2524,-0.2117,-0.1757,-0.155,-0.0963,-0.0632,-0.0632,0.0368,0.1114,0.0,0.0,0.0,0.0,0.0,0.0,0.0,0.0,0.0,0.0,0.0,0.0,0.0,0.0,0.0,0.0,0.0,0.0,0.0,0.0,0.0,0.0,0.4975,0.5412,0.6447,0.7022,0.7616,0.8352,0.8745,0.9131,0.9553,0.4788,-0.1054,-0.761,-0.8237,-0.8594,-0.9213,-0.9813,-1.0208,-1.0347,-1.1074,-1.1656,-1.2022,-1.2654,-1.3235,-1.3764,-1.3915,-1.3643,-1.299,-1.2606,-1.1545,-0.998,-0.9729,-0.9207,-0.8623,-0.9162,-0.9389,-0.9508,0.0,0.0,0.0,0.0,-1.0829,-1.022,-0.9522,-0.8973,-0.8523,-0.8176,-0.7889,-0.7695,-0.7695,-0.787,-0.8119,-0.8495,-0.8623,-0.8778,-0.9093,-0.8623,-0.7942,-0.754,-0.6691,-0.5807,-0.5311,-0.4593,-0.3965,-0.3697,-0.3469,0.0,-0.2268,-0.2294,-0.2392,-0.2277,-0.219,-0.2153,-0.2269,-0.2136,-0.1964,-0.1809,-0.1809,-0.1791,-0.1798,-0.1452,0.0,0.0,0.0,-0.1116,-0.0684,-0.0207,0.0,0.0,0.0,0.0,0.0,0.0,0.0,0.0,0.1363,0.1256,0.0,0.0,0.0,0.0,0.0,0.0,0.0,0.0,0.0,0.0,0.0,0.0,0.0,0.0,0.0,0.0,0.5103,0.5815,0.6893,0.7293,0.7584,0.7866,0.8924,0.9613,0.9601,0.4319,-0.1728,-0.81,-0.8922,-0.9287,-0.959,-1.0367,0.0,0.0,0.0,-1.251,-1.3238,-1.3553,-1.3926,-1.4343,-1.415,-1.3641,-1.2807,-1.1591,-1.0504,-0.9564,-0.8896,-0.8417,-0.8127,-0.8473,-0.8657,-0.8876,-1.0425,-1.1019,-1.1005,-1.0874,-1.0488,-0.9943,-0.9243,0.0,0.0,-0.7841,-0.7695,-0.7695,-0.7695,-0.7725,-0.7841,-0.8138,-0.8013,-0.782,-0.8076,-0.7531,-0.6831,-0.6427,-0.5692,-0.5035,-0.4991,-0.405,-0.3429,-0.4091,-0.3245,-0.2117,-0.1305,-0.2076,-0.2653,-0.2221,-0.2074,-0.2089,-0.2311,-0.2027,-0.1779,-0.1708,-0.1693,0.0,-0.1798,-0.1314,-0.0882,-0.061,-0.0363,-0.0057,0.0339,0.0568,0.0926,0.1443,0.2204,0.2595,0.255,0.2892,0.2742,0.2192,0.1643,0.1539,0.0,0.0,0.0,0.0,0.0,0.0,0.0,0.0,0.0,0.0,0.0,0.0,0.0,0.0,0.0,0.5659,0.573,0.6059,0.7243,0.7726,0.8113,0.849,0.926,0.9714,0.9615,0.4319,-0.1847,-0.8495,-0.8922,-0.912,-0.9654,-1.0051,-1.0664,-1.1565,-1.2282,-1.2902,-1.3444,-1.4147,-1.432,-1.3989,-1.3838,0.0,-1.1836,-1.1109,-1.0123,-0.8919,-0.7816,-0.7163,-0.6866,-0.7212,-0.7741,-0.8385,-0.9043,-0.9283,-0.9283,-0.9271,-0.9165,-0.9027,-0.8601,-0.8372,-0.8233,-0.7841,-0.7695,-0.7695,-0.7695,-0.7928,0.0,-0.7898,-0.7954,-0.8047,-0.7799,-0.7125,-0.6427,-0.6005,-0.5028,-0.4071,-0.3732,-0.3233,-0.2856,-0.2992,-0.1671,-0.0468,-0.0267,-0.101,-0.1837,-0.2481,-0.2328,-0.2095,-0.1925,-0.1838,-0.1607,-0.1133,-0.107,-0.1274,-0.1753,-0.1683,-0.0802,0.1156,0.1779,0.1806,0.127,0.2003,0.2387,0.2346,0.2519,0.2488,0.228,0.2561,0.2524,0.2199,0.1961,0.1899,0.0,0.0,0.0,0.0,0.0,0.0,0.0,0.0,0.0,0.0,0.0,0.354,0.4013,0.0,0.4631,0.5764,0.5727,0.5972,0.7174,0.7751,0.8246,0.8782,0.936,0.9684,0.9613,0.4832,-0.0711,-0.6651,-0.7928,-0.8531,-0.8739,-1.0136,-1.1302,-1.2084,-1.279,-1.3415,-1.3991,-1.4305,-1.4271,-1.3881,-1.3462,-1.2569,-1.1322,-1.011,-0.8939,-0.7826,-0.6627,-0.6021,-0.5853,-0.6013,-0.6337,-0.6703,-0.691,-0.7483,-0.8178,-0.797,-0.7885,-0.7866,-0.7521,-0.7413,-0.7355,-0.7157,-0.7225,-0.7403,-0.7403,-0.7549,-0.7656,-0.7443,-0.7218,-0.6993,-0.6815,-0.6136,-0.5397,-0.4998,-0.4279,-0.3556,-0.3109,-0.2856,-0.2423,-0.154,-0.0635,0.03,0.1204,0.098,0.0352,-0.0736,-0.0942,-0.1051,-0.1173,-0.1276,-0.1338,-0.1341,-0.0804,-0.0327,-0.0022,0.0,0.0612,0.2014,0.2388,0.2476,0.23,0.2755,0.3008,0.3042,0.3046,0.2919,0.2651,0.2782,0.2715,0.2447,0.2649,0.2604,0.0,0.0,0.0,0.0,0.0,0.0,0.0,0.291,0.2969,0.3376,0.3696,0.3955,0.4079,0.4428,0.4909,0.5553,0.552,0.5787,0.6857,0.7415,0.7937,0.8551,0.913,0.9343,0.9016,0.501,0.0474,-0.4267,-0.6347,-0.7535,-0.7808,-1.0039,-1.1703,-1.26,-1.329,-1.3922,-1.4534,-1.4167,-1.3888,-1.3686,-1.2769,-1.1856,-1.0855,-0.8977,-0.7814,-0.72,-0.57,-0.4922,-0.4715,-0.4834,-0.4966,-0.5085,-0.4998,-0.5754,-0.6869,-0.6712,-0.6661,-0.6602,-0.6334,-0.6289,-0.6358,-0.6358,-0.6661,-0.699,-0.699,-0.699,-0.6969,-0.688,-0.6397,-0.5851,-0.5696,-0.5068,-0.4377,-0.3993,-0.3611,-0.3121,-0.235,-0.2183,-0.1742,-0.0267,0.03,0.1003,0.2456,0.2696,0.2387,0.1406,0.0929,0.0527,0.0093,-0.0266,-0.0669,-0.1134,-0.0337,0.0626,0.1539,0.1795,0.2045,0.2377,0.2526,0.2778,0.3153,0.3239,0.3345,0.3563,0.3527,0.3398,0.3188,0.3231,0.3167,0.2972,0.3448,0.3383,0.6004,0.4827,0.3901,0.3923,0.3575,0.3408,0.0,0.4019,0.3862,0.4277,0.4153,0.4079,0.4388,0.459,0.4872,0.5428,0.5502,0.5679,0.623,0.6507,0.6836,0.7266,0.8302,0.8384,0.69,0.3756,0.0501,-0.2641,-0.4139,-0.5776,-0.7794,-0.8911,-1.0706,-1.3394,-1.3884,-1.4307,-1.467,-1.3704,-1.3108,-1.2905,-1.1437,-1.0593,-1.0213,-0.8132,-0.7579,-0.8178,-0.5592,-0.3916,-0.3002,-0.3486,-0.4081,-0.4636,-0.4285,-0.4253,-0.4483,-0.5148,-0.5384,-0.5384,-0.5359,-0.5583,-0.5868,-0.5868,-0.619,-0.6579,-0.6579,-0.6579,-0.648,-0.6121,-0.5975,-0.5727,-0.4947,-0.4409,-0.3993,-0.3649,-0.3158,-0.2317,-0.0668,-0.0301,-0.0234,-0.0033,0.1305,0.2456,0.2663,0.269,0.2653,0.2523,0.2444,0.2398,0.2332,0.1578,0.1028,0.0961,0.1082,0.1126,0.0999,0.1819,0.2355,0.2399,0.3025,0.3395,0.3452,0.3696,0.3828,0.3848,0.3626,0.3494,0.3454,0.375,0.3878,0.3855,0.4153,0.3987,0.572,0.5251,0.4854,0.4123,0.3946,0.3994,0.4127,0.4019,0.4009,0.4414,0.4388,0.4415,0.4785,0.4771,0.4866,0.5423,0.5233,0.527,0.5943,0.6118,0.6344,0.6707,0.72,0.7344,0.6965,0.4646,0.2246,0.0069,-0.2287,-0.4039,-0.5005,-0.7911,-1.0015,-1.1056,-1.2969,-1.3777,-1.3371,-1.3073,-1.2715,-1.2259,-1.0948,-1.0063,-0.949,-0.7712,-0.596,-0.4247,-0.3106,-0.2626,-0.2732,-0.2952,-0.2907,-0.2718,-0.3113,-0.2911,-0.256,-0.3782,-0.4445,-0.4724,-0.4552,-0.4568,-0.4649,-0.4816,-0.5221,-0.5664,-0.5875,-0.5924,-0.592,-0.5903,-0.554,-0.5068,-0.4692,-0.4156,-0.3536,-0.2787,-0.1864,-0.0936,-0.0167,0.0836,0.1573,0.1573,0.2183,0.2696,0.269,0.2911,0.2973,0.2719,0.2686,0.269,0.2696,0.2371,0.211,0.2099,0.2122,0.2153,0.2219,0.2617,0.2972,0.3261,0.3786,0.4053,0.403,0.4349,0.4428,0.4197,0.4083,0.3947,0.3802,0.4089,0.4153,0.3998,0.4432,0.45,0.5545,0.5411,0.521,0.4295,0.4277,0.4424,0.4137,0.4156,0.4307,0.4609,0.466,0.4718,0.4903,0.4818,0.4797,0.5074,0.4819,0.4797,0.5375,0.5507,0.5653,0.5965,0.6065,0.6292,0.6756,0.5226,0.3575,0.2063,-0.0379,-0.2095,-0.2748,-0.6425,-0.9013,-1.013,-1.2164,-1.2953,-1.2335,-1.2173,-1.1856,-1.1421,-1.0125,-0.9317,-0.8862,-0.6394,-0.395,-0.1644,-0.09,-0.1101,-0.1986,-0.2496,-0.2138,-0.1403,-0.2337,-0.2125,-0.1467,-0.2778,-0.3552,-0.3855,-0.3424,-0.335,-0.3539,-0.3805,-0.4279,-0.4814,-0.5049,-0.5139,-0.5225,-0.5386,-0.5051,-0.4588,-0.435,-0.3667,-0.275,-0.1692,-0.0463,0.0599,0.0899,0.2139,0.3158,0.3055,0.3055,0.3051,0.3043,0.3298,0.3397,0.3105,0.3043,0.2977,0.2726,0.2693,0.2751,0.2854,0.2841,0.3016,0.3501,0.3569,0.3786,0.4235,0.4562,0.472,0.4671,0.4851,0.4807,0.4501,0.4429,0.4329,0.4217,0.4407,0.4501,0.4525,0.4798,0.5128,0.5754,0.5084,0.429,0.4441,0.4492,0.4502,0.4482,0.4777,0.5078,0.5088,0.5088,0.4971,0.459,0.4622,0.4589,0.4194,0.4236,0.4325,0.4345,0.4345,0.4446,0.4726,0.4982,0.525,0.5531,0.4734,0.374,0.2661,0.1695,0.0172,-0.2109,-0.4144,-0.7402,-1.2159,-1.2009,-1.1961,-1.22,-1.0934,-1.0275,-1.0226,-0.8552,-0.8036,-0.8345,-0.3563,-0.1835,-0.2505,0.0099,0.0731,-0.0202,-0.196,-0.2157,-0.1406,-0.2347,-0.2121,-0.1435,-0.2381,-0.2727,-0.2612,-0.1709,-0.1987,-0.2766,-0.3063,-0.3578,-0.4118,-0.4148,-0.4295,-0.4403,-0.4286,-0.4479,-0.4533,-0.3721,-0.2702,-0.1557,-0.0337,0.0863,0.2057,0.3142,0.3911,0.4275,0.3999,0.3961,0.3961,0.3961,0.3961,0.3961,0.3961,0.3961,0.3663,0.2812,0.2712,0.2841,0.3253,0.3158,0.3432,0.4292,0.4489,0.473,0.513,0.5298,0.5365,0.5365,0.4999,0.4807,0.4781,0.4527,0.4515,0.4765,0.4794,0.5141,0.5822,0.5477,0.5898,0.5314,0.5151,0.4965,0.4583,0.4699,0.4903,0.4903,0.4796,0.4699,0.4699,0.4564,0.4401,0.4263,0.4059,0.3982,0.4193,0.3832,0.3685,0.422,0.4313,0.4406,0.4666,0.4942,0.5194,0.5473,0.4722,0.4055,0.3689,0.3223,0.2215,0.0484,-0.1701,-0.3298,-0.4149,-0.8797,-1.0926,-1.0218,-0.997,-0.9526,-0.884,-0.6035,-0.4334,-0.3599,-0.1395,0.0709,0.2567,0.1687,0.0794,0.0,0.0209,0.07,0.1285,0.0583,0.0482,0.0708,0.0416,0.0301,0.0222,-0.0113,-0.0542,-0.0996,-0.1499,-0.208,-0.2713,-0.3504,-0.3802,-0.3922,-0.4234,-0.3478,-0.2411,-0.1739,-0.0797,0.0249,0.1226,0.2777,0.4001,0.3863,0.4215,0.4436,0.4053,0.3993,0.3993,0.3993,0.4215,0.4409,0.4409,0.4183,0.3891,0.3597,0.3565,0.363,0.3761,0.3971,0.432,0.4876,0.5211,0.5594,0.6021,0.611,0.6012,0.5743,0.5613,0.5414,0.5126,0.5043,0.5181,0.5544,0.5544,0.5801,0.6305,0.6152,0.6183,0.5163,0.512,0.5066,0.4792,0.4987,0.5175,0.4941,0.4758,0.457,0.4339,0.4261,0.4198,0.4051,0.3893,0.3858,0.405,0.3607,0.3465,0.4078,0.415,0.4293,0.4646,0.4765,0.503,0.5595,0.5127,0.4811,0.4809,0.4756,0.4721,0.4733,0.188,0.0473,0.0977,-0.4039,-0.7496,-0.9036,-0.8973,-0.8441,-0.7393,-0.377,-0.1453,-0.0289,0.1402,0.3151,0.4755,0.3122,0.1909,0.1137,0.161,0.2265,0.2961,0.2463,0.235,0.2447,0.2436,0.243,0.233,0.1687,0.1385,0.1171,0.034,-0.0305,-0.0928,-0.1982,-0.2305,-0.2366,-0.274,-0.172,-0.032,0.0693,0.1966,0.3125,0.3735,0.4784,0.5488,0.4794,0.4979,0.5199,0.4928,0.4897,0.4897,0.4897,0.5004,0.5011,0.4858,0.4756,0.4532,0.4058,0.4118,0.4269,0.4398,0.4909,0.5483,0.606,0.6328,0.6655,0.711,0.6878,0.654,0.6141,0.5982,0.5703,0.5316,0.5309,0.5491,0.5913,0.5913,0.6183,0.6721,0.6579,0.6427,0.5353,0.5048,0.4658,0.502,0.531,0.533,0.4669,0.4707,0.4681,0.4014,0.4186,0.4336,0.3931,0.407,0.4134,0.3746,0.357,0.357,0.3869,0.3911,0.4109,0.4626,0.4504,0.4793,0.5841,0.5929,0.5951,0.6012,0.6379,0.7678,1.0154,0.6512,0.3967,0.3175,0.1734,-0.2024,-0.8278,-0.7662,-0.678,-0.5744,-0.1703,0.0664,0.1607,0.472,0.5356,0.4058,0.4269,0.3908,0.3075,0.2226,0.255,0.3558,0.3255,0.3334,0.3612,0.3648,0.368,0.3693,0.3683,0.3678,0.3444,0.2293,0.169,0.1286,0.0489,0.0222,0.0219,0.0379,0.0983,0.1932,0.3606,0.5441,0.6866,0.6982,0.6824,0.652,0.6044,0.6289,0.657,0.657,0.654,0.651,0.651,0.6183,0.5797,0.5435,0.5672,0.5477,0.4248,0.4456,0.4884,0.5262,0.6021,0.6831,0.7618,0.7715,0.7898,0.8262,0.7501,0.6901,0.6518,0.6121,0.5734,0.534,0.534,0.5554,0.5975,0.5975,0.6366,0.7118,0.6721,0.6721,0.567,0.56,0.54,0.5166,0.531,0.5359,0.4782,0.4596,0.4347,0.3677,0.3691,0.3711,0.3297,0.3482,0.3665,0.3565,0.3364,0.3371,0.3832,0.4068,0.4333,0.4666,0.5121,0.5711,0.643,0.6356,0.6666,0.7623,0.8594,0.9855,1.1453,1.0712,0.9549,0.8051,0.3964,0.0507,-0.2215,-0.2939,-0.2699,-0.1515,0.1782,0.4077,0.5463,0.6114,0.5859,0.4865,0.4344,0.3933,0.358,0.2984,0.3001,0.3378,0.344,0.3698,0.4047,0.417,0.4487,0.487,0.4862,0.469,0.4271,0.3409,0.3639,0.4228,0.402,0.3331,0.3113,0.5571,0.6235,0.6521,0.8016,0.8567,0.8703,0.838,0.861,0.8662,0.7904,0.7743,0.7666,0.7366,0.7064,0.6857,0.6857,0.6584,0.6305,0.6213,0.6275,0.6121,0.5501,0.5991,0.6422,0.6512,0.7251,0.7713,0.7705,0.7984,0.8052,0.787,0.7098,0.6609,0.6518,0.6121,0.5851,0.5734,0.6037,0.6397,0.6781,0.6781,0.7068,0.753,0.7127,0.699,0.5852,0.5803,0.5695,0.5215,0.531,0.533,0.4738,0.4691,0.4553,0.3885,0.404,0.4143,0.3615,0.3793,0.3962,0.3787,0.3483,0.3545,0.4324,0.4366,0.4575,0.5268,0.5518,0.5906,0.6662,0.6749,0.7153,0.8098,0.9592,1.0878,1.1871,1.2568,1.2219,1.0672,0.6848,0.3644,0.1167,0.0845,0.0969,0.1534,0.4904,0.678,0.7235,0.7205,0.667,0.5722,0.47,0.4143,0.3912,0.3362,0.3321,0.3698,0.3867,0.425,0.4717,0.5028,0.5524,0.6066,0.6565,0.6818,0.6737,0.5199,0.5272,0.6058,0.6337,0.6193,0.6426,0.8812,0.9257,0.9271,1.0316,1.065,1.0647,1.0426,1.0642,1.0684,0.9988,0.9776,0.9615,0.9208,0.8782,0.8359,0.795,0.7558,0.7217,0.7029,0.715,0.718,0.6934,0.7141,0.7376,0.7502,0.8263,0.8574,0.822,0.8372,0.8365,0.7976,0.7373,0.6948,0.676,0.6548,0.6336,0.616,0.6397,0.6691,0.7109,0.7109,0.7305,0.7695,0.7471,0.7377,0.5999,0.5891,0.5742,0.5234,0.526,0.5258,0.4659,0.4856,0.4964,0.4355,0.4765,0.5005,0.4292,0.4457,0.4566,0.4182,0.382,0.3966,0.5001,0.4727,0.485,0.6065,0.5808,0.5888,0.6804,0.7118,0.7545,0.8232,0.9981,1.12,1.1696,1.2927,1.2903,1.1397,0.925,0.6666,0.3661,0.4309,0.4593,0.4508,0.7712,0.882,0.8039,0.8096,0.7578,0.655,0.5304,0.4581,0.4237,0.3721,0.3912,0.4587,0.4805,0.5343,0.5975,0.6556,0.7093,0.7712,0.8672,0.9564,0.9879,0.7411,0.7059,0.7729,0.823,0.89,0.9775,1.1041,1.1176,1.1098,1.1755,1.2273,1.268,1.2805,1.2755,1.2603,1.2134,1.1935,1.1735,1.1318,1.0881,1.0278,0.9425,0.888,0.8428,0.7949,0.8205,0.8449,0.8413,0.8114,0.8039,0.8329,0.9023,0.9316,0.8926,0.8844,0.8651,0.8308,0.786,0.7471,0.7118,0.7109,0.6931,0.6579,0.6639,0.682,0.7178,0.7178,0.7373,0.7695,0.7695,0.7734,0.6416,0.6299,0.6113,0.5302,0.5054,0.4939,0.4725,0.4768,0.4766,0.4439,0.4895,0.508,0.4125,0.4311,0.4514,0.4229,0.4131,0.4392,0.5314,0.5165,0.5264,0.6107,0.6209,0.6562,0.7368,0.7565,0.8212,0.9704,1.0847,1.1441,1.1315,1.2753,1.2357,0.9638,0.7983,0.7773,0.9116,0.8788,0.9112,1.0085,1.0045,0.9931,0.9742,0.8617,0.7804,0.7262,0.6104,0.5209,0.466,0.5329,0.5889,0.6442,0.7306,0.8236,0.9194,0.989,1.0517,1.111,1.157,1.1964,1.1976,0.9923,1.02,1.1284,1.0911,1.1413,1.2405,1.3694,1.3712,1.3649,1.479,1.5066,1.5008,1.4965,1.467,1.4275,1.3869,1.3165,1.2498,1.2084,1.1724,1.13,1.0753,1.035,0.993,0.9329,0.9551,0.9718,0.9544,0.9269,0.9116,0.917,0.9581,0.9659,0.9316,0.8981,0.8651,0.8308,0.7598,0.7178,0.7118,0.7109,0.7059,0.699,0.7314,0.7539,0.7598,0.7598,0.7627,0.7705,0.7748,0.7953,0.6482,0.6334,0.6225,0.5492,0.4995,0.4806,0.5219,0.5169,0.5072,0.5298,0.5711,0.5775,0.4945,0.5027,0.511,0.4775,0.4778,0.5077,0.5767,0.5502,0.5689,0.6836,0.6827,0.7118,0.8138,0.8255,0.8826,1.0117,1.1228,1.1884,1.1923,1.2361,1.1709,0.9742,0.8992,0.9054,0.9987,1.0034,1.0427,1.1139,1.0856,1.0373,0.9764,0.9233,0.8464,0.756,0.6589,0.6153,0.6181,0.6598,0.7386,0.8443,0.9348,1.0324,1.1308,1.2189,1.2865,1.3402,1.4066,1.4709,1.5081,1.4154,1.3782,1.3728,1.3766,1.44,1.5165,1.5782,1.582,1.5825,1.6419,1.6407,1.6208,1.6188,1.5864,1.5545,1.5339,1.4811,1.4241,1.3779,1.3367,1.2957,1.2481,1.2038,1.164,1.1321,1.1402,1.1395,1.1078,1.0699,1.0313,0.9957,0.9919,0.9686,0.9143,0.8899,0.8568,0.8033,0.7618,0.7412,0.7412,0.7412,0.7412,0.7412,0.7598,0.7695,0.7695,0.7695,0.7654,0.7587,0.7957,0.8276,0.641,0.6229,0.614,0.5631,0.4934,0.4637,0.5657,0.5473,0.5297,0.6122,0.6488,0.6474,0.5817,0.5836,0.5801,0.5391,0.5495,0.5768,0.6212,0.5922,0.6219,0.7708,0.7406,0.7609,0.9036,0.9058,0.9445,1.0511,1.171,1.2546,1.2883,1.2191,1.1396,1.0518,1.0352,1.0221,1.0135,1.063,1.1093,1.154,1.1612,1.1038,0.9936,0.9903,0.9171,0.7869,0.7249,0.7357,0.7988,0.8348,0.9508,1.1118,1.1913,1.2725,1.3599,1.4524,1.5124,1.5581,1.6391,1.7239,1.7946,1.7978,1.7024,1.5967,1.6475,1.7079,1.7541,1.7541,1.747,1.7409,1.7409,1.7174,1.6892,1.6815,1.6528,1.6301,1.6301,1.6039,1.5668,1.5195,1.4803,1.4418,1.3956,1.3517,1.3195,1.3025,1.3039,1.2914,1.2482,1.198,1.1469,1.096,1.0289,0.9659,0.9089,0.8899,0.854,0.7976,0.7783,0.7695,0.7695,0.7695,0.7695,0.7695,0.7695,0.7744,0.7841,0.7841,0.7831,0.7837,0.8398,0.8755,0.6326,0.6039,0.5787,0.5559,0.4718,0.4296,0.5609,0.5261,0.5013,0.6303,0.6731,0.6707,0.6161,0.6211,0.621,0.5803,0.6052,0.6367,0.6541,0.6527,0.6997,0.8359,0.7794,0.8074,1.0137,0.9903,1.0233,1.1729,1.2792,1.3514,1.3841,1.2711,1.1878,1.1465,1.0816,1.1041,1.2207,1.2104,1.2673,1.3877,1.3368,1.2602,1.1637,1.063,0.9578,0.8601,0.8536,0.8855,0.9544,1.1306,1.3233,1.513,1.5823,1.6475,1.7126,1.7825,1.8185,1.837,1.8703,1.9076,1.943,1.9562,1.916,1.8638,1.8721,1.8845,1.9016,1.9016,1.8573,1.8107,1.8107,1.7676,1.7175,1.6866,1.6528,1.6301,1.6301,1.6039,1.5668,1.5195,1.5059,1.4923,1.4481,1.4373,1.4211,1.3692,1.3813,1.3797,1.3277,1.2828,1.2568,1.2513,1.0952,0.988,0.979,0.9197,0.8761,0.8706,0.808,0.7695,0.7695,0.7695,0.7695,0.7695,0.7695,0.792,0.8352,0.8352,0.8503,0.8887,0.9301,0.9515,0.6276,0.6115,0.6024,0.5937,0.5051,0.4569,0.5999,0.5587,0.5261,0.6516,0.6947,0.7028,0.6799,0.6834,0.6789,0.6519,0.6695,0.6717,0.6243,0.6603,0.7161,0.7851,0.8369,0.9245,1.0673,1.1038,1.1734,1.298,1.3868,1.4374,1.4426,1.3315,1.2673,1.2569,1.2397,1.2621,1.3288,1.3352,1.3733,1.437,1.3649,1.2852,1.2006,1.1327,1.0531,0.9616,0.9939,1.0439,1.1147,1.2526,1.4279,1.6148,1.6815,1.766,1.8577,1.9087,1.932,1.9421,1.9753,1.9966,2.0082,2.0131,1.993,1.9668,1.9668,1.9613,1.9529,1.9458,1.8961,1.8393,1.8197,1.7574,1.6968,1.6841,1.6528,1.6301,1.6301,1.6039,1.5784,1.5811,1.5824,1.5853,1.5879,1.5709,1.5519,1.5294,1.518,1.4863,1.4124,1.3611,1.3099,1.2577,1.1232,1.0192,0.9765,0.9372,0.8965,0.8523,0.8223,0.8062,0.8062,0.8099,0.8115,0.8115,0.8369,0.8584,0.875,0.875,0.8795,0.8875,0.937,0.9581,0.6241,0.6166,0.6131,0.6187,0.5409,0.4989,0.6374,0.5999,0.5673,0.6859,0.7221,0.7318,0.7318,0.7396,0.7381,0.0,0.0,0.7056,0.653,0.6857,0.7373,0.8002,0.8881,0.9934,1.1266,1.2173,1.3077,1.3961,1.4563,1.4855,1.4762,1.4033,1.3538,1.3404,1.3602,1.3811,1.4048,1.423,1.4437,1.4676,1.3904,1.3091,1.2279,1.1964,1.132,1.0475,1.1147,1.1728,1.2301,1.3597,1.5107,1.6697,1.7557,1.8572,1.9585,1.9869,2.0005,2.0069,2.0316,2.0418,2.0429,2.0414,2.0266,2.0081,2.0049,1.9838,1.9587,1.9411,1.8806,1.8135,1.7808,1.7182,1.6659,1.6659,1.6409,1.6163,1.6274,1.6108,1.6067,1.6367,1.6448,1.6528,1.6763,1.6607,1.6394,1.6313,1.608,1.5682,1.4968,1.4433,1.3836,1.3102,1.2049,1.1065,1.0261,0.9848,0.9473,0.912,0.8867,0.8719,0.8719,0.861,0.8564,0.8564,0.8857,0.9062,0.9189,0.9189,0.919,0.9244,0.9628,0.9867,0.6189,0.6052,0.5948,0.6147,0.5693,0.5492,0.6632,0.6373,0.6218,0.7356,0.7605,0.7605,0.7605,0.7868,0.7965,0.7562,0.739,0.7414,0.7731,0.7438,0.7764,0.9304,0.9194,0.9868,1.2082,1.3257,1.4075,1.4557,1.4787,1.4905,1.4908,1.4829,1.4513,1.391,1.4101,1.4352,1.469,1.4622,1.4759,1.5095,1.4416,1.3595,1.2686,1.249,1.1871,1.1052,1.2057,1.256,1.2835,1.4786,1.6182,1.7233,1.8566,1.9617,2.039,2.0383,2.048,2.0565,2.0441,2.0438,2.0482,2.0425,2.0266,2.0084,1.9935,1.9582,1.9151,1.8888,1.8093,1.7248,1.6917,1.6554,1.6301,1.6301,1.6067,1.5913,1.6219,1.6301,1.6394,1.6738,1.6789,1.6789,1.6789,1.6789,1.6686,1.6355,1.6301,1.6163,1.5827,1.5389,1.4937,1.4519,1.3583,1.2612,1.1643,1.0729,1.0397,1.0953,1.0144,0.9699,0.9699,0.9255,0.9004,0.9004,0.9004,0.9209,0.9592,0.9592,0.9853,1.0273,1.0273,1.0534,0.6418,0.6283,0.6201,0.6579,0.6244,0.6038,0.6913,0.6769,0.6686,0.7548,0.7839,0.798,0.8119,0.8303,0.8326,0.7979,0.8024,0.7981,0.7572,0.801,0.8476,0.8769,1.0291,1.2049,1.3895,1.4506,1.4822,1.4922,1.5137,1.5181,1.5046,1.5023,1.4889,1.4582,1.4648,1.4781,1.497,1.4943,1.4984,1.51,1.4651,1.418,1.3732,1.3705,1.3461,1.3088,1.3728,1.3992,1.4071,1.5017,1.62,1.7497,1.8058,1.9177,2.0462,2.0526,2.0539,2.0536,2.048,2.0425,2.0347,2.0237,2.006,1.9863,1.9736,1.9462,1.9089,1.8534,1.7996,1.7459,1.6926,1.6712,1.6581,1.634,1.6394,1.6501,1.6607,1.6793,1.702,1.7349,1.7563,1.7698,1.7766,1.7568,1.7223,1.6722,1.6448,1.6065,1.5418,1.5195,1.4845,1.4149,1.344,1.2644,1.1809,1.1382,1.1106,1.102,1.0739,1.057,1.057,1.0186,0.9953,0.9953,0.991,0.9941,1.0078,1.0078,1.0328,1.0791,1.1132,1.1404,0.6781,0.6702,0.6642,0.6934,0.6763,0.6663,0.7233,0.7229,0.7277,0.7806,0.8077,0.828,0.8434,0.8622,0.8688,0.8481,0.8421,0.8359,0.8176,0.8503,0.8948,0.9489,1.1427,1.3189,1.4409,1.4833,1.5079,1.5171,1.5291,1.5315,1.5183,1.5175,1.5144,1.5044,1.5022,1.5046,1.5136,1.519,1.5219,1.5216,1.4877,1.4606,1.4426,1.4459,1.4411,1.4285,1.4719,1.4837,0.0,1.5488,1.6474,1.7638,1.8169,1.9244,2.0477,2.0547,2.0539,2.0484,2.0438,2.0352,2.0211,2.0104,1.9915,1.9676,1.9438,1.9193,1.8824,1.8073,1.7704,1.7459,1.7052,1.6944,1.6928,1.6821,1.6946,1.7134,1.7254,1.7409,1.7642,1.7975,1.818,1.8278,1.8208,1.7924,1.7489,1.6876,1.6501,1.6065,1.5433,1.5359,1.5104,1.4438,1.3862,1.3287,1.2634,1.2171,1.1883,1.1814,1.1664,1.1566,1.1566,1.1147,1.0924,1.0924,1.0882,1.0764,1.0572,1.0572,1.084,1.1319,1.1627,1.1884,0.0,0.7227,0.7195,0.7227,0.7242,0.7318,0.7575,0.7739,0.0,0.8088,0.8293,0.846,0.8611,0.885,0.9039,0.9029,0.8681,0.8668,0.9415,0.9102,0.9472,1.1281,1.2535,1.3455,1.3949,1.4519,1.4968,1.5273,1.5291,1.5296,1.5296,1.5302,1.5304,1.5304,1.5231,1.5209,1.5201,1.5329,1.5397,1.5377,1.5063,1.4883,1.483,1.4814,1.4775,1.4743,1.5054,1.5115,1.5064,1.608,1.6929,1.7715,1.878,1.9694,2.0409,2.0487,2.0506,2.0477,2.0332,2.0192,2.0076,2.0012,1.979,1.9499,1.9119,1.8807,1.8432,1.7614,1.7375,1.7351,1.7292,1.7299,1.7353,1.7591,1.7662,1.7766,1.8066,1.8148,1.8266,1.8567,1.8641,1.8547,1.827,1.7924,1.7489,1.6876,1.6501,1.6163,1.5856,1.5799,1.561,1.5165,1.4752,1.4342,1.3934,1.3006,1.2659,1.3173,1.2791,1.2544,1.2544,1.2102,1.1847,1.1847,1.1811,1.1542,1.1057,1.1094,1.1356,1.1847,1.1884,1.2138,0.7937,0.0,0.7273,0.7577,0.7651,0.7709,0.0,0.8133,0.8322,0.8513,0.8627,0.8779,0.9019,0.9269,0.9418,0.9332,0.9388,0.9717,1.0514,1.1259,1.2127,1.3222,1.3635,1.4124,1.4898,1.5149,1.5273,1.5293,1.5291,1.5296,1.5296,1.5298,1.531,1.531,1.5289,1.5292,1.5348,1.5327,1.5273,1.5173,1.5133,1.5096,1.5029,1.4972,1.497,1.5004,1.498,1.4954,1.4993,1.596,1.6831,1.7715,1.878,1.9694,2.0409,2.0487,2.0472,2.0395,2.0199,2.0096,1.9993,1.9774,1.955,1.932,1.9086,1.8807,1.8566,1.8353,1.8149,1.7963,1.7915,1.8083,1.822,1.8045,1.8255,1.8519,1.8494,1.8717,1.8942,1.8913,1.8914,1.8807,1.8547,1.8073,1.7489,1.6876,1.6501,1.6163,1.5856,1.5799,1.561,1.5165,1.4752,1.4342,1.3934,1.3365,1.306,1.3185,1.3094,1.306,1.306,1.2579,1.233,1.233,1.1993,1.1737,1.1627,1.1982,1.221,1.2354,1.2685,1.2943,0.8371,0.8075,0.781,0.8022,0.8079,0.8118,0.8287,0.8452,0.8639,0.8801,0.8928,0.9094,0.9296,0.951,0.9625,0.9591,0.9781,1.0225,1.1072,1.2426,1.3515,1.3985,1.4401,1.4834,1.5299,1.5351,1.5347,1.5348,1.5321,1.5296,1.5296,1.5292,1.5301,1.5301,1.5295,1.5323,1.535,1.5325,1.5257,1.5186,1.5238,1.5223,1.5186,1.5086,1.5075,1.5145,1.4976,1.4944,1.5125,1.6387,1.7214,1.7838,1.9206,2.0029,2.0394,2.0435,2.0363,2.0249,2.0111,1.9955,1.9767,1.955,1.938,1.9289,1.9277,1.9097,1.8842,1.866,1.855,1.8497,1.8574,1.8769,1.8955,1.8885,1.9018,1.9154,1.9079,1.9159,1.9191,1.9035,1.9002,1.8878,1.8489,1.789,1.7309,1.6876,1.6367,1.6011,1.5827,1.5799,1.5712,1.5448,1.5043,1.4596,1.4214,1.3769,1.3425,1.3198,1.3198,1.3198,1.3198,1.2943,1.2838,1.2838,1.2354,1.2246,1.2425,1.2461,1.2615,1.2838,1.3082,1.3198,0.8669,0.8604,0.8501,0.8467,0.845,0.8485,0.8615,0.8745,0.8911,0.9026,0.92,0.9376,0.9507,0.9644,0.9799,0.9987,1.0392,1.0937,1.1682,1.3222,1.4286,1.427,1.494,1.5394,1.5394,1.535,1.5331,1.5403,1.5331,1.5293,1.5292,1.5301,1.5307,1.5307,1.5281,1.5278,1.5278,1.5284,1.5284,1.5278,1.5278,1.5272,1.5251,1.5149,1.5114,1.5165,1.4976,1.5008,1.5299,1.6812,1.7568,1.7965,1.9577,2.0274,2.0409,2.0396,2.0261,2.0084,1.9993,1.9767,1.9527,1.938,1.9335,1.938,1.9582,1.9472,1.9213,1.8876,1.8839,1.8952,1.921,1.9379,1.9507,1.9731,1.9707,1.9623,1.9569,1.9438,1.9292,1.9052,1.8966,1.877,1.8211,1.758,1.7044,1.6773,1.6191,1.5799,1.5799,1.5799,1.5799,1.5799,1.5389,1.4937,1.4533,1.4117,1.3715,1.3232,1.3198,1.3198,1.3198,1.3198,1.3198,1.3198,1.2803,1.2791,1.3198,1.2803,1.2803,1.3198,1.3198,1.3198,0.8729,0.8835,0.8929,0.8712,0.8703,0.8745,0.8768,0.9002,0.9237,0.9257,0.9376,0.9516,0.964,0.9775,1.0131,1.0943,1.2322,1.3357,1.3492,1.4498,1.5186,1.5117,1.529,1.5394,1.5394,1.539,1.5388,1.5404,1.5331,1.5309,1.5295,1.5306,1.5295,1.5295,1.5241,1.5229,1.5229,1.5269,1.5245,1.5127,1.519,1.5151,1.5056,1.5023,1.5016,1.5028,1.4944,1.4989,1.5189,1.6176,1.7101,1.7975,1.8934,1.9745,2.0389,2.034,2.0212,2.0068,1.976,1.9523,1.9365,1.9513,1.9555,1.9582,1.9726,1.9743,1.9707,1.9638,1.946,1.9369,1.9645,1.9724,1.9731,1.9643,1.9707,1.9701,1.9409,1.9456,1.9442,1.9069,1.8807,1.8471,1.7885,1.7287,1.6747,1.6421,1.6067,1.5799,1.5799,1.5799,1.5799,1.5799,1.5389,1.4937,1.4533,1.4117,1.3715,1.3232,1.3198,1.3198,1.3198,1.3198,1.3198,1.3198,1.3129,1.3129,1.3198,1.3129,1.3129,1.3198,1.3198,1.3198,0.8936,0.9011,0.9078,0.9043,0.904,0.9104,0.9205,0.9359,0.9488,0.9599,0.9677,0.9727,0.9807,0.9891,1.0264,1.1242,1.2833,1.397,1.4004,1.4811,1.5377,1.5316,1.5368,1.5398,1.5351,1.538,1.5387,1.536,1.5314,1.5299,1.5303,1.5265,1.5245,1.5245,1.5212,1.5189,1.5189,1.5229,1.5229,1.5151,1.5189,1.5171,1.5121,1.5035,1.5035,1.5095,1.4966,1.503,1.5294,1.6546,1.7378,1.8019,1.9257,1.9981,2.0321,2.0115,1.9983,1.9915,1.9676,1.9591,1.9599,1.9676,1.9743,1.9798,1.9926,1.9964,1.9983,2.0056,1.9907,1.976,1.9882,1.9912,1.9901,1.9824,1.975,1.9656,1.9499,1.9368,1.9182,1.8843,1.8566,1.8252,1.7827,1.7375,1.6952,1.6607,1.6301,1.6011,1.5827,1.5799,1.5799,1.5799,1.5389,1.4937,1.4533,1.4117,1.3715,1.3232,1.3198,1.3198,1.3198,1.3198,1.3198,1.3198,1.3198,1.3198,1.3198,1.3198,1.3198,1.3198,1.3198,1.3198,0.9099,0.9139,0.9173,0.9081,0.9073,0.9153,0.9492,0.947,0.9458,0.9807,0.9881,0.9899,0.9922,1.0315,1.0887,1.1672,1.3201,1.4325,1.437,1.4979,1.5382,1.531,1.5352,1.5355,1.5292,1.534,1.5358,1.5303,1.5303,1.5293,1.5279,1.5224,1.5189,1.5189,1.5189,1.5189,1.5189,1.5189,1.5189,1.5189,1.5189,1.5201,1.5218,1.512,1.5139,1.5206,1.5055,1.5124,1.5439,1.6823,1.7605,1.8065,1.9498,2.0149,2.0263,1.9964,1.9847,1.9824,1.9695,1.9701,1.9821,1.9836,1.9886,1.9972,2.0123,2.0142,2.0171,2.027,2.0177,2.006,2.0022,1.9993,1.9974,1.9933,1.975,1.9601,1.9541,1.9246,1.8914,1.8642,1.8391,1.8082,1.7749,1.7392,1.7076,1.6738,1.6394,1.608,1.5827,1.5799,1.5799,1.5799,1.5477,1.5074,1.4533,1.4019,1.3581,1.3232,1.3198,1.3198,1.3198,1.3198,1.3198,1.3198,1.3198,1.3198,1.3198,1.3198,1.3198,1.3198,1.3198,1.3198,0.9129,0.9293,0.9294,0.8558,0.8378,0.8566,0.9328,0.907,0.8885,0.9656,0.9863,0.9916,0.9972,1.1369,1.2552,1.2671,1.4116,1.5201,1.5204,1.5327,1.5379,1.5319,1.5297,1.5302,1.5293,1.5296,1.5303,1.5291,1.5302,1.5275,1.5207,1.5195,1.5189,1.5189,1.5189,1.5189,1.5189,1.5189,1.5189,1.5189,1.5189,1.5229,1.5293,1.5289,1.528,1.5287,1.5284,1.5324,1.5469,1.6389,1.724,1.8086,1.8934,1.9698,2.027,2.0067,1.9993,1.9973,1.9824,1.9778,1.9813,1.9953,2.002,2.0119,2.0235,2.0294,2.0289,2.0304,2.0292,2.0241,2.006,1.9993,1.9943,1.9695,1.9609,1.9541,1.935,1.915,1.8914,1.8642,1.8391,1.8023,1.7439,1.7052,1.6712,1.6382,1.6067,1.5827,1.5799,1.5799,1.5799,1.5799,1.577,1.5418,1.4564,1.3735,1.3232,1.3198,1.3198,1.3198,1.3198,1.3198,1.3198,1.3198,1.3198,1.3198,1.3198,1.3198,1.3198,1.3198,1.3198,1.3198,0.9367,0.9447,0.9508,0.9234,0.8851,0.8612,0.8871,0.96,1.032,1.0664,1.1226,1.1483,1.0971,1.1878,1.2713,1.2733,1.4173,1.5303,1.5293,1.5326,1.5335,1.5311,1.531,1.5274,1.5245,1.5272,1.5287,1.524,1.5234,1.5224,1.5195,1.5189,1.5189,1.5189,1.5189,1.5189,1.5189,1.5189,1.5218,1.526,1.526,1.5275,1.5302,1.5295,1.53,1.5299,1.5336,1.568,1.6276,1.7109,1.7964,1.8817,1.96,2.0001,2.0164,2.003,1.9993,1.9984,1.9934,2.0002,2.0116,2.018,2.0204,2.0225,2.0283,2.0302,2.0301,2.0289,2.0299,2.0277,2.0205,2.0022,1.9847,1.975,1.9577,1.9368,1.915,1.8931,1.8678,1.841,1.8125,1.7883,1.7641,1.7502,1.724,1.6686,1.6501,1.6274,1.5841,1.5799,1.5799,1.5799,1.5551,1.5134,1.4564,1.3967,1.3648,1.3648,1.3357,1.3198,1.3198,1.3198,1.3198,1.3198,1.3198,1.3198,1.3198,1.3198,1.3198,1.3198,1.3198,1.3421,0.954,0.9609,0.965,0.9441,0.9238,0.9066,0.9053,0.9984,1.0931,1.1242,1.1834,1.2199,1.1872,1.2296,1.2781,1.3071,1.4334,1.5295,1.529,1.5297,1.5295,1.5275,1.5268,1.524,1.5201,1.524,1.522,1.5146,1.5177,1.5183,1.514,1.5177,1.5189,1.5189,1.5189,1.5189,1.5189,1.5218,1.5255,1.5298,1.5299,1.5315,1.5329,1.5338,1.5336,1.5327,1.5379,1.5891,1.6752,1.7595,1.8603,1.9693,2.0141,2.028,2.0199,2.012,2.0087,2.0087,2.0087,2.0169,2.0312,2.0312,2.0301,2.0307,2.0296,2.0308,2.0301,2.0224,2.0204,2.0197,2.0153,1.9981,1.9767,1.967,1.9419,1.9166,1.9018,1.8734,1.841,1.8229,1.7992,1.7811,1.7811,1.7704,1.7479,1.7027,1.6866,1.6581,1.6039,1.5955,1.5913,1.5799,1.5389,1.4982,1.4721,1.4214,1.3901,1.3901,1.3459,1.3198,1.3198,1.3198,1.3198,1.3198,1.3198,1.3198,1.3198,1.3198,1.3198,1.3198,1.3421,1.3697,0.9647,0.9754,0.971,0.8911,0.9312,0.9929,0.9998,1.0078,1.0359,1.1162,1.1374,1.1699,1.2546,1.27,1.2993,1.3861,1.474,1.5302,1.5298,1.5298,1.5275,1.5201,1.5189,1.5189,1.5189,1.5189,1.514,1.5002,1.5108,1.514,1.5021,1.5133,1.5189,1.5189,1.5195,1.5195,1.5195,1.527,1.5302,1.5302,1.5297,1.5334,1.5394,1.5394,1.5404,1.5391,1.541,1.5918,1.6777,1.7656,1.9043,2.0585,2.0444,2.041,2.0394,2.032,2.0312,2.0312,2.0312,2.0312,2.0312,2.0312,2.0294,2.0295,2.0304,2.0301,2.0257,2.0058,1.9993,1.9983,1.9836,1.9809,1.9707,1.9376,1.915,1.9002,1.8984,1.8566,1.8187,1.8187,1.7992,1.7811,1.7811,1.7526,1.7304,1.7296,1.7027,1.6686,1.634,1.6301,1.6163,1.5827,1.5389,1.5104,1.5104,1.4374,1.3901,1.3901,1.3459,1.3198,1.3198,1.3198,1.3198,1.3198,1.3198,1.3198,1.3198,1.3198,1.3198,1.3223,1.3833,1.4097,0.9812,0.9886,0.9895,0.9619,1.0258,1.0943,1.0917,1.1362,1.2224,1.372,1.3564,1.3247,1.3497,1.3581,1.3681,1.3899,1.471,1.5272,1.524,1.527,1.5275,1.5201,1.5189,1.5189,1.5189,1.5189,1.5183,1.514,1.5177,1.5183,1.514,1.5177,1.5189,1.5189,1.5245,1.527,1.527,1.5292,1.531,1.5373,1.5362,1.5389,1.5394,1.5394,1.5404,1.543,1.6055,1.6816,1.7734,1.9219,2.0137,2.0585,2.0444,2.041,2.0394,2.032,2.0312,2.0312,2.0312,2.0312,2.0312,2.0312,2.0308,2.0311,2.03,2.0289,2.0269,2.005,1.9993,1.9953,1.9732,1.9656,1.9591,1.9295,1.9097,1.8896,1.8508,1.831,1.8146,1.7949,1.7839,1.7811,1.7811,1.7704,1.7572,1.7344,1.7224,1.6952,1.6367,1.608,1.5913,1.5799,1.5668,1.558,1.558,1.5074,1.4627,1.4342,1.3934,1.3547,1.3198,1.3198,1.3198,1.3198,1.3198,1.3198,1.3198,1.3198,1.3433,1.3846,1.4009,1.45,0.9733,0.9749,0.9633,0.9915,1.0699,1.1555,1.2194,1.272,1.3453,1.4895,1.4516,1.4017,1.4343,1.4169,1.4068,1.4368,1.4883,1.5255,1.5207,1.5234,1.5245,1.5195,1.5189,1.5189,1.5189,1.5189,1.5177,1.5127,1.5177,1.5177,1.5127,1.5207,1.524,1.524,1.5283,1.5295,1.5295,1.5338,1.5362,1.5394,1.5394,1.5398,1.5404,1.5404,1.5408,1.5469,1.6699,1.7715,1.8613,2.0019,2.0605,2.0585,2.0444,2.041,2.0394,2.032,2.0312,2.0312,2.0312,2.0312,2.0312,2.0312,2.0312,2.0312,2.0312,2.0241,2.0143,1.9963,1.989,1.9778,1.955,1.9485,1.9438,1.9283,1.9115,1.8878,1.845,1.827,1.8125,1.7856,1.7811,1.7811,1.7811,1.7811,1.7726,1.7526,1.7272,1.7002,1.6747,1.6176,1.5856,1.5983,1.5885,1.5799,1.5799,1.5359,1.5013,1.4752,1.4374,1.4032,1.3735,1.3391,1.3198,1.3198,1.3198,1.3311,1.3559,1.3559,1.3835,1.4412,1.4639,1.5104,0.9525,0.9459,0.9094,0.9902,1.081,1.1945,1.3536,1.3953,1.4247,1.5036,1.4574,1.4266,1.5055,1.4561,1.4272,1.508,1.5207,1.5207,1.5195,1.522,1.522,1.5195,1.5189,1.5189,1.5189,1.5189,1.5146,1.5028,1.5133,1.5146,1.5023,1.5196,1.5302,1.5306,1.532,1.5302,1.5302,1.5368,1.5397,1.5397,1.5397,1.5405,1.5391,1.5391,1.5449,1.5605,1.7285,1.8496,1.9375,2.0234,2.0605,2.0585,2.0444,2.0406,2.039,2.032,2.0312,2.0312,2.0312,2.0312,2.0312,2.0312,2.0312,2.0312,2.0312,2.0161,1.9964,1.9836,1.9707,1.9555,1.935,1.9305,1.9305,1.9305,1.915,1.8931,1.8659,1.8391,1.8125,1.7883,1.7811,1.7811,1.7811,1.7811,1.7811,1.7811,1.7264,1.6968,1.7272,1.6459,1.5955,1.6274,1.6011,1.5799,1.5799,1.5418,1.5165,1.5104,1.4808,1.4648,1.4584,1.3814,1.3411,1.3342,1.3393,1.3657,1.416,1.416,1.445,1.5004,1.5467,1.5759,0.9525,0.9459,0.9094,0.9902,1.1271,1.268,1.367,1.444,1.4978,1.5151,1.5055,1.4978,1.517,1.5085,1.5048,1.5182,1.525,1.5256,1.5212,1.5245,1.526,1.522,1.5189,1.5189,1.5189,1.5189,1.5183,1.5171,1.5183,1.5212,1.5236,1.5284,1.5299,1.53,1.5355,1.5387,1.5387,1.5386,1.541,1.541,1.541,1.539,1.5391,1.5406,1.5777,1.6484,1.7539,1.8496,1.9375,2.0234,2.0565,2.0513,2.0432,2.0361,2.0324,2.0318,2.0312,2.0312,2.0312,2.0312,2.0312,2.0312,2.0312,2.0312,2.0312,2.0161,1.9964,1.9836,1.9707,1.9555,1.935,1.9305,1.9305,1.9305,1.915,1.8931,1.8659,1.8391,1.8187,1.8142,1.7949,1.7811,1.7811,1.7811,1.7811,1.7811,1.7455,1.7224,1.728,1.6644,1.6219,1.6301,1.6011,1.5799,1.5799,1.5712,1.5477,1.5134,1.5501,1.5598,1.5305,1.5106,1.4816,1.438,1.4882,1.5036,1.4727,1.4727,1.5016,1.5517,1.5643,1.6153,0.8902,0.9119,0.916,1.0417,1.1369,1.2352,1.3582,1.4201,1.4629,1.5025,1.5165,1.5189,1.5189,1.5224,1.524,1.522,1.5241,1.5241,1.5201,1.5229,1.524,1.5195,1.5189,1.5189,1.5189,1.5189,1.5189,1.5189,1.5189,1.5229,1.5298,1.5307,1.53,1.5355,1.5379,1.5406,1.5406,1.541,1.5391,1.5391,1.5391,1.5391,1.5391,1.5408,1.6092,1.7344,1.7793,1.871,1.9917,2.0366,2.0511,2.0441,2.037,2.0327,2.0301,2.0304,2.0312,2.0312,2.0312,2.0312,2.0312,2.0312,2.0312,2.0277,2.0188,2.0031,1.988,1.9738,1.9591,1.9423,1.932,1.9305,1.9305,1.9305,1.923,1.9084,1.8843,1.8697,1.8508,1.8249,1.81,1.7949,1.7833,1.7811,1.7811,1.7811,1.7526,1.7368,1.7526,1.6952,1.6528,1.6528,1.6246,1.5983,1.5799,1.6054,1.6144,1.5873,1.652,1.676,1.655,1.6853,1.6582,1.5597,1.5883,1.5938,1.5673,1.5929,1.6179,1.6471,1.6743,1.7143,0.8056,0.8637,0.9185,1.0778,1.124,1.1684,1.308,1.3609,1.4004,1.4672,1.5012,1.5189,1.5189,1.5189,1.5189,1.5189,1.5189,1.5189,1.5189,1.5189,1.5189,1.5189,1.5189,1.5189,1.5189,1.5189,1.5189,1.5189,1.5189,1.5234,1.5291,1.5297,1.5334,1.5398,1.5409,1.5391,1.5391,1.5391,1.5391,1.5391,1.539,1.541,1.541,1.5545,1.6385,1.7773,1.8085,1.8997,2.0265,2.0421,2.0438,2.037,2.0316,2.0301,2.0302,2.0304,2.0312,2.0312,2.0312,2.0312,2.0312,2.0312,2.0312,2.0249,2.0069,1.9912,1.9774,1.9636,1.9456,1.9305,1.9305,1.9305,1.9305,1.9305,1.9305,1.9243,1.9102,1.9018,1.8861,1.8371,1.8187,1.8078,1.7856,1.7811,1.7811,1.7811,1.7549,1.7502,1.7749,1.7313,1.6968,1.6968,1.6581,1.6237,1.6064,1.6458,1.6756,1.6876,1.7488,1.7861,1.7861,1.8523,1.8322,1.7093,1.6973,1.6849,1.6783,1.7208,1.7429,1.7463,1.7907,1.8145,0.7313,0.8172,0.9038,1.0029,1.0825,1.1455,1.1662,1.2834,1.3929,1.4019,1.4664,1.5189,1.5189,1.5189,1.5189,1.5189,1.5189,1.5189,1.5189,1.5189,1.5189,1.5189,1.5189,1.5189,1.5189,1.5189,1.5189,1.5189,1.5189,1.5236,1.5303,1.5293,1.5323,1.541,1.5391,1.5391,1.5391,1.5391,1.5391,1.5391,1.5405,1.5398,1.5416,1.611,1.6561,1.6877,1.8383,1.9127,1.934,2.0106,2.0366,2.0305,2.0294,2.0302,2.0308,2.0292,2.0312,2.0312,2.0312,2.0312,2.0312,2.0312,2.0312,2.0249,2.0069,1.9912,1.9774,1.9636,1.9456,1.9305,1.9305,1.9305,1.9305,1.9305,1.9305,1.9289,1.9277,1.9117,1.8914,1.8622,1.8166,1.7856,1.7811,1.7811,1.7811,1.7811,1.7749,1.7766,1.7789,1.7704,1.7658,1.7658,1.685,1.6506,1.7036,1.6864,1.695,1.7518,1.8208,1.8568,1.8568,1.9211,1.9474,1.9277,1.8833,1.8375,1.7903,1.7942,1.7984,1.7987,1.8066,1.8341,0.843,0.8414,0.8361,0.9752,1.0335,1.0692,1.1171,1.1885,1.27,1.3646,1.418,1.4613,1.5112,1.5189,1.5189,1.5189,1.5189,1.5189,1.5189,1.5189,1.5189,1.5189,1.5189,1.5189,1.5189,1.5189,1.5189,1.5189,1.5189,1.5241,1.5293,1.5296,1.5325,1.5391,1.5391,1.5391,1.5391,1.5391,1.541,1.5405,1.5398,1.5639,1.6108,1.6947,1.7339,1.7393,1.862,1.9375,1.9808,2.0182,2.0332,2.0294,2.0294,2.0311,2.0312,2.0312,2.0312,2.0312,2.0312,2.0312,2.0312,2.0312,2.0214,2.0106,1.9933,1.9778,1.9656,1.9481,1.9365,1.9305,1.9305,1.9305,1.9305,1.9305,1.9305,1.9305,1.9305,1.9227,1.9067,1.8679,1.829,1.7971,1.7833,1.7811,1.7811,1.7811,1.8285,1.8589,1.8437,1.8768,1.8973,1.8768,1.8369,1.8039,1.7926,1.8084,1.8214,1.8253,1.8897,1.9256,1.9256,1.9525,1.969,1.969,1.9479,1.908,1.8535,1.8855,1.8855,1.8574,1.8855,1.9132,0.915,0.8702,0.8126,0.9709,1.003,1.0112,1.0777,1.1133,1.167,1.2934,1.3556,1.409,1.4747,1.5055,1.5189,1.5189,1.5177,1.5152,1.5209,1.5177,1.5152,1.5209,1.5189,1.5189,1.5189,1.5189,1.5189,1.5189,1.5189,1.5241,1.5293,1.5296,1.5325,1.5391,1.5391,1.5391,1.5391,1.5391,1.5506,1.5705,1.5699,1.6125,1.6934,1.778,1.8188,1.8226,1.9051,1.974,2.0296,2.0296,2.0294,2.0312,2.0312,2.0312,2.0312,2.0312,2.0312,2.0312,2.0312,2.0312,2.0312,2.0312,2.0197,2.005,1.989,1.9786,1.965,1.9476,1.939,1.9383,1.9383,1.9335,1.9305,1.9305,1.9455,1.9546,1.9326,1.9212,1.9014,1.866,1.833,1.8018,1.7816,1.7963,1.8149,1.8312,1.8894,1.9425,1.9722,2.0027,2.011,1.9867,1.9628,1.93,1.8825,1.9249,1.9383,1.8976,1.9497,1.9818,1.9711,1.969,1.969,1.969,1.969,1.9479,1.9095,1.9479,1.9479,1.9132,1.953,1.969,0.8388,0.8795,0.8938,0.9875,1.009,1.0105,1.0144,1.0806,1.1421,1.1517,1.2747,1.3851,1.3942,1.4632,1.5189,1.5189,1.5088,1.5049,1.5183,1.5088,1.5068,1.5183,1.5189,1.5189,1.5189,1.5189,1.5189,1.5189,1.5189,1.5241,1.5293,1.5296,1.5325,1.5391,1.5391,1.5391,1.5391,1.5391,1.5778,1.6538,1.6547,1.6969,1.7761,1.8571,1.8948,1.8994,1.9857,2.027,2.03,2.03,2.0292,2.0312,2.0312,2.0312,2.0312,2.0312,2.0312,2.0312,2.0312,2.0312,2.0312,2.0312,2.0285,2.0241,2.006,1.9974,1.9944,1.9813,1.9676,1.9582,1.9582,1.9438,1.9305,1.9305,1.9877,2.0244,1.9455,1.8947,1.8623,1.8604,1.8166,1.7811,1.7811,1.8386,1.908,1.9782,1.9553,1.9976,2.1887,2.1329,2.0754,2.0728,1.9994,1.9596,1.9794,1.9904,1.9893,1.9656,2.0039,2.0089,1.9726,1.969,1.969,1.969,1.969,1.969,1.9639,1.969,1.969,1.9639,1.969,1.969,0.8282,0.8731,0.8958,0.9867,1.007,1.0052,1.0086,1.0344,1.0714,1.1271,1.2291,1.3242,1.3736,1.4485,1.5023,1.5068,1.5035,1.5021,1.5056,1.5095,1.514,1.5189,1.5189,1.5189,1.5189,1.5189,1.5189,1.5189,1.5189,1.5241,1.5293,1.5296,1.5325,1.5391,1.5391,1.5391,1.5391,1.5957,1.6361,1.6606,1.718,1.7825,1.8583,1.8871,1.9319,1.985,2.0157,2.0304,2.0312,2.0312,2.0312,2.0312,2.0312,2.0312,2.0312,2.0312,2.0312,2.0312,2.0312,2.0312,2.0312,2.0312,2.0205,2.0087,2.0022,1.988,1.975,1.9797,1.9972,2.0203,2.0336,2.064,2.0903,2.0903,2.1382,2.1622,2.0771,2.0462,2.0291,2.0114,1.9756,1.9121,1.7986,1.9096,2.0433,2.1346,2.1329,2.1312,2.1549,2.1701,2.1769,2.1769,2.1473,2.1216,2.1008,2.1024,2.0766,2.0108,2.0212,2.0124,1.9726,1.969,1.969,1.969,1.969,1.969,1.969,1.969,1.969,1.969,1.969,1.9929,0.8391,0.8966,0.9314,0.9948,1.007,1.0052,1.0086,1.0082,1.0247,1.0844,1.1604,1.2416,1.3271,1.4001,1.4571,1.4935,1.4995,1.5021,1.5049,1.5121,1.5146,1.5189,1.5189,1.5189,1.5189,1.5189,1.5189,1.5189,1.5189,1.5241,1.5293,1.5296,1.5325,1.5391,1.5391,1.5547,1.582,1.6406,1.6944,1.7458,1.8029,1.8707,1.9434,1.9434,1.9754,2.0312,2.0312,2.0312,2.0312,2.0312,2.0312,2.0312,2.0312,2.0312,2.0312,2.0312,2.0312,2.0312,2.0312,2.0312,2.0312,2.0312,2.0205,2.0106,2.0106,1.9981,1.9896,2.0187,2.0463,2.0741,2.1098,2.1493,2.1841,2.199,2.23,2.2444,2.2021,2.1529,2.1093,2.078,2.0483,1.9908,1.8748,1.9875,2.1245,2.2175,2.231,2.2124,2.1634,2.2006,2.231,2.231,2.231,2.2106,2.1658,2.1748,2.146,2.0583,2.0682,2.0483,1.9929,1.9909,1.9839,1.969,1.969,1.9794,2.0034,1.9794,1.9809,2.0034,2.0034,2.0513,0.0,0.0,0.0,1.0094,1.0094,1.0094,1.0094,1.0038,0.9996,1.0086,1.0614,1.1396,1.2463,1.3182,1.3901,1.4821,1.4976,1.5042,1.5177,1.5088,1.5049,1.5183,1.5189,1.5189,1.5189,1.5189,1.5189,1.5189,1.5189,1.5241,1.5293,1.5299,1.5327,1.5391,1.543,1.584,1.6699,1.6758,1.7567,1.9095,1.9134,1.9555,2.0312,2.0312,2.0312,2.0312,2.0312,2.0312,2.0312,2.0312,2.0312,2.0312,2.0312,2.0312,2.0312,2.0312,2.0312,2.0312,2.0312,2.0312,2.0312,2.0312,2.0312,2.0304,2.0323,2.0323,2.0444,2.106,2.1157,2.1204,2.1887,2.1974,2.1989,2.2453,2.2553,2.2671,2.3117,2.2025,2.0872,2.0529,2.0252,2.0069,2.0069,2.072,2.1465,2.2192,2.231,2.231,2.231,2.231,2.231,2.231,2.231,2.2106,2.1658,2.2032,2.1915,2.1055,2.1368,2.1244,2.0413,2.0345,2.0154,1.9786,1.9771,2.0115,2.0737,2.0049,2.0064,2.0737,2.0767,2.1455,0.8844,0.0,0.0,0.0,0.0,0.0,1.0094,0.964,0.9364,0.9975,1.0257,1.0627,1.1466,1.2819,1.3895,1.4091,1.4625,1.5002,1.5042,1.5121,1.5171,1.5209,1.5189,1.5189,1.5189,1.5189,1.5189,1.5189,1.5189,1.5241,1.5293,1.5355,1.5389,1.5391,1.6016,1.6465,1.6699,1.7949,1.8759,1.9115,1.9741,2.0128,2.0312,2.0312,2.0312,2.0312,2.0312,2.0312,2.0312,2.0312,2.0312,2.0312,2.0312,2.0312,2.0312,2.0312,2.0312,2.0312,2.0312,2.0312,2.0312,2.0312,2.0312,2.0384,2.0824,2.0877,2.096,2.1702,2.2185,2.2621,2.3381,2.3548,2.3565,2.369,2.3725,2.3702,2.3595,2.303,2.2459,2.2121,2.1858,2.164,2.164,2.1854,2.2073,2.2276,2.231,2.231,2.231,2.231,2.231,2.231,2.231,2.2254,2.2106,2.2225,2.2049,2.146,2.1521,2.1596,2.1595,2.1593,2.1626,2.1655,2.1655,2.1591,2.1425,2.0752,2.0782,2.144,2.1919,2.2338,0.934,0.9767,1.0102,1.0124,0.0,0.0,1.0094,0.9713,0.949,0.9994,1.0078,1.0306,1.1124,1.216,1.3078,1.3723,1.4233,1.468,1.5024,1.5146,1.5189,1.5189,1.5189,1.5189,1.5189,1.5189,1.5189,1.5189,1.5224,1.5278,1.5331,1.5386,1.5391,1.5391,1.625,1.6875,1.7246,1.8573,1.9396,1.9644,2.0128,2.0332,2.0312,2.0312,2.0312,2.0312,2.0312,2.0312,2.0312,2.0312,2.0312,2.0312,2.0312,2.0312,2.0312,2.0312,2.0312,2.0312,2.0312,2.0312,2.0285,2.0197,2.041,2.0738,2.1035,2.1298,2.1663,2.2412,2.3056,2.3621,2.408,2.419,2.417,2.4016,2.3896,2.3692,2.3369,2.3038,2.2807,2.2721,2.2473,2.231,2.231,2.231,2.231,2.231,2.231,2.231,2.231,2.231,2.231,2.231,2.231,2.231,2.231,2.231,2.2298,2.2362,2.2332,2.2512,2.2834,2.2866,2.2808,2.2749,2.2493,2.2302,2.2099,2.144,2.1455,2.2113,2.2757,2.3056,0.9973,1.0154,1.0106,1.0173,1.0228,0.0,1.0113,1.0042,1.0039,1.0086,0.998,1.0158,1.109,1.1329,1.1887,1.3382,1.3786,1.4209,1.5074,1.5189,1.5189,1.5189,1.5189,1.5189,1.5189,1.5189,1.5195,1.5207,1.5279,1.5336,1.5392,1.5408,1.5449,1.5547,1.6387,1.7246,1.8125,1.8932,1.9684,2.0398,2.0322,2.0302,2.0312,2.0312,2.0312,2.0312,2.0312,2.0312,2.0312,2.0312,2.0312,2.0312,2.0312,2.0312,2.0312,2.0312,2.0312,2.0312,2.0312,2.0285,2.0241,2.006,2.0535,2.1176,2.113,2.1668,2.2445,2.3122,2.3749,2.419,2.419,2.419,2.4113,2.3816,2.3522,2.3212,2.2923,2.2643,2.2535,2.2764,2.2527,2.231,2.2349,2.2338,2.231,2.231,2.231,2.231,2.231,2.231,2.231,2.231,2.231,2.2344,2.2429,2.2429,2.275,2.3477,2.3511,2.3681,2.4067,2.41,2.3917,2.3538,2.2912,2.2724,2.2896,2.2229,2.2203,2.2787,2.334,2.3595,1.0086,1.0102,1.0098,1.0129,1.0645,0.0,1.0267,1.0086,1.0082,1.0094,0.9568,0.9372,1.021,1.0925,1.1502,1.1829,1.3017,1.4209,1.5074,1.5189,1.5189,1.5189,1.5189,1.5189,1.5189,1.5189,1.5218,1.5275,1.5345,1.5385,1.5394,1.5408,1.5723,1.6426,1.7239,1.8072,1.895,1.9759,2.0219,2.0311,2.0319,2.0302,2.0312,2.0312,2.0312,2.0312,2.0312,2.0312,2.0312,2.0312,2.0312,2.0312,2.0312,2.0312,2.0312,2.0312,2.0312,2.0312,2.0312,2.0197,2.0041,2.0022,2.0473,2.1136,2.1643,2.2368,2.314,2.3823,2.4099,2.419,2.419,2.419,2.417,2.4113,2.4036,2.3996,2.3917,2.3649,2.3432,2.35,2.2849,2.236,2.2573,2.2436,2.231,2.231,2.231,2.231,2.231,2.231,2.231,2.231,2.231,2.2547,2.3139,2.319,2.3494,2.4222,2.4303,2.458,2.5259,2.526,2.5313,2.5461,2.4499,2.4024,2.4081,2.3477,2.3295,2.343,2.355,2.3595,1.0286,1.0154,1.026,1.0692,1.0808,0.0,0.0,1.0467,1.025,1.0668,1.0071,0.9748,1.0598,1.0752,1.0887,1.1329,1.2118,1.2964,1.383,1.4676,1.5189,1.5189,1.5189,1.5207,1.5245,1.525,1.5289,1.5345,1.5381,1.5398,1.5406,1.578,1.6204,1.6635,1.784,1.8701,1.9152,1.9943,2.0327,2.0307,2.0308,2.0299,2.0312,2.0312,2.0312,2.0312,2.0312,2.0312,2.0312,2.0312,2.0312,2.0312,2.0312,2.0312,2.0312,2.0312,2.0312,2.0312,2.0312,2.042,2.0582,2.0519,2.123,2.2148,2.243,2.3065,2.3768,2.4118,2.419,2.419,2.419,2.419,2.419,2.419,2.4074,2.3937,2.3937,2.3692,2.35,2.3671,2.3056,2.2537,2.2669,2.249,2.231,2.231,2.231,2.231,2.231,2.2632,2.2716,2.2344,2.297,2.3393,2.3393,2.3731,2.4255,2.5,2.505,2.5372,2.6116,2.615,2.6101,2.5997,2.5449,2.5067,2.4776,2.4552,2.4116,2.3595,2.3595,2.3595,1.0897,1.0693,1.0836,1.1367,1.1095,1.0801,0.0,0.0,0.0,1.1076,1.0594,1.031,1.1038,1.0587,1.0329,1.1057,1.1299,1.1641,1.2348,1.3758,1.4714,1.4714,1.4862,1.4968,1.5023,1.505,1.5158,1.5371,1.5241,1.521,1.539,1.6159,1.6672,1.6843,1.8305,1.9176,1.9331,1.997,2.0308,2.0302,2.0311,2.0312,2.0312,2.0312,2.0312,2.0312,2.0312,2.0312,2.0312,2.0312,2.0312,2.0312,2.0312,2.0312,2.0312,2.0312,2.0312,2.0323,2.0433,2.0776,2.1153,2.118,2.2096,2.3171,2.3217,2.3676,2.419,2.419,2.419,2.419,2.419,2.419,2.419,2.419,2.3996,2.3795,2.3795,2.3588,2.3513,2.3934,2.3537,2.3047,2.284,2.262,2.2513,2.2513,2.2632,2.2733,2.2733,2.3241,2.3376,2.2801,2.3782,2.4306,2.3849,2.4357,2.5017,2.5778,2.5812,2.6082,2.6674,2.6691,2.6505,2.6156,2.6049,2.5779,2.5335,2.5259,2.4736,2.3921,2.3794,2.3752,1.253,1.2502,1.2347,1.1663,1.2009,1.2124,1.0682,0.0,1.1096,1.0455,0.0,1.0148,1.0312,0.0,0.0,1.0312,1.0938,1.1423,1.1536,1.2376,1.2988,1.2988,1.3618,1.4055,1.4066,1.4105,1.4501,1.5334,1.4684,1.4589,1.5359,1.6151,1.6958,1.7729,1.8639,1.9436,2.0164,2.0255,2.0308,2.0308,2.0292,2.0312,2.0312,2.0312,2.0312,2.0312,2.0312,2.0312,2.0312,2.0312,2.0312,2.0312,2.0312,2.0312,2.0312,2.0312,2.0312,2.0384,2.091,2.107,2.1124,2.1704,2.2395,2.3144,2.3841,2.4135,2.419,2.419,2.419,2.419,2.419,2.419,2.419,2.419,2.417,2.4151,2.4151,2.4113,2.4313,2.5049,2.4907,2.4324,2.3313,2.3239,2.3274,2.3274,2.3816,2.4269,2.4269,2.4337,2.4354,2.4269,2.4421,2.4712,2.5304,2.5439,2.5795,2.6522,2.6573,2.6607,2.6691,2.6691,2.6657,2.6624,2.6227,2.5961,2.5888,2.5411,2.5144,2.5028,2.4552,2.4307,1.2943,1.3162,1.3345,1.2466,1.2522,1.2481,1.1233,1.0829,1.0747,1.0875,0.0,0.0,0.0,0.0,0.0,0.0,1.0474,1.0701,1.0693,1.1014,1.1605,1.2574,1.3007,1.3402,1.3915,1.4028,1.4426,1.5329,1.4589,1.4471,1.5356,1.66,1.7462,1.7825,1.9104,1.9959,2.0294,2.0289,2.0312,2.0312,2.0312,2.0312,2.0312,2.0312,2.0312,2.0312,2.0312,2.0312,2.0312,2.0312,2.0312,2.0312,2.0312,2.0312,2.0312,2.0312,2.0523,2.0872,2.1107,2.1664,2.238,2.3061,2.3474,2.3768,2.4098,2.419,2.419,2.419,2.419,2.419,2.419,2.419,2.4318,2.4777,2.4907,2.5016,2.5493,2.5585,2.5615,2.5736,2.5481,2.5042,2.4366,2.4313,2.4298,2.4079,2.432,2.4506,2.4506,2.4864,2.4966,2.4557,2.5285,2.5727,2.5609,2.5998,2.637,2.6674,2.6691,2.6691,2.6691,2.6691,2.6691,2.6691,2.6505,2.6401,2.6401,2.6158,2.6303,2.668,2.5436,2.4892,1.4109,1.4328,1.4489,1.3161,1.2829,1.2535,1.1422,1.1034,1.1021,1.1388,1.1366,0.0,0.0,0.0,1.0824,1.0596,0.0,1.0472,1.0224,1.0199,1.0642,1.186,1.2239,1.2706,1.3593,1.3506,1.3847,1.4961,1.4238,1.4213,1.5309,1.6917,1.7796,1.7771,1.941,2.0312,2.0312,2.0312,2.0312,2.0312,2.0312,2.0312,2.0312,2.0312,2.0312,2.0312,2.0312,2.0312,2.0312,2.0312,2.0312,2.0312,2.0312,2.0403,2.0542,2.0542,2.0814,2.1246,2.163,2.2505,2.3561,2.4044,2.419,2.419,2.419,2.419,2.419,2.419,2.419,2.4245,2.4465,2.452,2.4722,2.5529,2.5713,2.5878,2.6465,2.6512,2.6417,2.6327,2.605,2.5781,2.5634,2.5397,2.5129,2.4842,2.4966,2.5084,2.5084,2.5558,2.5693,2.5152,2.6048,2.6471,2.5947,2.6387,2.6691,2.6691,2.6691,2.6691,2.6691,2.6691,2.6793,2.6996,2.6996,2.7114,2.7317,2.7317,2.7604,2.8076,2.6475,2.5894,1.6816,1.6601,1.6016,1.3516,1.2891,1.2441,1.0723,1.156,1.2495,1.1757,1.2861,1.3726,1.29,1.2735,1.2436,1.1592,1.1464,0.0,0.0,1.0191,1.0213,1.0269,1.1023,1.189,1.2751,1.209,1.2295,1.4004,1.3334,1.3567,1.5221,1.6889,1.7771,1.7702,1.9388,2.0312,2.0312,2.0312,2.0312,2.0312,2.0312,2.0312,2.0312,2.0312,2.0312,2.0312,2.0312,2.0312,2.0312,2.0312,2.0312,2.0312,2.0312,2.0669,2.1173,2.1173,2.1181,2.1384,2.2686,2.3581,2.4172,2.419,2.419,2.419,2.419,2.419,2.419,2.419,2.419,2.4373,2.5164,2.5366,2.5568,2.6374,2.6557,2.6576,2.6594,2.6299,2.6249,2.7006,2.6889,2.6775,2.7157,2.6304,2.5575,2.5575,2.6167,2.6623,2.6623,2.664,2.6657,2.6623,2.6657,2.6674,2.6657,2.6674,2.6691,2.6691,2.6691,2.6691,2.6691,2.6691,2.7046,2.7739,2.7755,2.8163,2.8943,2.8943,2.8924,2.8924,2.7657,2.741,1.7637,1.7988,1.7793,1.5195,1.455,1.3943,1.1618,1.1982,1.2558,1.1703,1.2897,1.3837,1.2962,1.2847,1.2575,1.1718,1.158,1.1266,0.0,1.0271,1.0251,1.0215,1.097,1.1625,1.1903,1.1678,1.2225,1.3978,1.3297,1.3523,1.5214,1.6886,1.7765,1.7702,1.9388,2.0312,2.0312,2.0312,2.0312,2.0312,2.0312,2.0312,2.0312,2.0312,2.0312,2.0312,2.0312,2.0312,2.0312,2.0312,2.0312,2.035,2.0889,2.1221,2.1378,2.1261,2.1764,2.2664,2.3561,2.4008,2.419,2.419,2.419,2.419,2.419,2.419,2.43,2.4832,2.4979,2.5162,2.5988,2.619,2.6392,2.72,2.7191,2.7227,2.8036,2.7712,2.7335,2.7602,2.7349,2.707,2.692,2.6571,2.6336,2.6336,2.6539,2.6691,2.6691,2.6691,2.6691,2.6691,2.6691,2.6691,2.6691,2.6691,2.6691,2.6691,2.7165,2.7435,2.7435,2.7943,2.8332,2.8586,2.8586,2.8721,2.9011,2.9011,2.9245,2.9719,2.9299,2.9015,1.8555,1.8867,1.875,1.6445,1.5859,1.5252,1.2947,1.3333,1.3936,1.3063,1.4023,1.4922,1.4625,1.3883,1.3142,1.2574,1.1991,1.1289,0.0,1.0253,1.0251,1.0201,1.0702,1.1035,1.1035,1.1048,1.1623,1.3063,1.2919,1.337,1.476,1.67,1.7741,1.7702,1.9388,2.0312,2.0312,2.0312,2.0312,2.0312,2.0312,2.0312,2.0312,2.0312,2.0312,2.0312,2.0312,2.0312,2.0312,2.0312,2.0465,2.0765,2.1214,2.1723,2.2208,2.208,2.268,2.3636,2.4063,2.419,2.419,2.419,2.419,2.419,2.419,2.4392,2.4722,2.5256,2.5623,2.6007,2.6814,2.7034,2.7236,2.8044,2.8031,2.8021,2.8664,2.8308,2.7869,2.7707,2.7348,2.6987,2.6758,2.6691,2.6691,2.6691,2.6691,2.6691,2.6691,2.6691,2.6691,2.6691,2.6691,2.6691,2.6691,2.6945,2.7097,2.7097,2.7824,2.823,2.823,2.8704,2.911,2.9381,2.9381,2.9516,2.977,2.977,3.0023,3.0497,3.0497,3.0269]}]]